GFSSE_250_spd_000.txt.gz
Wind_Speed
45 43 37 35 30 31 30 32 35 33 35 30 34 31 34 35 33 34 31 33 37 35 39 40 43 47 49 53 54 52 50 43 40 37 38 40 43 43 44 44 43 45 49
45 44 35 34 34 34 31 30 30 29 32 32 32 31 27 29 28 30 33 33 33 38 41 42 43 47 48 51 46 43 37 35 35 38 39 40 42 44 42 43 42 44 46
45 44 38 36 35 36 35 30 28 31 30 30 28 29 32 28 30 32 34 34 38 40 42 41 44 45 45 46 40 33 31 34 36 37 39 41 43 45 45 43 44 45 49
45 44 40 34 35 34 31 26 30 27 28 28 28 26 30 33 35 34 35 38 40 41 43 42 45 45 44 38 31 30 33 35 36 36 39 42 45 48 47 46 49 50 53
46 43 40 38 32 29 29 32 30 27 28 28 26 26 28 32 34 36 39 40 40 44 45 44 44 43 35 29 28 32 34 36 36 38 43 45 47 48 48 49 53 58 58
44 42 42 39 32 29 33 30 26 27 30 29 27 32 33 36 36 38 40 41 44 46 48 45 41 34 28 28 31 33 33 36 37 42 43 45 47 49 51 53 55 61 61
43 44 44 39 34 32 30 32 29 35 31 32 32 33 35 37 39 40 41 44 45 46 46 45 33 26 27 30 31 33 35 38 40 41 43 45 46 50 52 55 58 60 60
45 45 44 38 35 32 32 32 29 33 32 30 32 35 37 38 39 42 44 46 45 44 42 36 26 27 29 31 31 35 38 40 40 40 43 44 45 50 53 54 59 59 60
45 42 38 34 34 35 33 33 33 35 33 34 35 37 38 39 42 42 45 44 42 38 31 25 25 26 29 30 33 37 40 40 40 40 44 45 48 49 52 55 58 57 61
42 38 37 37 39 36 33 33 34 34 35 35 36 37 38 41 42 44 41 42 37 25 22 23 25 27 28 32 35 40 40 41 41 42 45 47 49 51 53 54 57 56 59
40 41 34 39 38 35 35 36 35 36 35 35 37 37 38 40 41 40 40 30 22 21 24 27 27 28 31 34 38 41 42 43 45 46 46 49 51 52 56 58 58 57 59
40 36 36 38 35 36 37 34 33 34 34 36 36 38 39 37 38 30 21 19 21 24 26 28 31 35 37 39 42 44 45 47 48 50 51 52 53 55 59 60 62 63 62
36 37 39 38 36 36 35 33 34 34 35 37 38 37 34 35 26 22 19 22 23 27 28 31 33 36 39 43 44 44 48 49 52 54 55 55 56 57 62 62 65 65 64
37 34 32 32 32 36 33 33 33 35 36 37 35 33 31 24 20 21 23 25 27 29 30 33 36 39 41 42 45 47 52 51 54 61 64 63 61 63 66 66 67 67 66
28 31 30 29 32 32 32 33 36 35 33 32 32 30 23 22 22 23 26 29 32 31 34 37 42 44 47 48 51 53 55 58 63 62 63 64 65 68 71 69 74 76 73
29 31 31 32 31 32 34 35 33 31 32 32 27 23 23 23 26 28 31 34 36 39 42 46 50 53 55 55 56 57 61 63 66 62 68 69 71 75 77 77 80 80 78
32 30 29 32 31 34 33 29 31 32 32 25 25 25 25 26 30 34 38 41 43 46 49 51 53 56 51 54 56 56 60 62 69 69 73 74 76 78 77 76 77 80 82
30 30 31 32 32 28 25 28 30 26 25 24 24 26 29 32 35 39 42 45 48 51 53 54 54 54 57 58 59 61 65 67 69 75 75 75 73 78 80 81 84 86 86
32 33 34 30 25 24 24 27 25 25 27 27 29 31 33 36 39 43 45 48 48 49 53 55 55 56 59 61 62 65 68 75 75 75 75 73 77 78 77 77 79 80 80
34 35 25 24 24 21 21 22 25 27 29 33 35 37 39 42 43 46 47 47 51 54 54 60 62 64 67 66 70 74 76 78 79 77 72 72 68 71 75 78 80 81 85
31 24 24 23 20 21 22 24 27 29 32 34 36 38 40 42 42 44 48 53 55 57 59 63 67 69 73 76 78 79 76 75 78 67 67 68 74 76 77 78 81 85 88
25 25 23 23 22 25 27 30 32 34 35 36 37 38 41 44 45 48 52 57 60 59 63 65 67 70 74 78 81 81 77 73 69 69 69 74 79 79 79 83 83 84 86
25 26 27 29 31 31 33 36 37 38 41 43 43 47 48 49 50 54 59 62 61 64 68 72 76 80 81 84 84 78 72 62 64 71 73 77 79 81 83 85 85 88 89
28 31 34 35 37 38 40 42 42 46 48 48 51 52 56 56 58 60 63 63 64 67 73 76 77 83 86 89 85 72 64 66 70 68 72 76 78 82 86 89 88 92 95
34 36 39 42 43 43 44 45 48 51 53 56 58 58 57 61 66 71 69 71 73 76 80 81 85 86 88 87 77 65 65 72 73 72 70 76 79 83 87 89 94 96 98
38 42 45 48 48 49 50 51 55 57 59 60 63 66 69 70 70 74 78 81 82 82 84 86 90 85 87 77 67 66 68 70 73 74 75 80 80 84 87 93 97 99 103

GFSSE_250_spd_003.txt.gz
Wind_Speed
42 43 44 42 39 35 32 30 28 33 36 37 32 32 36 37 36 39 37 38 39 39 42 42 42 47 47 46 47 52 53 52 50 48 47 42 40 42 42 42 44 46 43
40 41 41 42 39 34 27 32 29 29 32 31 32 30 30 30 32 27 32 35 38 39 41 41 47 46 48 49 51 51 51 49 42 41 38 37 38 39 41 43 44 46 43
39 39 40 43 39 36 31 33 32 30 28 30 30 28 30 31 34 35 37 37 37 37 42 44 43 46 48 51 50 50 43 38 36 37 37 36 38 40 41 43 45 44 42
37 37 39 43 39 36 36 33 30 32 29 27 29 32 31 34 33 37 37 37 40 40 43 44 45 51 52 49 48 41 35 33 34 36 34 36 38 40 42 43 44 44 47
34 35 40 44 39 37 36 31 34 33 27 28 33 32 30 34 34 36 36 38 39 43 45 46 49 48 47 46 41 35 31 29 32 32 34 36 38 39 40 44 45 46 50
29 32 40 43 41 38 34 35 30 31 29 29 28 31 31 32 36 39 41 41 42 44 45 47 49 47 44 40 31 28 27 27 31 34 35 35 37 38 40 44 47 49 52
25 32 41 44 43 39 34 31 30 30 31 30 31 33 34 36 38 39 39 42 43 44 47 46 46 45 40 31 28 27 27 31 35 38 39 39 40 41 43 44 47 48 51
24 31 41 43 41 38 34 30 29 32 30 32 34 34 36 38 40 41 42 43 46 46 45 41 40 33 26 27 29 27 30 34 38 41 41 41 42 42 44 46 48 51 54
24 34 39 41 40 41 35 32 34 34 32 34 36 37 36 40 42 42 44 44 46 45 40 37 24 24 26 29 30 31 34 37 39 41 41 42 43 45 50 52 53 55 57
26 35 39 42 42 38 34 36 36 35 34 38 38 37 40 41 41 44 45 44 42 40 31 23 25 29 29 30 33 35 38 40 43 46 48 46 46 51 53 55 56 55 59
32 34 40 43 37 35 34 35 34 34 38 39 38 37 38 41 41 43 42 39 37 22 22 25 28 29 30 33 35 39 42 44 46 48 49 48 50 56 58 60 59 61 63
32 35 39 38 33 35 35 36 35 39 40 40 38 38 39 41 40 41 38 34 25 25 25 28 31 31 32 35 39 43 46 47 49 52 53 55 59 61 63 61 65 67 69
32 33 36 36 32 34 37 39 41 37 39 36 36 38 39 40 39 36 32 27 26 27 29 31 32 32 35 38 42 44 48 51 52 56 58 60 63 62 66 67 69 70 70
32 31 34 37 33 33 35 37 38 36 35 34 37 38 38 36 35 33 27 25 27 28 30 32 34 38 40 44 47 50 53 54 57 58 59 60 64 66 67 70 73 73 73
31 32 35 35 32 31 31 32 32 34 34 36 38 37 33 34 34 28 28 29 31 34 35 38 40 44 47 50 51 54 52 58 57 61 63 66 69 72 74 73 72 75 71
31 35 37 32 33 26 28 30 32 33 35 36 34 35 36 32 28 29 31 33 34 38 42 44 45 49 50 51 52 54 57 60 62 64 65 69 73 73 74 74 69 66 63
32 31 30 27 26 28 31 32 33 35 34 33 34 34 30 29 30 30 34 36 39 42 45 46 47 48 50 53 51 55 60 62 67 67 71 76 75 73 71 70 60 60 68
29 30 29 27 30 33 33 33 32 29 31 32 29 30 29 30 32 35 39 42 45 46 47 48 46 49 53 54 59 60 65 68 71 73 77 78 78 74 67 60 60 62 66
31 31 29 31 35 33 32 28 28 28 27 27 28 30 32 35 37 41 44 47 48 50 49 48 52 56 58 58 60 65 67 71 75 76 78 77 73 68 61 59 62 66 66
31 29 30 34 35 35 30 27 28 26 24 28 30 31 33 37 41 44 46 48 50 50 53 55 57 61 62 62 63 68 74 76 79 84 78 75 66 59 61 61 66 67 68
33 33 33 36 35 32 30 28 27 29 30 33 34 37 39 41 43 45 47 49 51 53 56 59 62 66 67 68 70 75 78 82 82 83 80 68 63 59 60 64 66 68 72
33 33 34 35 31 31 32 30 29 33 37 40 42 44 44 44 46 49 52 55 57 58 63 65 70 70 75 77 79 80 80 81 82 87 76 63 60 62 64 66 67 69 71
33 35 33 31 33 33 34 34 37 40 44 47 48 48 49 50 52 55 58 61 60 62 66 69 72 75 76 80 83 83 80 77 82 85 73 66 62 64 70 72 70 72 75
33 31 32 35 36 36 38 41 43 47 51 53 54 53 56 59 61 62 62 64 64 63 67 69 73 77 81 80 82 84 82 83 82 80 78 73 68 71 71 72 74 76 77
32 34 37 37 39 41 45 47 51 53 55 56 57 59 63 66 66 67 69 68 65 66 69 73 77 80 83 81 83 86 86 89 90 87 74 74 71 72 72 75 77 76 77
36 38 38 41 44 48 51 54 56 58 60 62 63 66 69 70 69 71 70 70 77 79 83 82 83 85 87 87 84 88 93 94 91 93 83 73 72 73 75 78 76 80 82

GFSSE_250_spd_006.txt.gz
Wind_Speed
38 41 42 44 45 46 42 41 39 37 37 35 38 38 36 36 33 36 34 33 40 42 43 46 46 47 45 49 50 50 51 54 56 56 56 53 45 45 44 44 45 44 44
40 42 43 45 46 45 41 41 39 35 33 35 36 35 34 32 33 33 33 41 40 42 41 42 45 45 45 48 46 49 53 55 52 51 49 45 42 43 42 43 44 43 42
41 42 44 45 45 44 39 37 35 32 31 32 29 30 34 32 31 33 35 38 41 39 39 41 42 46 47 49 51 53 53 50 48 42 41 40 40 43 43 43 44 44 43
40 41 43 45 44 43 39 38 31 32 37 34 33 31 33 32 32 35 38 41 40 46 44 42 46 46 48 50 51 50 50 47 41 40 39 39 40 42 43 44 44 45 45
38 38 40 41 41 41 40 39 34 33 35 34 35 35 31 33 37 36 39 40 43 43 41 44 45 47 49 50 49 47 45 39 40 40 39 39 41 43 44 45 45 45 47
35 35 37 39 39 40 40 38 38 36 35 34 36 32 31 32 36 38 40 42 41 41 44 46 47 49 48 49 44 43 36 37 39 38 39 40 42 45 47 48 44 45 47
32 32 33 34 37 41 40 38 39 39 34 34 36 35 32 35 36 39 40 41 41 43 45 46 47 47 45 44 41 34 34 37 38 38 39 40 42 44 46 45 44 47 48
28 28 30 32 38 42 40 38 35 33 36 35 36 33 35 37 39 39 41 41 44 46 47 47 46 43 41 36 34 34 35 37 39 41 43 43 44 47 47 46 47 52 55
25 26 27 31 39 43 42 40 36 34 33 33 34 35 36 38 41 41 41 43 46 48 47 46 43 39 34 33 33 36 36 39 41 40 44 46 49 50 54 53 53 57 58
23 23 25 31 39 44 43 41 37 39 35 35 36 37 37 40 39 41 43 44 43 44 45 42 36 31 30 32 33 37 38 39 42 44 47 48 50 52 58 57 56 58 61
21 22 25 31 39 41 42 38 35 38 38 37 38 38 38 40 40 42 40 41 41 44 41 34 31 30 32 34 37 37 39 40 43 45 47 50 52 58 58 57 60 62 65
21 22 26 33 39 39 41 39 36 36 35 37 38 41 42 44 41 41 39 41 43 40 37 32 32 33 35 36 37 39 42 45 47 50 53 53 58 58 60 62 63 67 70
21 22 27 33 38 38 38 34 34 35 40 41 43 42 40 39 39 39 41 42 38 37 33 32 34 35 37 38 40 43 46 48 52 54 56 56 59 62 62 68 69 74 76
23 25 28 33 35 36 34 31 33 37 40 40 38 39 40 40 40 42 41 38 38 34 33 36 38 39 40 41 44 46 49 52 55 56 58 60 64 68 71 73 74 77 76
26 28 31 32 33 35 32 30 35 38 38 38 37 38 40 41 43 39 38 35 30 34 38 37 39 41 43 45 49 50 51 55 58 59 63 65 70 72 71 72 76 74 73
29 30 31 31 33 32 33 35 32 31 32 35 36 39 41 42 39 39 33 32 33 38 39 41 43 45 46 46 49 51 54 57 59 62 65 67 70 74 76 79 79 75 70
29 30 28 30 33 33 30 32 32 35 38 38 39 41 39 36 36 33 34 36 38 41 43 45 48 50 49 49 50 52 57 62 66 66 66 70 76 80 80 78 77 72 65
30 28 28 30 30 30 29 31 35 38 40 40 39 36 37 36 32 34 37 40 43 46 49 51 51 51 53 51 54 59 62 65 66 68 73 77 78 77 76 78 75 68 63
29 29 29 30 29 30 33 36 39 41 41 39 37 35 34 33 36 38 41 45 47 50 52 53 53 52 55 58 59 62 64 67 70 72 76 77 77 76 76 76 75 67 61
30 29 28 29 29 32 37 38 41 43 41 39 37 34 34 36 39 42 45 48 49 50 54 55 56 60 61 63 64 65 67 68 72 75 78 77 78 76 77 77 76 73 70
26 26 27 33 35 38 40 39 41 43 41 40 38 39 40 42 45 47 50 52 53 53 55 58 62 65 68 65 66 65 65 71 75 78 77 79 81 76 78 82 80 79 76
28 30 32 36 39 41 43 43 42 40 42 42 42 44 45 49 52 54 55 57 58 60 61 64 66 68 71 73 68 71 71 76 82 82 85 84 86 86 88 88 87 86 79
33 35 37 38 40 42 44 43 42 43 45 46 47 48 51 55 58 60 61 63 64 66 68 70 72 74 74 75 77 79 80 79 82 87 87 90 92 92 91 91 92 90 82
38 39 41 44 46 46 44 43 45 48 49 51 53 55 59 61 63 64 65 66 70 74 76 75 76 77 79 79 83 89 91 89 88 84 91 96 97 97 95 95 94 90 86
40 45 45 44 43 43 44 46 50 51 52 54 58 61 65 68 68 69 71 73 75 78 80 79 82 82 85 85 91 94 94 95 96 96 95 98 102 102 99 99 101 93 88
40 39 39 41 42 45 48 51 53 54 56 60 63 67 70 72 74 75 78 80 82 84 82 86 88 90 91 93 95 96 98 99 98 103 104 103 104 105 104 106 106 95 88

GFSSE_250_spd_009.txt.gz
Wind_Speed
33 35 37 41 44 46 47 48 46 45 46 44 40 40 44 46 49 49 47 43 44 46 47 46 46 46 47 46 47 48 49 50 52 54 56 56 56 58 54 49 48 49 48
36 39 42 45 48 50 50 49 48 45 43 43 41 39 38 39 39 45 45 46 43 43 44 46 44 45 42 45 50 48 51 51 53 53 53 53 54 50 48 47 46 46 46
39 42 45 47 48 50 50 49 48 44 42 41 39 39 39 38 41 42 41 37 41 42 44 43 45 47 47 47 47 49 51 52 53 54 50 49 47 46 46 45 45 46 47
44 45 47 48 47 49 49 47 46 42 41 37 37 35 36 35 34 34 38 42 41 43 44 44 42 46 44 46 48 50 52 52 51 50 45 43 42 44 45 43 43 46 46
48 50 50 48 45 45 46 45 43 39 36 30 36 39 39 35 37 36 37 39 43 44 44 43 44 46 46 48 49 50 51 51 49 44 41 39 42 44 44 44 43 45 46
51 52 49 46 43 42 42 43 41 38 37 32 35 37 38 37 38 34 34 36 41 43 44 44 44 45 47 49 48 50 51 50 44 39 38 40 41 43 45 44 45 48 49
52 51 48 44 43 40 40 39 39 39 39 38 36 36 34 35 39 38 37 40 40 44 44 44 46 48 49 52 51 49 46 40 35 34 38 40 41 43 44 46 49 51 53
52 50 45 42 40 38 38 39 38 40 38 40 38 34 33 35 37 35 39 42 43 44 43 45 48 49 50 48 48 45 36 34 35 37 39 42 44 46 46 49 51 52 57
49 46 41 37 35 34 36 39 39 40 38 35 36 35 35 37 37 37 38 41 45 45 45 47 47 46 44 44 40 34 34 36 37 40 42 44 45 46 48 50 54 57 60
45 42 37 33 32 33 35 40 39 39 40 36 35 31 35 35 37 41 40 41 44 45 46 46 45 45 42 37 34 33 36 38 41 41 43 44 46 50 53 55 57 59 61
42 38 32 31 30 32 36 40 41 41 38 36 40 41 37 36 37 40 44 45 45 44 45 44 44 41 36 36 36 37 40 40 41 42 42 46 49 52 56 56 58 62 65
40 34 30 30 28 31 37 41 43 43 35 36 38 41 44 42 44 46 44 44 42 42 42 43 40 37 35 36 37 39 42 43 42 44 45 47 51 54 57 59 63 64 66
38 32 29 30 29 32 36 40 43 43 42 36 37 39 41 43 44 45 44 42 42 43 44 39 39 35 35 39 41 42 43 43 45 48 50 52 55 57 59 62 64 66 70
38 32 28 29 29 32 37 39 41 42 39 40 39 38 41 43 45 41 43 43 45 43 40 39 35 34 38 41 42 44 46 48 50 52 54 57 58 61 63 63 66 70 72
36 31 27 27 30 32 36 37 38 37 36 37 38 39 40 43 40 41 45 46 44 41 37 34 34 37 41 44 46 47 49 50 53 55 57 61 63 64 69 68 71 71 71
33 30 28 29 31 32 34 38 39 37 36 36 36 37 36 40 42 46 47 45 43 38 36 37 39 42 45 48 49 51 52 52 55 56 62 64 66 70 68 68 70 72 70
32 30 30 28 30 33 35 37 38 38 39 37 35 38 40 43 45 48 45 43 39 39 40 41 45 47 51 53 54 54 53 55 58 62 66 67 71 68 70 72 74 73 75
31 30 29 30 30 31 32 33 34 33 38 37 37 40 44 45 44 45 45 42 41 42 45 48 50 53 54 55 55 55 56 59 63 68 69 70 70 70 73 76 78 78 79
31 30 28 29 31 32 30 31 32 35 36 38 40 43 45 46 46 45 45 43 44 47 50 52 55 55 57 58 56 58 62 65 69 71 73 75 73 75 79 81 80 82 82
31 29 27 29 29 30 31 33 36 37 40 45 45 47 48 48 48 46 48 48 49 52 55 56 58 62 64 64 63 64 67 70 73 75 76 76 78 81 85 86 86 86 86
30 30 28 27 28 29 32 35 39 41 45 46 48 49 52 50 50 48 50 53 54 56 59 62 64 66 70 72 71 73 73 77 77 80 79 80 83 88 90 92 91 92 92
29 28 26 27 29 32 35 39 42 45 48 49 50 54 52 52 52 51 53 56 60 62 65 69 70 71 71 75 77 78 78 80 84 85 85 87 87 90 93 95 95 95 94
34 32 31 32 35 38 41 44 45 48 50 52 54 53 52 54 56 57 59 62 64 67 71 74 76 76 77 81 83 85 85 83 83 88 93 96 97 98 99 100 99 100 98
40 39 39 39 41 42 45 47 49 52 55 55 53 53 55 59 60 63 65 68 71 73 77 80 82 83 86 86 91 93 94 93 90 91 93 99 106 104 103 103 103 103 106
44 45 44 43 44 46 48 54 55 53 51 51 53 57 60 62 65 67 70 73 77 81 83 86 89 91 93 95 97 98 98 99 101 102 98 99 104 108 109 108 110 112 113
41 43 43 43 46 49 46 46 48 50 52 54 56 59 62 66 70 73 77 81 84 87 90 92 94 96 97 99 100 103 105 107 109 110 111 110 110 106 111 112 114 117 116

GFSSE_250_spd_012.txt.gz
Wind_Speed
30 33 35 35 36 37 40 44 46 48 52 52 52 49 49 46 45 45 47 48 50 50 50 47 45 47 49 49 48 51 49 47 49 48 50 49 51 53 55 55 46 42 43
35 35 38 40 40 41 43 48 51 52 53 54 51 49 45 46 42 41 39 42 46 50 48 48 51 47 45 46 47 46 47 49 46 46 47 49 51 54 53 47 40 41 43
41 43 43 44 44 45 48 49 51 52 53 51 48 45 43 43 42 41 40 42 44 45 43 46 46 47 45 45 45 44 44 45 48 48 48 51 52 50 46 39 41 43 44
47 49 47 46 46 48 50 49 48 49 49 47 45 42 41 41 41 35 35 36 38 39 41 44 47 44 45 45 45 46 45 46 48 48 51 50 49 42 37 38 41 44 46
49 51 51 47 48 49 51 48 45 46 45 43 42 39 39 36 35 38 39 37 38 39 41 41 43 43 44 44 45 47 46 48 50 52 49 43 36 34 36 39 42 45 47
51 51 51 49 50 52 51 47 43 41 41 40 38 32 28 34 36 36 40 39 41 42 40 41 42 43 44 43 45 46 49 49 50 49 42 32 32 35 38 40 43 45 45
49 50 51 52 53 54 50 45 40 38 38 38 33 37 30 36 34 38 38 38 41 41 43 43 44 44 44 45 45 47 47 46 44 36 31 33 35 38 40 42 43 44 47
51 53 53 54 55 54 48 42 36 36 38 36 36 38 38 36 38 36 37 38 40 44 43 44 46 46 45 46 46 44 43 41 32 31 32 35 38 40 41 41 43 44 47
55 55 56 56 55 52 45 39 34 36 37 37 38 39 37 41 38 39 42 40 38 40 41 42 43 43 43 43 43 42 39 32 31 32 34 37 39 40 41 41 43 46 49
55 55 57 55 54 50 43 36 33 37 37 39 38 35 36 36 38 38 35 36 40 42 44 43 42 41 39 39 40 39 32 31 34 36 38 39 40 40 42 42 45 48 50
58 54 56 53 52 47 42 35 33 37 39 40 38 38 36 39 41 42 41 41 45 46 45 44 40 40 41 39 39 34 31 34 36 38 40 41 41 43 44 45 48 52 53
50 50 52 51 48 43 39 35 34 38 39 40 37 39 38 36 39 43 44 48 48 46 46 44 44 44 42 39 38 33 33 37 41 41 41 42 43 46 47 49 52 55 56
48 50 48 47 43 40 35 34 34 37 40 40 43 40 33 37 39 40 45 47 47 49 47 45 44 46 42 41 36 34 37 41 42 44 45 47 48 50 51 54 57 59 60
45 45 47 43 41 39 34 34 34 37 41 43 42 44 40 41 41 43 45 48 49 47 46 46 47 42 41 36 36 37 40 44 46 49 50 51 52 53 55 59 63 64 63
41 44 43 41 38 36 33 33 34 36 38 40 42 38 40 45 43 44 44 45 47 48 49 47 42 39 37 38 39 41 44 48 50 53 55 54 54 56 59 62 65 65 68
40 43 41 38 37 35 33 33 33 34 37 38 36 39 40 40 42 41 44 47 49 49 50 46 45 40 41 41 43 46 49 52 55 58 58 58 58 62 64 67 68 68 70
41 41 39 37 35 33 33 32 33 35 37 38 42 41 43 42 42 43 48 49 49 52 50 48 45 44 45 46 49 52 54 57 58 59 60 61 63 65 67 72 72 72 73
38 37 37 35 33 32 32 31 34 34 37 39 40 41 43 45 45 47 50 52 52 53 53 50 47 48 50 51 53 55 57 59 62 65 68 68 69 71 73 74 75 76 77
36 35 35 33 32 31 31 31 32 32 34 36 36 41 44 45 48 50 53 55 55 55 55 54 52 52 55 58 57 59 62 65 68 70 73 75 76 78 80 81 80 80 81
34 32 33 31 29 30 30 30 32 33 33 35 39 42 43 47 50 52 55 57 59 56 58 57 57 59 61 63 63 66 69 72 75 77 77 77 78 82 83 85 87 87 87
32 32 33 30 28 28 29 30 31 32 35 37 40 45 48 51 52 54 55 60 58 57 60 61 62 64 68 70 69 72 74 79 82 85 85 87 87 89 90 92 93 92 91
30 31 32 31 29 28 28 30 32 35 39 42 45 48 52 54 55 57 60 59 58 60 64 66 68 69 73 77 78 78 79 83 88 91 93 95 96 98 99 101 99 100 101
28 30 34 34 33 32 33 35 37 40 43 47 49 50 53 57 59 59 58 59 60 64 68 71 73 76 78 82 86 88 88 87 89 92 95 98 100 101 103 104 106 107 107
30 32 33 37 39 39 40 41 44 45 48 50 52 55 55 55 55 57 59 62 66 70 73 75 78 82 84 86 91 95 96 97 96 92 94 96 100 104 109 112 112 112 112
35 34 33 35 40 44 44 45 47 49 51 54 53 54 56 59 61 63 66 69 72 75 79 82 87 90 92 95 97 100 103 105 107 109 103 105 106 107 110 114 119 120 120
35 33 33 35 40 42 45 46 46 50 52 52 55 58 60 62 64 67 71 74 78 81 84 87 91 95 99 102 105 108 111 113 115 120 120 116 115 114 117 117 120 124 127

GFSSE_250_spd_015.txt.gz
Wind_Speed
26 26 28 30 31 34 35 36 38 40 43 46 49 51 53 53 51 50 49 49 48 49 49 49 51 51 52 51 52 50 51 50 47 46 44 45 44 46 46 46 49 48 45
33 33 33 35 36 39 41 41 42 44 46 47 50 51 53 53 50 48 46 45 44 45 43 43 45 47 49 52 51 50 46 44 44 43 42 42 44 45 46 48 48 44 35
41 40 38 40 42 42 43 44 45 45 47 49 49 49 49 48 47 45 43 40 41 41 40 38 39 40 43 45 47 47 45 47 44 45 44 44 46 46 49 46 39 33 34
47 47 47 47 50 47 47 47 47 48 48 50 47 46 46 45 44 42 40 39 39 35 35 35 37 39 41 42 45 47 46 46 45 46 47 48 47 47 46 36 33 33 35
52 53 52 50 48 49 47 46 48 51 51 50 44 43 42 42 41 38 37 35 34 38 39 38 39 39 38 40 42 43 44 44 45 46 48 48 46 45 33 31 32 34 36
48 47 47 47 47 47 46 47 51 53 53 49 41 39 39 40 38 33 31 36 35 37 39 41 38 39 40 41 43 42 43 43 45 46 44 43 42 32 30 32 34 36 37
54 55 54 54 51 53 55 54 53 54 53 47 37 38 38 37 30 24 35 32 35 39 37 36 40 40 39 39 41 41 40 42 45 44 42 37 30 29 31 33 35 37 39
56 56 57 56 56 57 55 54 55 54 51 44 35 37 37 32 34 30 33 33 36 38 37 40 38 41 40 39 37 38 38 39 42 41 35 30 29 31 33 35 36 39 41
60 57 58 58 58 58 57 57 55 53 47 37 33 37 35 34 35 37 38 36 38 39 41 40 42 43 42 39 37 37 38 38 40 38 32 30 32 34 35 37 40 41 41
62 60 58 59 58 55 55 52 53 49 41 34 34 35 37 36 36 37 41 45 43 39 38 41 42 45 43 41 39 39 40 39 36 36 34 34 36 37 38 40 42 44 43
58 58 56 56 54 50 49 50 49 44 36 32 33 37 37 36 33 34 38 38 42 43 46 47 48 49 45 44 42 41 42 40 38 36 36 37 39 40 41 41 43 45 46
52 53 51 52 49 46 47 48 46 40 35 33 34 39 39 37 35 37 39 42 40 42 45 46 50 48 47 43 44 47 43 42 41 38 38 39 41 42 44 46 46 47 48
46 44 43 44 42 43 45 45 40 36 34 34 36 41 42 39 40 37 37 37 39 43 45 48 50 48 46 47 47 44 43 41 39 39 40 42 44 47 49 50 50 49 50
39 33 36 39 40 42 43 42 38 35 32 33 37 40 40 42 42 43 41 42 46 46 47 47 47 48 48 49 44 42 39 38 39 42 44 46 49 51 53 55 54 53 55
29 26 34 37 38 41 41 38 36 33 32 34 34 39 43 45 46 50 48 51 50 48 49 48 48 50 50 48 46 42 40 41 43 46 49 52 54 56 58 57 57 58 59
24 27 33 37 37 40 38 36 35 32 33 34 36 37 40 43 47 50 47 46 48 50 50 50 50 52 53 49 46 43 43 45 47 49 51 54 55 56 59 62 64 64 67
22 25 31 36 37 36 35 33 33 33 33 34 35 37 40 43 45 44 48 50 51 49 53 54 54 54 55 53 51 48 49 50 52 54 56 58 61 62 64 67 69 72 74
23 28 32 34 35 33 30 30 31 32 33 34 35 39 42 44 45 47 50 51 52 53 54 57 57 56 58 56 55 55 55 57 59 61 64 65 66 69 72 73 75 77 79
27 30 34 35 34 29 27 28 29 33 33 33 35 38 40 42 42 44 48 51 51 53 56 56 59 58 60 57 56 60 62 64 67 69 71 73 74 76 78 80 84 84 84
26 30 33 35 33 29 28 26 26 30 32 33 35 37 38 40 42 45 48 50 55 58 59 59 60 61 59 58 60 63 66 70 73 76 78 79 81 84 85 87 89 90 91
27 29 31 33 30 29 28 27 26 26 28 30 33 35 38 41 43 46 50 54 57 58 60 63 62 60 61 61 62 66 70 73 76 80 84 86 89 92 92 93 95 96 98
27 29 30 31 30 29 28 29 28 27 29 31 33 36 39 44 47 50 53 56 60 62 62 61 60 62 66 70 71 73 74 77 82 85 88 90 93 97 99 101 103 104 105
31 32 33 34 32 30 31 32 32 33 35 37 39 43 46 49 51 55 56 54 55 58 61 63 65 67 69 75 79 81 81 82 84 88 92 97 101 104 107 110 112 114 115
28 31 34 36 33 33 32 35 38 40 42 43 46 48 49 51 54 53 55 58 61 63 65 68 71 74 76 79 84 90 92 93 93 89 96 101 104 107 110 113 116 119 123
30 34 34 34 35 33 33 35 37 40 43 46 49 49 51 53 53 56 60 63 66 68 71 73 77 80 83 86 90 94 98 104 109 110 102 107 111 114 116 118 120 122 125
34 34 35 34 35 33 34 35 37 39 42 45 47 49 51 54 58 61 64 67 69 71 75 79 83 86 90 95 99 102 106 109 114 118 120 117 118 119 121 124 126 128 131

GFSSE_250_spd_018.txt.gz
Wind_Speed
32 31 28 27 26 29 31 33 36 39 40 42 42 44 45 46 49 51 53 53 52 50 49 50 54 52 51 51 51 50 51 52 55 52 50 50 47 48 46 44 44 45 46
35 34 33 33 35 35 36 37 40 42 42 43 45 46 49 49 51 51 52 52 52 47 44 47 46 44 44 44 42 46 46 48 50 50 45 48 50 48 47 46 46 47 47
37 37 39 41 43 43 42 45 48 46 45 44 45 48 51 51 53 52 50 49 47 40 38 41 40 40 39 38 38 39 42 45 48 47 51 50 48 47 47 48 48 48 47
37 40 41 44 48 50 49 48 45 43 44 44 46 50 51 51 52 50 46 44 40 37 39 37 39 37 36 36 38 39 38 42 44 45 46 47 46 47 48 48 49 46 38
40 41 43 41 43 46 47 43 44 45 46 49 52 51 52 50 48 45 43 41 37 36 34 35 38 38 40 40 40 39 40 44 46 44 44 44 45 45 45 45 44 37 31
44 44 46 47 45 48 49 52 52 51 51 54 52 53 52 48 43 40 41 38 34 33 33 38 37 40 41 39 40 41 42 42 45 44 43 43 44 45 44 41 36 32 32
49 51 51 50 53 55 54 54 55 55 56 55 55 52 51 43 38 37 38 35 31 32 36 38 39 38 35 40 41 40 42 41 41 41 42 42 42 42 40 35 32 32 34
54 53 54 57 59 61 58 57 57 55 56 53 50 48 46 38 35 37 36 28 27 35 38 38 40 38 40 41 43 43 44 42 39 40 42 43 42 41 37 34 33 35 36
57 59 60 63 63 64 63 57 58 55 53 48 47 46 40 34 35 38 30 35 34 39 37 39 37 43 44 42 43 43 43 43 41 42 43 44 42 40 38 36 36 37 38
67 68 63 64 65 65 61 57 55 52 50 46 45 42 35 33 35 36 33 38 40 43 45 47 48 44 43 45 47 47 45 43 41 42 44 44 43 41 40 38 38 39 42
62 63 65 63 62 60 58 52 50 47 45 44 43 38 33 33 35 36 36 39 41 47 48 46 42 43 44 46 47 48 46 43 46 48 44 43 43 43 42 41 42 45 46
62 59 59 55 54 52 47 43 41 41 42 43 40 35 32 33 36 39 35 37 37 40 42 47 43 39 43 48 48 47 44 47 48 46 44 42 42 43 44 45 47 48 50
56 52 50 48 47 44 37 36 37 39 41 41 36 34 32 34 40 42 42 41 39 41 41 40 40 43 48 49 50 48 48 48 47 44 43 39 38 41 45 47 50 52 55
44 43 45 43 39 35 29 33 36 39 40 38 34 33 31 35 42 45 46 48 45 41 45 47 51 51 52 53 52 51 50 49 47 45 43 42 42 44 46 50 53 56 59
42 43 41 36 31 26 28 32 36 39 37 34 32 32 32 36 42 43 46 49 49 50 54 53 52 52 53 55 54 54 55 54 50 46 47 47 47 48 51 53 55 57 59
39 36 33 29 25 26 27 31 34 37 34 32 32 33 32 35 38 46 50 51 53 56 55 56 54 53 55 56 57 57 57 56 56 51 50 52 53 55 56 58 59 61 63
35 28 30 25 24 25 28 31 33 33 31 31 32 34 35 38 41 42 43 46 49 50 53 54 57 58 58 57 59 60 59 58 59 57 55 56 59 62 64 65 67 69 71
26 23 22 23 24 25 29 34 31 30 30 31 32 34 38 40 42 44 47 49 51 53 54 56 57 59 58 56 59 61 62 63 63 60 59 60 63 66 69 73 74 76 78
25 22 21 24 26 27 30 33 30 30 28 28 31 35 37 41 44 48 49 50 51 51 51 53 55 55 59 61 61 63 64 66 63 62 64 66 68 71 74 75 79 82 84
24 24 22 23 26 28 30 31 29 28 27 27 29 34 37 41 45 46 47 47 46 48 49 52 56 60 61 62 64 65 64 62 62 65 68 72 75 78 80 82 86 88 92
24 24 22 24 27 28 30 31 28 26 26 28 30 32 36 39 40 43 44 44 47 51 54 58 61 63 64 61 58 60 63 65 69 70 74 77 80 84 87 89 93 95 97
27 26 25 26 28 30 31 33 33 30 29 28 30 31 33 36 39 41 44 48 53 56 59 62 63 61 62 64 63 63 63 68 73 75 79 83 86 90 94 97 100 103 105
27 28 28 28 30 31 32 34 35 37 36 35 36 37 38 41 44 48 51 54 57 59 62 62 61 63 64 68 70 71 70 73 75 81 85 89 93 96 100 104 108 112 114
29 31 31 31 32 35 36 34 34 37 40 41 41 43 45 47 49 52 55 57 58 60 61 64 67 68 70 72 75 79 81 82 81 78 87 93 98 103 106 110 113 118 121
26 31 33 34 34 35 37 37 38 39 40 39 41 43 45 47 50 52 54 57 58 62 65 68 71 74 77 78 80 83 88 92 96 98 92 99 104 108 110 112 113 115 118
29 30 33 36 38 38 40 41 43 41 38 39 41 43 44 47 50 53 57 61 65 68 71 75 77 79 83 86 90 93 96 100 104 107 108 106 108 108 110 110 115 121 125

GFSSE_250_spd_021.txt.gz
Wind_Speed
30 29 31 32 33 32 31 30 33 36 37 39 39 41 41 43 44 45 47 50 50 51 52 53 54 53 52 53 52 52 54 54 52 52 53 55 55 54 51 51 48 49 48
35 33 33 34 35 34 36 39 42 43 43 46 49 46 44 45 45 46 50 51 52 51 53 51 51 46 47 47 49 46 45 44 46 49 47 48 50 51 52 51 50 50 48
37 36 36 36 37 39 40 40 42 44 47 49 47 44 43 44 46 49 50 52 52 51 50 48 42 39 41 44 42 41 39 40 39 41 43 42 44 45 49 53 48 46 48
36 37 39 37 38 39 41 41 41 40 45 47 47 47 47 49 51 52 54 53 52 49 46 44 37 38 42 42 41 38 38 39 40 42 44 45 44 45 45 45 45 46 46
41 42 42 45 45 44 44 44 43 44 47 49 51 55 57 55 55 54 55 53 49 47 44 40 37 40 38 40 37 41 39 40 41 43 42 45 44 45 45 46 46 46 45
42 45 48 49 50 49 48 49 50 52 55 52 54 56 54 57 55 53 51 51 45 44 41 40 38 36 38 39 38 40 41 37 42 43 42 44 46 43 42 43 44 42 42
44 45 47 50 49 48 51 52 55 56 58 60 59 58 55 56 52 49 50 46 41 42 38 37 34 36 37 44 42 41 37 38 40 44 44 44 45 43 42 42 42 42 40
47 48 50 53 52 51 54 57 61 60 63 62 59 59 55 51 49 49 47 39 37 38 36 34 33 38 46 43 42 38 40 40 40 44 44 45 44 44 43 44 44 42 40
51 53 52 55 55 57 61 62 64 66 64 60 58 56 52 48 47 46 42 35 36 34 31 28 36 41 43 42 41 44 47 42 45 44 46 46 45 45 45 44 43 42 40
55 55 55 57 61 63 65 67 65 65 59 54 52 49 45 42 44 41 37 34 34 33 31 35 46 48 42 43 48 51 42 44 47 48 45 44 47 50 49 46 43 43 45
59 57 58 61 64 68 68 65 63 56 53 48 41 40 39 41 40 37 34 34 33 36 37 40 44 45 48 52 50 44 41 47 50 48 46 46 48 48 47 46 45 45 47
62 61 64 67 68 65 62 59 53 49 46 38 35 37 38 40 38 35 33 34 34 40 38 40 41 43 43 45 50 43 45 48 52 51 49 48 47 46 45 44 43 45 48
64 66 63 63 61 58 53 49 46 40 36 31 34 38 39 39 36 33 34 35 35 39 39 40 42 45 46 42 42 47 51 54 54 53 52 51 50 47 44 44 44 44 47
61 60 60 57 53 50 48 45 37 35 30 31 35 37 38 37 34 32 34 37 40 44 47 41 43 44 48 46 49 52 57 59 56 56 55 56 55 50 47 47 48 49 50
56 55 52 49 47 46 42 37 35 31 30 33 36 36 37 36 34 33 34 40 43 44 52 51 51 53 55 56 57 60 59 58 58 58 58 58 57 56 53 52 52 53 54
49 46 46 47 47 43 36 35 31 29 32 36 37 35 35 35 34 33 36 38 48 48 49 54 58 57 59 62 63 63 64 62 62 61 59 60 61 61 59 56 56 58 59
42 44 46 45 40 34 32 28 27 31 35 38 39 36 35 34 34 35 36 39 41 48 52 56 60 64 64 61 62 62 62 64 63 61 63 65 64 64 65 61 59 61 63
42 43 42 40 37 30 29 26 28 32 35 37 38 38 35 34 35 36 39 42 45 49 50 52 55 58 59 58 60 61 61 61 63 65 67 67 66 65 63 63 63 65 67
39 39 37 35 31 30 28 28 29 32 35 36 37 37 36 35 36 38 41 44 46 50 52 56 56 57 59 57 56 58 61 64 67 69 68 66 64 63 64 65 67 70 73
36 34 33 31 29 27 28 29 30 32 33 33 34 36 37 36 37 38 41 43 46 49 52 54 55 53 52 54 57 61 65 68 67 65 64 67 67 68 70 72 74 77 81
28 28 30 29 30 32 32 30 30 32 32 32 34 35 37 39 38 38 40 42 44 46 47 48 51 54 59 61 62 65 67 67 67 68 69 70 72 75 77 79 81 83 87
23 28 31 31 32 34 34 33 32 34 33 34 35 37 40 41 41 40 41 43 45 47 50 53 56 61 64 67 67 67 66 69 73 74 74 76 78 80 83 87 90 92 94
21 22 29 34 34 36 37 37 36 35 35 37 39 41 42 44 46 47 48 49 52 54 57 60 63 64 65 69 71 69 70 72 73 78 80 83 86 89 91 95 99 103 106
23 25 25 29 34 37 37 37 35 36 35 38 41 42 43 43 45 47 50 52 55 57 59 61 62 65 66 69 73 77 79 80 80 77 83 87 91 95 97 101 105 109 112
25 26 26 27 29 32 35 39 39 39 38 39 41 44 45 47 47 49 50 54 57 60 62 64 67 70 74 76 78 81 83 87 90 89 84 92 94 100 103 106 110 113 115
30 29 30 29 31 32 34 37 39 40 41 44 46 47 46 48 51 55 58 62 64 66 69 71 75 77 79 82 85 88 90 92 93 94 97 100 101 104 108 110 113 116 117

GFSSE_250_spd_024.txt.gz
Wind_Speed
29 28 31 31 30 30 31 33 33 32 32 35 38 40 40 43 46 46 46 45 46 48 48 52 52 53 53 54 56 53 54 55 53 54 54 54 54 52 52 54 55 54 54
36 39 39 38 35 33 34 35 35 35 38 39 39 40 41 44 45 43 46 47 48 50 53 52 54 54 54 53 53 49 50 51 50 47 45 43 44 44 45 44 46 45 48
41 44 41 37 35 34 34 36 37 39 41 41 40 38 39 44 47 48 49 51 52 54 55 56 57 56 53 51 48 44 45 47 45 43 39 39 41 41 41 42 44 44 44
42 37 33 34 35 38 39 40 38 40 43 43 45 43 48 48 47 50 54 57 59 58 57 57 57 55 52 48 41 41 45 46 43 42 40 39 42 42 42 41 42 43 45
36 33 33 35 42 42 44 45 46 48 48 47 48 51 54 53 57 55 56 57 58 57 55 53 54 53 49 43 39 42 44 44 41 39 39 39 41 44 43 44 43 42 42
38 37 39 42 43 47 46 48 51 52 52 51 53 57 58 57 61 59 58 58 57 54 52 53 52 50 46 39 41 43 40 41 40 42 43 38 39 44 45 44 43 42 43
45 43 44 45 47 46 47 49 51 50 52 53 54 57 58 63 65 62 57 57 54 52 52 52 49 46 43 40 41 38 41 43 44 44 37 41 40 43 46 46 45 43 44
46 45 43 46 47 47 49 50 51 51 56 57 61 63 64 66 62 56 53 52 51 51 50 48 45 42 41 35 35 38 42 48 48 40 43 41 44 44 48 47 44 44 44
50 45 46 47 48 49 51 54 51 55 60 65 67 66 68 63 54 50 48 47 48 49 47 43 40 37 33 36 37 39 43 48 44 44 43 43 43 46 51 45 44 46 47
51 52 51 51 52 55 55 56 56 60 65 68 68 66 60 51 47 44 41 43 47 47 42 39 36 34 31 33 36 42 50 48 45 48 49 44 47 50 48 47 46 47 46
58 59 57 57 59 58 59 59 65 65 67 66 65 59 52 47 41 38 41 44 44 42 38 35 34 34 32 37 43 53 51 52 50 53 46 49 53 50 52 49 48 49 47
62 63 66 65 64 63 63 64 65 68 64 62 55 50 43 40 38 39 40 41 41 38 37 36 38 39 40 40 43 45 45 47 50 49 47 49 49 52 52 51 51 50 48
61 61 61 62 62 62 64 65 68 61 57 54 51 42 39 38 38 38 39 40 40 38 37 37 40 45 49 41 43 45 48 49 47 47 49 52 55 60 56 54 53 52 50
61 60 59 58 62 63 63 66 59 54 54 51 41 39 38 38 39 40 39 38 38 37 37 37 41 43 43 43 44 46 51 51 52 53 55 60 63 63 60 58 57 55 54
59 61 62 62 62 61 60 54 52 53 50 41 38 36 35 40 41 41 40 39 38 37 37 40 41 48 51 48 50 50 54 57 61 61 63 67 67 68 63 62 59 60 61
65 64 63 60 57 56 52 51 52 49 39 35 35 34 37 40 41 41 42 40 38 37 38 41 44 46 55 58 61 61 63 65 68 67 70 72 69 65 65 61 62 64 65
64 63 57 53 53 50 49 50 46 39 35 34 36 37 39 38 37 41 42 41 40 39 39 41 48 52 51 54 59 64 69 71 75 75 67 64 65 64 63 66 68 68 66
61 57 54 48 46 47 48 47 40 36 34 37 38 38 38 36 38 38 40 42 42 42 41 43 46 49 53 55 59 62 62 63 64 63 62 62 62 64 67 70 71 69 66
51 51 43 42 43 47 46 38 37 37 38 39 38 38 36 35 36 37 37 41 43 43 43 46 48 50 53 56 58 60 64 63 62 61 61 64 67 70 71 70 69 71 72
39 40 39 42 43 43 40 37 36 36 39 38 37 38 36 37 36 38 38 40 42 44 44 45 48 50 52 54 57 59 62 62 62 63 66 69 73 74 74 73 74 76 78
36 38 42 41 41 37 35 33 36 38 39 39 40 38 37 37 37 40 42 42 43 44 46 47 48 49 51 52 54 57 61 65 68 71 72 74 75 77 76 79 81 83 85
37 41 38 35 34 36 35 34 36 37 38 39 39 37 38 37 39 40 42 43 45 47 49 51 53 55 58 60 60 62 65 71 73 76 76 76 76 78 82 85 88 90 92
37 34 30 28 27 30 35 36 36 37 39 37 38 40 42 41 40 41 42 44 46 48 49 52 54 57 61 65 67 66 68 70 72 76 79 82 84 86 88 91 94 96 99
30 25 26 27 29 29 29 29 31 35 38 39 39 40 41 42 44 46 46 46 47 48 51 54 57 60 62 66 70 73 74 74 76 75 80 85 88 91 95 99 101 103 104
29 28 26 26 27 28 27 28 30 33 35 38 39 41 43 46 48 47 49 51 53 54 55 56 59 61 63 66 70 75 79 82 86 85 81 86 90 94 94 97 102 106 109
30 29 29 29 30 31 32 33 35 37 39 41 43 45 46 49 51 52 54 55 56 59 62 63 66 67 70 73 75 78 79 83 87 88 87 88 88 94 98 102 107 110 114

GFSSE_250_spd_027.txt.gz
Wind_Speed
36 28 26 24 26 30 32 31 30 31 32 33 34 35 36 37 39 37 39 42 44 44 46 49 51 53 53 54 57 57 59 59 61 57 57 57 55 53 52 51 53 50 50
42 32 32 31 34 38 39 38 36 34 35 35 37 39 42 43 43 39 40 42 43 46 49 50 52 55 57 58 58 59 61 59 60 54 54 53 51 48 47 44 41 42 41
41 35 38 38 40 37 34 36 36 37 38 38 39 40 40 43 44 46 48 49 50 52 51 55 57 59 60 61 61 62 61 57 56 49 49 49 46 43 41 39 38 39 41
47 45 43 42 40 31 31 35 34 37 40 41 43 46 49 50 50 52 55 57 58 57 59 59 60 58 60 60 59 59 58 55 52 47 49 48 47 42 39 41 38 40 42
48 49 47 46 37 34 36 39 42 43 44 47 50 51 55 55 54 55 58 58 61 62 63 62 61 60 59 58 58 59 59 54 48 46 46 48 42 40 39 41 41 41 42
45 48 50 46 39 38 35 40 43 41 43 47 51 53 56 53 55 58 59 64 62 66 67 65 60 58 56 57 59 59 56 48 46 46 48 43 41 44 43 38 40 41 43
48 48 45 50 45 41 40 42 41 42 45 48 52 54 54 56 59 63 67 67 67 69 66 59 55 53 54 56 57 57 50 43 45 45 46 46 47 49 42 40 42 44 45
53 49 50 51 51 46 43 42 42 45 52 54 56 55 55 60 62 66 67 67 66 59 58 53 50 50 53 54 53 48 43 43 46 49 50 48 51 51 43 40 44 44 46
57 52 49 47 51 48 46 46 47 50 55 55 57 59 61 63 69 68 68 65 57 52 47 46 46 50 51 50 47 41 41 46 47 48 48 48 51 51 44 45 44 46 49
62 56 48 52 50 52 51 51 54 55 60 62 62 63 65 69 69 67 59 55 48 46 45 45 47 48 48 47 42 41 42 43 46 47 44 51 53 51 49 50 51 48 51
47 50 51 55 54 54 57 60 62 63 66 67 67 66 68 69 64 57 55 45 43 45 46 46 46 46 47 45 42 42 41 43 45 44 49 59 58 58 57 53 54 53 50
53 54 56 58 60 61 62 62 63 63 62 64 65 67 67 62 56 53 43 41 44 46 46 46 45 45 45 43 43 41 41 43 46 50 54 53 53 54 53 53 53 52 55
64 64 65 65 64 65 62 61 61 61 60 65 66 66 61 57 53 44 40 42 45 46 47 46 44 42 42 43 46 45 45 45 47 49 52 53 57 56 54 56 57 59 64
71 67 68 67 65 60 63 57 59 60 64 65 63 59 56 51 41 37 41 43 44 45 45 45 43 42 42 43 49 52 52 52 49 52 53 56 57 58 60 59 65 65 69
71 72 67 64 58 59 62 62 65 66 64 63 57 55 51 42 35 39 44 44 42 41 42 44 43 43 43 45 48 53 55 55 56 54 55 57 59 64 65 68 68 70 72
67 68 65 59 58 59 62 67 66 66 61 56 54 50 42 36 40 43 45 44 42 41 42 42 44 43 43 45 48 51 57 59 61 62 63 67 68 73 75 76 75 77 73
70 67 64 58 59 60 60 66 63 60 55 54 52 45 38 40 43 43 43 43 41 41 42 41 42 44 44 46 49 52 56 65 67 67 67 70 76 78 80 83 77 74 69
73 73 69 67 65 66 68 63 58 55 53 54 46 40 42 43 44 41 40 41 41 41 41 40 41 42 45 47 49 51 57 62 63 68 72 74 75 72 71 70 70 71 70
67 69 68 64 65 64 59 60 51 48 51 47 42 43 42 40 42 40 40 40 40 41 41 41 41 42 43 46 49 52 55 58 59 62 63 66 68 70 70 71 71 73 75
53 51 51 51 51 49 45 46 46 48 45 40 41 42 41 43 43 42 42 40 40 39 39 41 43 43 43 46 48 51 53 57 58 62 63 66 69 71 73 75 77 79 82
39 40 43 40 36 35 38 42 42 44 40 41 42 41 40 40 40 41 42 43 43 43 42 42 43 45 44 45 48 53 56 59 61 64 67 70 73 75 79 81 83 84 86
32 33 33 32 33 37 41 38 38 38 41 42 44 44 43 41 41 42 44 47 49 49 49 50 50 49 51 49 51 53 56 63 63 67 70 73 75 77 80 82 84 87 88
31 32 31 34 36 38 36 34 33 33 32 35 38 39 40 41 43 43 45 46 47 49 50 51 52 55 58 60 59 59 60 63 65 71 74 78 80 82 85 88 92 94 97
33 32 30 31 30 32 31 31 31 32 32 33 34 34 36 37 40 42 45 47 49 51 53 54 55 57 59 62 66 66 67 67 66 65 73 81 85 88 91 93 95 98 102
36 33 32 32 29 29 29 30 31 32 33 34 36 39 40 41 43 46 49 51 54 56 58 60 61 62 63 66 69 73 76 76 76 73 72 80 87 92 94 96 99 103 105
37 34 35 33 31 33 33 33 35 37 37 40 41 43 46 49 51 54 56 59 62 63 65 66 67 69 71 73 74 76 77 79 82 84 85 87 88 92 96 100 102 105 107

GFSSE_250_spd_030.txt.gz
Wind_Speed
36 37 38 38 29 27 25 26 30 32 33 33 34 35 36 36 39 40 41 43 43 43 44 46 47 46 48 52 54 55 57 58 59 62 63 64 65 65 64 64 62 56 54
41 40 39 37 37 32 33 34 38 39 38 36 37 37 37 40 40 41 44 44 46 49 53 54 55 54 54 53 56 60 63 64 64 63 65 65 66 66 63 61 56 48 46
47 45 43 44 43 37 38 39 41 40 36 33 32 35 37 39 42 44 48 52 55 55 57 58 60 61 62 62 62 63 65 66 65 65 66 65 64 63 59 57 48 44 41
53 51 48 47 47 44 45 44 41 38 32 35 37 41 43 45 46 50 54 58 60 59 58 60 61 64 67 66 65 65 65 65 65 63 63 64 62 60 54 53 47 49 40
56 55 54 49 52 51 49 45 44 40 39 39 42 44 45 45 50 54 55 58 61 60 62 65 66 71 69 68 68 67 63 61 61 62 62 63 59 53 49 51 48 46 42
56 55 53 54 53 50 48 49 46 42 42 39 39 42 42 47 53 56 58 59 61 63 62 67 69 68 69 70 65 62 59 56 58 61 61 62 57 54 51 51 50 43 48
60 58 56 51 50 49 48 53 48 46 44 42 41 44 48 52 56 58 60 61 61 63 70 72 72 73 68 64 59 55 55 56 57 59 60 59 54 53 54 50 46 48 49
62 60 59 56 54 53 46 48 54 56 50 45 47 50 53 54 57 64 66 66 66 70 71 73 68 61 57 55 53 53 54 55 57 58 58 55 53 52 52 51 49 51 52
67 65 61 58 55 55 51 52 57 56 50 52 52 53 57 62 62 66 67 70 70 73 69 63 61 55 52 51 51 52 53 54 55 56 53 52 51 53 51 53 51 52 55
64 63 65 64 60 60 56 52 52 53 52 52 55 60 64 65 65 63 63 67 68 66 63 59 51 48 50 51 52 53 53 54 54 52 52 50 51 53 53 50 50 55 58
67 63 62 54 62 48 55 52 54 57 58 60 65 63 62 62 61 62 68 67 63 62 56 49 46 48 51 52 53 53 52 52 52 51 50 50 50 49 48 50 56 62 60
68 63 61 58 49 48 50 54 56 59 63 64 64 61 59 59 62 67 66 63 60 55 47 46 46 49 52 52 52 52 51 51 50 50 50 50 49 49 50 50 58 63 61
70 69 65 61 58 57 52 54 60 65 66 67 64 63 64 64 65 68 63 61 54 45 45 46 49 49 48 48 48 49 49 50 51 52 52 52 50 49 52 55 58 60 60
76 73 71 65 60 60 61 63 65 66 67 63 62 64 67 67 70 64 59 53 45 43 46 48 50 50 48 47 47 47 49 50 52 54 56 55 54 55 56 56 60 61 63
77 73 74 71 69 69 69 68 69 71 64 62 62 65 68 67 66 60 54 44 43 45 47 49 49 47 47 47 47 47 48 50 52 56 61 62 62 60 59 61 62 64 67
77 74 72 71 69 68 70 67 70 64 62 61 63 66 71 66 61 56 47 45 46 47 48 46 45 45 46 46 46 47 48 49 50 55 62 68 67 69 68 68 70 72 73
74 76 75 71 69 72 72 66 61 63 63 69 67 72 69 65 59 50 46 46 45 44 45 45 44 43 44 45 46 47 47 47 50 53 60 63 72 75 76 76 77 78 77
73 74 76 72 67 67 69 68 69 69 71 66 66 64 62 58 53 47 45 44 45 44 44 45 45 43 43 44 45 46 48 48 48 50 54 57 62 69 78 81 84 86 88
67 73 72 71 68 68 66 69 70 70 66 65 62 54 54 55 47 45 46 45 47 47 46 45 45 46 47 47 46 48 48 48 50 52 54 56 59 63 66 70 73 76 78
46 55 63 68 70 68 67 69 64 63 57 55 49 49 51 49 46 46 46 44 48 47 48 49 49 49 51 54 54 54 54 52 54 55 58 60 62 65 67 70 73 76 78
38 40 45 51 55 55 57 54 54 48 48 45 47 46 47 47 47 47 47 47 48 47 48 50 51 51 51 53 55 57 59 59 62 63 66 67 69 70 71 73 75 78 81
39 38 40 43 44 42 40 41 41 41 43 45 44 40 41 41 41 43 45 47 48 47 47 48 49 51 51 52 54 56 61 66 66 68 71 74 76 78 80 82 85 87 88
38 41 41 40 36 35 35 35 37 42 42 41 40 40 40 40 40 40 40 42 43 43 45 48 50 54 55 55 57 58 60 64 69 74 77 80 81 83 86 89 90 92 93
38 37 35 34 32 34 34 37 40 41 40 39 38 39 41 41 40 41 43 45 47 49 51 52 55 58 61 64 65 66 67 68 70 71 80 85 87 89 92 95 97 100 101
37 35 35 36 34 34 33 35 37 38 38 40 40 42 44 44 43 44 46 50 52 55 57 59 61 63 66 69 72 74 75 76 77 75 73 81 89 93 96 98 101 103 106
39 38 40 39 38 37 36 39 39 41 41 43 45 45 45 46 47 48 50 53 57 61 64 66 68 71 74 76 79 80 80 82 84 85 81 81 81 87 93 100 104 106 110

GFSSE_250_spd_033.txt.gz
Wind_Speed
38 37 36 36 35 36 35 33 27 25 27 29 34 35 34 35 37 36 39 41 42 43 45 46 48 53 56 58 59 57 57 57 60 59 59 63 65 67 67 68 67 66 67
45 44 43 42 40 37 40 33 33 34 36 37 38 38 38 36 37 38 38 39 40 41 46 50 55 59 60 60 62 62 63 63 65 65 65 65 66 67 66 67 67 66 65
52 50 48 47 45 41 38 40 41 39 43 43 40 41 39 36 35 38 40 42 44 47 52 56 61 64 64 64 64 60 63 67 69 69 69 67 66 65 64 65 64 63 64
56 55 54 52 50 47 45 45 46 45 47 45 44 42 39 37 41 42 45 48 49 53 56 61 64 66 65 66 64 65 68 71 73 69 71 70 69 65 62 62 63 63 63
58 59 58 58 56 53 50 48 50 51 51 49 45 45 44 44 42 43 43 45 50 57 56 59 61 67 67 64 69 73 75 75 75 75 72 71 64 62 61 60 62 62 62
62 61 61 61 59 58 56 53 53 54 54 51 48 49 46 46 45 46 47 52 56 59 60 65 69 70 68 72 73 74 77 74 70 66 63 63 60 59 60 60 61 61 55
66 64 63 63 63 60 57 56 54 57 55 50 56 52 48 49 48 49 54 59 61 64 68 71 69 66 70 72 74 73 68 66 61 58 58 57 58 57 58 59 59 58 54
69 68 66 64 65 63 61 59 56 54 53 52 52 54 56 59 56 55 55 60 64 66 69 65 67 68 70 70 68 68 64 57 55 54 54 55 55 56 57 58 58 54 54
71 69 71 69 68 69 68 63 62 60 58 48 50 57 59 58 56 55 63 63 63 64 62 67 69 71 70 67 62 58 53 51 51 53 54 54 55 55 56 57 54 53 51
75 71 68 69 71 70 68 67 63 63 62 62 59 54 55 58 60 63 65 66 64 62 65 70 70 69 66 61 53 51 49 52 52 55 55 56 55 55 55 54 51 52 52
79 77 74 69 67 69 70 68 64 59 64 57 49 53 56 60 63 65 71 67 63 67 69 71 68 67 59 53 49 49 52 53 52 52 53 54 53 52 53 53 54 54 54
81 79 79 75 70 68 68 66 65 63 63 54 58 60 60 60 66 69 67 63 64 69 71 71 67 61 52 50 50 52 54 53 51 50 50 51 51 52 51 53 51 53 53
85 83 80 76 73 72 70 67 65 61 56 57 54 57 60 65 66 67 63 64 67 72 71 70 62 53 50 50 52 54 52 51 50 49 50 51 51 52 52 54 56 56 56
80 82 83 80 76 74 71 69 66 65 63 61 62 63 68 68 68 66 66 67 72 69 73 66 55 51 51 53 54 50 49 50 49 48 49 50 52 53 55 58 59 58 59
78 83 82 80 80 78 74 70 70 68 67 67 67 69 70 72 65 66 70 72 70 69 68 59 52 51 50 51 50 49 48 47 47 48 49 49 50 54 57 61 63 64 64
69 76 79 80 78 78 79 76 72 72 73 72 73 70 69 67 67 71 73 71 70 67 61 52 49 49 49 49 48 47 47 47 47 47 48 48 48 51 56 61 66 72 72
63 68 74 75 76 78 76 77 75 74 72 70 70 71 71 70 70 74 73 69 66 61 52 48 50 49 50 51 49 48 48 49 50 51 50 50 49 50 52 55 61 70 77
58 62 67 72 72 75 77 76 75 73 73 69 65 67 68 68 71 72 66 63 56 52 50 49 48 51 51 52 53 53 55 56 57 57 56 55 54 55 55 57 58 61 64
55 56 61 60 63 70 76 73 72 72 73 68 67 68 69 69 68 62 59 55 52 48 49 49 49 49 50 50 51 53 55 56 57 58 58 59 60 62 63 63 64 66 68
55 54 52 53 58 59 62 67 70 67 65 67 66 65 68 64 59 55 51 50 48 49 50 49 51 50 50 51 51 52 53 55 57 59 60 62 63 66 69 71 73 74 76
54 52 48 49 50 51 56 58 59 61 62 62 62 63 57 52 48 49 47 45 45 43 45 47 47 46 47 50 52 54 55 57 59 62 65 67 68 70 72 74 77 79 82
55 51 50 45 40 41 44 46 50 51 54 53 51 49 48 46 48 46 44 44 45 45 45 46 48 49 50 53 55 58 61 62 62 66 70 73 74 77 78 80 82 84 87
55 50 47 45 44 41 39 41 43 44 45 44 44 43 44 46 44 45 45 45 46 47 48 50 52 54 57 58 60 63 64 68 70 76 79 82 83 85 86 87 89 90 92
55 49 45 43 42 40 38 39 41 40 42 41 41 41 44 44 44 46 46 47 49 50 52 54 57 60 62 65 67 69 71 72 74 75 86 91 91 90 91 93 95 97 98
53 49 45 42 39 39 39 40 39 40 39 40 40 42 45 44 46 49 51 52 53 54 57 59 62 66 69 72 74 77 80 81 82 81 82 89 93 95 94 94 96 98 100
54 50 45 41 39 39 39 40 41 40 40 42 42 44 45 46 50 52 54 57 58 60 62 65 68 72 75 79 82 85 86 88 92 96 94 92 87 86 90 94 97 100 103

GFSSE_250_spd_036.txt.gz
Wind_Speed
39 39 36 35 34 33 34 30 28 31 33 26 25 26 30 32 31 33 34 35 36 36 37 37 39 41 44 48 51 55 60 62 64 66 64 64 63 64 66 65 67 67 67
48 45 43 41 39 39 38 38 39 36 34 29 34 35 36 35 35 35 35 36 35 37 38 41 45 47 49 54 55 56 57 61 65 64 64 64 65 67 69 70 74 71 70
56 52 50 49 47 45 45 43 44 40 36 39 39 40 43 40 37 38 37 35 39 42 45 47 51 52 55 57 59 61 64 68 69 68 66 67 69 74 72 73 71 70 70
59 58 57 55 53 51 50 50 47 45 42 46 44 45 43 42 42 41 41 44 48 46 49 50 52 57 63 61 62 67 70 69 68 70 71 71 73 74 74 72 72 70 68
62 62 60 60 59 57 55 53 53 52 50 49 48 47 48 48 48 45 44 49 50 50 50 55 57 60 62 65 68 68 68 65 66 68 69 74 73 69 64 64 63 63 61
63 64 64 62 62 62 61 59 58 56 56 54 53 55 52 52 51 50 51 50 53 53 55 57 57 61 66 65 64 66 67 67 69 68 66 67 66 63 59 57 58 59 57
68 67 66 67 64 65 63 63 62 61 60 58 55 54 53 54 57 56 51 53 57 59 61 61 60 65 66 64 62 67 68 70 70 64 62 58 55 53 53 51 52 54 55
73 72 69 67 69 68 68 66 64 64 64 62 58 56 53 53 54 55 56 57 60 63 59 61 67 71 67 66 68 71 70 71 66 59 52 49 47 47 49 51 51 52 54
77 76 72 70 70 71 71 70 69 66 65 65 61 58 58 57 56 55 54 59 61 60 62 66 69 71 64 66 69 70 70 68 58 52 48 47 49 50 51 51 53 55 55
81 79 77 75 75 72 70 69 70 71 69 67 65 63 63 57 57 58 60 54 57 64 65 67 67 66 65 68 71 72 70 62 53 49 49 51 52 51 51 52 53 54 54
85 84 83 79 76 74 74 72 69 69 70 71 69 68 65 64 64 60 57 59 61 61 66 69 69 68 68 71 71 73 66 55 51 51 53 53 50 50 49 49 49 50 52
85 85 84 82 80 78 77 77 75 71 68 66 65 65 63 61 61 58 58 58 63 66 70 72 67 71 71 70 72 71 59 52 51 52 52 49 49 48 46 46 47 49 50
79 81 83 85 85 84 81 78 78 78 76 74 67 66 65 64 61 58 60 61 65 69 74 70 69 71 73 71 71 65 53 51 51 51 50 49 48 46 46 46 46 48 49
80 80 81 83 83 83 83 80 79 79 77 74 72 71 67 63 63 64 64 65 70 72 71 67 69 74 72 68 61 52 48 48 47 48 48 48 48 48 47 47 47 46 49
75 80 80 79 78 80 79 79 80 82 79 77 74 70 69 68 69 69 71 71 72 72 71 69 70 72 68 59 53 49 47 47 47 47 47 48 49 48 49 50 50 50 49
73 70 74 76 76 78 77 77 78 79 80 79 78 74 74 71 71 71 71 67 70 70 66 67 68 68 62 54 48 45 47 45 46 47 49 51 53 54 55 55 54 54 54
73 68 67 70 74 77 76 74 75 79 81 79 75 74 74 74 74 72 69 71 70 67 67 66 66 62 57 51 47 46 47 49 50 51 52 53 54 54 55 56 56 57 58
73 69 66 64 66 67 70 71 72 73 75 75 72 72 72 70 70 67 66 68 68 68 67 62 58 57 52 51 47 47 48 50 51 53 54 54 55 56 57 58 59 60 62
75 70 69 66 62 62 61 64 69 64 64 69 69 67 68 67 67 67 64 64 69 66 60 53 54 50 48 48 48 49 49 50 52 52 54 56 57 59 60 60 62 63 65
76 73 68 67 64 58 58 58 58 58 62 60 61 65 65 66 65 64 65 66 64 56 51 50 47 47 48 49 49 50 52 54 56 58 60 61 62 63 65 67 69 71 72
75 74 70 64 61 55 54 52 52 52 53 54 55 58 61 60 62 65 62 59 50 50 49 48 48 47 49 50 53 55 55 58 60 64 68 70 71 72 74 76 79 81 83
72 73 71 64 59 55 52 49 48 47 50 50 54 55 56 57 57 56 53 47 49 47 47 47 48 49 52 53 56 60 61 63 64 68 72 74 77 80 82 84 86 88 90
71 70 68 64 59 56 50 49 46 43 44 46 47 49 50 50 49 46 46 46 46 47 47 49 51 54 56 58 62 63 65 69 71 77 82 85 85 88 92 93 95 97 99
70 69 66 64 59 53 50 48 47 48 45 44 45 46 45 43 44 45 44 46 46 48 50 53 55 59 61 64 66 69 71 72 74 75 87 95 96 99 102 105 108 109 106
66 69 67 62 58 52 50 47 47 45 44 43 45 44 42 42 44 44 45 48 49 52 55 58 61 64 67 70 72 74 77 80 82 79 81 91 98 104 108 113 109 102 101
63 65 66 63 58 51 48 47 45 43 44 46 44 44 43 44 44 46 49 51 53 56 60 63 66 71 73 75 77 79 84 87 90 94 94 94 98 106 112 103 102 104 104

GFSSE_250_spd_039.txt.gz
Wind_Speed
44 44 40 36 33 32 30 28 26 26 29 27 26 26 26 25 25 27 29 29 29 30 30 31 33 34 35 38 42 44 48 53 55 56 57 62 64 68 69 67 64 64 65
47 50 48 47 41 39 37 36 35 35 35 33 36 33 34 31 32 35 36 34 31 31 33 35 36 42 42 44 45 51 55 56 56 59 63 65 68 65 62 66 68 67 67
51 50 53 53 51 48 44 42 40 40 39 41 41 38 34 38 37 39 38 38 38 36 38 40 44 45 46 49 51 54 55 56 61 65 68 66 66 64 67 68 68 70 71
56 54 53 56 56 55 52 50 49 48 47 47 45 44 41 42 42 42 43 44 45 43 41 45 47 49 50 53 55 56 58 63 67 67 62 64 65 66 68 68 67 66 67
61 60 57 56 59 59 59 58 56 54 53 51 51 49 48 48 45 44 47 50 50 49 47 49 51 51 53 58 58 61 58 66 69 64 65 67 68 69 65 62 61 60 60
66 65 63 61 61 62 62 63 62 59 57 56 55 56 55 54 51 51 51 53 52 52 52 54 56 56 56 61 58 61 66 67 63 62 66 68 67 65 58 55 51 49 49
70 70 69 67 65 65 65 65 65 63 61 60 60 60 59 58 55 55 53 53 53 53 56 57 58 57 58 58 60 63 64 65 62 65 67 70 65 56 50 47 46 46 46
75 74 74 74 69 68 67 67 67 66 64 63 62 62 62 60 59 59 56 54 54 55 60 58 58 58 57 61 61 63 68 66 66 66 68 69 61 50 47 47 48 48 49
81 79 78 77 75 72 71 70 69 67 67 67 66 66 65 63 60 60 58 61 58 57 59 59 62 55 62 61 65 71 70 65 65 66 68 64 55 48 49 50 50 48 48
87 85 83 80 78 77 75 73 72 70 69 70 70 69 68 67 66 64 64 63 63 62 60 63 55 60 60 65 66 70 65 66 66 68 64 58 52 51 49 48 47 47 47
84 86 86 84 82 81 76 74 74 74 73 71 70 69 67 66 66 66 66 67 66 66 61 58 59 60 62 63 70 67 65 67 68 67 60 53 50 48 47 47 46 45 44
75 77 81 83 83 84 81 77 76 75 76 75 74 73 70 68 67 65 63 62 63 65 64 62 62 64 66 69 71 66 64 64 67 63 55 48 48 45 43 43 41 42 41
78 78 75 77 81 84 83 81 80 81 80 79 78 76 74 71 71 72 70 71 68 65 65 65 68 68 70 68 65 64 64 65 65 60 48 45 43 42 42 44 43 42 43
72 76 77 75 75 77 81 84 83 84 82 81 79 79 77 75 73 74 74 74 72 69 67 69 70 70 67 66 64 63 64 64 60 56 47 45 43 42 43 44 45 46 48
73 72 74 74 72 72 75 78 80 80 81 80 81 81 79 77 77 78 76 75 73 72 71 71 72 71 68 66 65 65 64 59 55 49 45 43 44 44 44 46 47 48 48
74 74 71 70 70 71 73 75 77 81 82 82 81 80 80 78 76 76 75 75 75 75 72 72 72 69 67 64 66 64 59 55 49 48 46 45 44 45 45 47 48 50 51
79 77 74 70 68 66 67 67 71 75 77 80 81 81 77 73 71 72 73 73 71 69 68 68 70 70 67 66 64 59 55 49 48 46 47 47 47 48 49 49 51 53 54
76 79 76 72 69 66 66 64 63 66 70 74 76 78 77 73 67 67 67 66 67 67 68 67 69 66 68 66 59 56 52 49 47 48 48 50 51 51 53 54 55 57 59
72 76 77 75 73 68 66 62 62 61 57 57 59 61 63 65 63 62 63 65 66 65 65 68 66 67 68 58 54 53 51 48 49 51 53 55 57 57 58 58 59 62 65
73 75 75 75 74 71 67 64 62 59 56 50 50 53 54 56 57 58 61 65 64 64 63 64 66 66 56 54 53 53 49 50 53 56 57 60 62 62 65 66 68 69 71
73 75 72 72 73 72 69 66 61 56 54 52 51 50 49 52 55 56 56 60 60 61 61 64 59 53 54 53 53 50 52 54 58 62 63 66 68 69 72 74 76 77 80
73 73 71 71 70 70 69 66 62 54 53 52 52 47 48 50 52 53 55 56 59 60 59 54 51 50 49 52 52 54 57 59 62 66 69 71 73 75 79 81 83 86 87
67 72 70 68 68 68 67 65 62 56 51 51 51 49 48 47 49 49 51 53 52 53 50 50 49 48 50 52 54 58 61 64 68 75 78 79 79 82 85 89 92 94 96
61 70 68 65 64 65 65 64 61 57 52 51 51 49 49 50 50 50 49 49 49 49 49 49 49 51 53 55 60 63 65 68 71 75 83 87 88 91 94 98 102 103 106
54 66 67 62 60 62 63 63 60 57 51 51 51 49 49 50 50 49 50 49 49 49 48 49 51 54 57 61 65 68 71 74 77 77 78 86 91 96 100 104 108 111 115
52 58 64 61 59 59 61 62 59 55 50 51 50 49 50 49 50 50 49 49 50 49 50 52 56 59 63 67 70 74 76 80 82 83 82 85 88 95 103 108 114 118 121

GFSSE_250_spd_042.txt.gz
Wind_Speed
41 44 40 38 35 32 31 30 28 26 24 24 24 24 25 20 25 25 25 26 27 29 29 29 29 30 33 33 37 40 41 43 46 49 51 53 53 57 61 63 63 61 61
45 44 47 46 43 43 40 37 35 35 33 31 31 31 32 35 33 33 30 29 32 34 34 35 33 33 37 40 42 43 45 48 51 52 53 55 57 64 64 64 65 65 64
51 48 48 50 50 49 46 46 44 41 40 41 41 41 40 41 38 35 35 36 38 41 41 42 40 40 42 44 47 47 50 51 53 51 53 58 64 64 64 63 64 68 70
58 56 53 50 52 52 52 50 50 50 48 46 45 43 44 44 44 43 43 45 46 44 44 47 48 48 47 49 51 51 53 53 56 53 57 61 63 64 65 66 67 71 70
64 63 61 57 55 54 54 56 56 54 53 52 51 51 51 51 52 50 49 49 49 49 48 49 49 49 50 50 52 55 56 54 56 57 62 64 66 67 65 64 68 72 63
68 68 68 66 63 61 57 57 58 60 59 57 56 56 56 55 54 52 52 53 52 53 53 53 52 52 51 54 59 56 56 55 55 63 66 67 71 68 66 65 67 60 52
72 72 71 70 69 66 65 61 61 60 61 62 62 61 61 60 59 57 55 55 55 55 56 56 54 55 55 58 55 59 61 59 60 63 65 69 68 66 66 66 62 53 48
77 75 75 75 73 72 70 67 67 66 64 64 65 66 66 65 63 61 59 58 59 58 60 58 57 59 59 60 59 60 54 59 62 64 66 69 65 64 65 65 60 51 49
81 80 78 77 77 76 74 73 71 69 69 68 67 67 67 67 66 65 64 63 64 63 64 64 63 64 64 64 60 56 59 61 63 64 70 67 62 62 63 65 55 48 48
82 83 82 82 81 80 80 78 76 75 74 73 71 69 68 67 67 67 67 66 66 65 65 64 65 67 68 67 64 62 62 63 66 68 66 65 62 62 61 62 52 48 45
82 84 86 85 86 85 83 83 80 78 78 77 76 74 74 71 70 69 68 68 67 67 66 65 65 63 64 65 65 63 63 67 68 67 67 64 63 61 59 57 49 44 42
76 81 86 88 89 89 88 87 86 84 81 78 78 77 75 75 75 73 74 72 70 71 71 68 69 72 69 70 68 68 68 68 69 69 65 64 65 59 58 55 49 46 45
74 75 78 83 89 88 90 92 91 90 87 84 80 79 79 76 75 74 76 75 75 76 76 73 73 72 71 71 69 70 70 70 70 69 64 62 61 58 54 52 45 44 42
75 74 74 74 79 81 83 84 86 89 88 88 86 83 81 79 77 78 79 81 80 78 79 79 76 76 74 73 73 73 73 71 68 70 67 62 58 56 51 48 46 44 42
77 76 75 73 73 74 76 78 75 76 78 82 86 86 84 83 81 82 83 83 82 81 79 78 79 78 76 73 73 70 69 68 70 68 66 61 55 54 50 46 44 43 43
69 72 75 76 74 72 74 73 76 73 74 77 75 76 79 79 80 80 79 79 77 78 83 81 78 78 73 72 70 70 69 69 70 66 65 58 54 51 50 48 46 46 48
65 65 69 74 76 74 73 72 71 71 73 72 70 72 73 75 77 77 80 78 77 79 80 78 75 72 70 69 68 67 69 70 67 67 62 56 51 54 50 49 50 52 54
61 64 65 68 72 75 74 73 71 69 68 68 69 66 65 66 69 70 73 75 78 80 79 80 70 69 70 68 68 69 67 68 67 64 59 54 53 52 52 53 55 58 59
61 63 65 66 68 72 73 73 72 71 68 65 63 60 57 57 56 57 61 63 65 67 67 68 69 67 68 69 66 67 68 65 65 59 57 55 54 54 56 58 60 63 64
61 62 64 65 66 67 71 71 72 73 70 66 62 57 56 56 56 54 53 54 56 59 62 64 66 64 62 62 63 64 64 63 57 57 56 56 57 58 61 62 65 68 71
63 64 63 63 62 63 66 69 69 71 70 67 63 59 58 58 56 52 51 53 55 56 57 58 59 58 60 60 62 63 59 55 55 55 56 58 60 63 66 67 71 74 76
62 64 66 63 60 60 64 66 68 69 69 67 64 61 61 58 54 53 53 52 52 51 53 53 54 56 58 58 57 56 53 54 54 56 59 62 65 69 71 73 77 79 80
61 61 66 65 60 60 62 65 66 68 68 66 65 62 61 59 56 55 55 54 53 54 54 53 54 54 54 55 54 53 54 54 57 61 64 68 71 74 77 80 82 84 85
65 63 63 66 61 60 60 64 65 65 66 65 63 60 61 61 58 56 57 55 54 55 55 54 54 54 53 53 54 54 55 56 59 64 72 74 78 80 82 86 88 91 93
69 63 61 63 59 59 60 64 65 62 63 63 60 60 60 60 60 58 57 57 57 57 56 55 55 52 53 55 55 57 58 61 64 67 72 79 81 85 88 93 98 101 102
70 64 61 62 57 56 58 63 65 62 58 59 58 59 60 59 60 59 58 58 59 59 56 55 52 53 56 57 59 61 63 67 70 72 74 77 82 90 94 99 104 106 107

GFSSE_250_spd_045.txt.gz
Wind_Speed
38 36 39 41 40 36 34 31 30 28 25 25 24 24 23 21 22 23 24 25 26 27 27 30 32 31 31 32 33 36 37 40 43 44 45 48 48 49 49 49 54 60 59
44 42 43 42 45 44 42 38 36 34 33 31 29 29 29 29 27 29 30 29 34 35 33 33 34 36 38 39 40 41 43 46 48 47 47 49 51 51 51 53 58 65 64
50 49 48 47 47 47 48 47 45 43 42 40 38 37 36 37 39 39 38 40 39 37 41 40 40 42 43 44 47 47 48 48 48 48 51 52 52 51 53 56 61 62 67
55 54 54 53 51 50 50 51 51 50 49 48 47 47 46 45 47 47 47 46 45 45 45 45 47 49 49 49 48 49 47 48 48 53 53 54 55 54 57 59 62 65 65
59 58 57 56 56 54 53 53 55 55 54 54 53 52 53 52 52 53 52 51 51 51 51 51 53 54 52 52 52 51 51 52 55 53 53 56 54 55 60 61 63 66 63
63 65 64 61 60 60 60 60 58 58 57 57 57 56 56 57 57 57 57 56 55 54 54 55 57 56 55 54 53 52 54 54 58 54 55 51 52 59 61 62 66 64 61
66 69 68 69 68 67 66 66 65 64 63 61 60 61 60 60 59 59 59 59 58 58 57 57 58 58 57 58 57 59 56 60 61 60 59 57 58 59 62 64 63 62 61
73 73 73 73 73 73 72 70 70 70 69 68 66 65 65 64 64 63 62 62 63 63 63 62 61 61 62 62 62 60 61 64 64 63 61 60 63 62 65 65 64 62 61
74 75 76 76 77 77 77 75 74 74 74 73 72 70 68 68 68 68 66 67 66 67 66 65 65 65 66 65 65 64 62 63 63 63 63 64 65 65 66 66 63 61 60
75 77 77 79 79 80 81 80 78 78 77 77 77 75 75 72 72 72 71 71 70 68 68 68 67 67 67 67 68 67 65 66 67 68 68 66 66 66 68 66 63 64 57
78 79 81 81 81 81 82 83 82 81 82 81 81 80 80 79 77 77 77 76 75 74 73 73 72 70 70 70 69 71 71 69 69 69 69 67 67 68 68 65 67 63 56
80 80 81 81 82 82 82 84 85 86 84 84 84 83 84 84 81 81 80 80 80 78 75 75 76 77 77 76 76 75 73 74 73 71 73 68 69 69 65 66 64 62 56
74 76 77 77 76 78 81 83 84 86 89 88 87 88 87 87 85 83 79 78 76 76 78 78 77 77 78 79 80 79 78 77 77 76 76 73 69 66 66 64 65 61 55
69 70 72 72 73 73 73 76 80 84 87 91 91 91 88 89 87 86 84 83 83 83 83 83 83 83 83 83 82 83 81 77 77 76 76 73 69 66 65 65 63 59 56
67 69 70 71 72 72 73 72 72 74 79 82 85 88 88 89 88 87 88 87 88 88 87 87 85 86 86 85 80 79 79 79 80 75 74 71 70 67 66 65 63 57 54
67 66 66 69 71 72 72 72 72 71 73 75 77 78 78 82 82 81 79 80 80 83 87 87 84 82 82 82 79 80 83 80 76 73 69 70 70 69 68 64 61 56 54
63 64 66 66 67 70 71 71 70 72 72 74 75 75 76 78 74 74 74 75 77 77 78 78 77 77 80 79 81 82 81 78 74 70 70 69 70 68 67 63 56 55 55
62 62 64 65 65 66 67 68 69 71 73 75 74 75 73 73 71 70 70 71 70 71 70 70 71 74 74 76 76 74 72 71 71 69 69 68 65 65 62 60 55 56 57
61 61 61 64 65 65 64 65 67 68 71 74 75 74 73 71 70 69 67 66 62 63 64 63 60 61 61 64 65 65 65 67 67 66 64 63 63 62 59 56 57 57 57
56 58 59 63 66 65 63 61 61 65 68 69 71 74 74 72 71 70 68 66 62 64 63 59 57 59 60 59 60 59 59 61 61 61 63 62 62 59 56 58 58 58 60
59 57 56 61 64 63 62 61 61 61 62 64 62 66 72 75 73 71 69 67 66 62 57 56 58 56 55 52 52 54 55 57 59 59 60 61 58 56 58 58 59 62 64
65 60 58 59 62 64 61 60 61 57 60 62 60 63 68 71 72 72 72 71 67 61 59 59 58 56 56 55 54 54 55 56 56 57 58 56 57 59 60 61 63 66 68
67 67 63 59 61 64 61 57 57 56 58 58 62 62 65 67 66 68 70 71 66 63 61 59 60 59 59 56 55 55 56 56 57 57 57 58 60 61 63 66 68 70 73
69 69 71 65 62 65 63 58 56 55 55 57 62 64 65 66 67 67 68 69 66 65 63 63 62 61 59 58 58 57 58 58 55 57 61 64 65 67 69 72 75 77 80
74 73 73 72 65 63 65 60 58 55 54 57 60 63 65 66 68 71 70 69 67 65 64 65 63 61 61 60 61 59 61 58 59 60 63 66 68 71 73 77 83 86 88
83 79 77 75 70 66 68 62 60 55 56 55 56 59 62 64 66 69 69 67 66 64 64 63 63 62 63 63 60 63 62 63 64 65 67 71 74 79 81 84 89 91 93

GFSSE_250_spd_048.txt.gz
Wind_Speed
35 34 34 33 35 36 36 34 32 29 29 27 26 25 26 25 26 25 26 28 29 29 30 29 28 29 32 32 32 33 35 36 38 41 43 46 46 44 44 45 48 49 50
44 42 40 39 38 37 38 39 40 37 35 33 31 29 28 30 30 30 27 27 30 30 30 32 35 38 37 41 42 42 39 41 44 44 46 46 45 46 48 49 51 50 48
48 48 46 43 42 41 40 41 42 44 44 42 38 37 36 34 34 34 34 33 35 38 41 41 44 40 43 46 49 48 47 48 47 48 48 46 45 49 48 48 47 48 52
51 50 50 51 49 47 46 46 46 46 47 48 47 45 44 44 43 42 41 43 45 46 47 48 47 47 49 48 49 51 52 51 52 51 50 49 49 51 53 49 54 52 56
54 54 54 53 52 52 52 52 51 50 51 51 52 52 51 52 51 51 51 51 52 52 52 52 52 52 52 52 52 53 54 54 51 52 50 50 53 55 57 55 54 55 58
59 58 57 58 56 56 56 56 55 57 55 55 55 56 56 56 57 55 56 57 57 57 57 57 57 57 56 56 57 56 57 56 57 55 55 54 56 59 57 56 55 57 62
63 63 62 63 61 60 61 62 63 60 60 61 60 61 61 60 60 60 59 59 61 61 62 61 60 60 60 60 61 61 61 59 60 60 59 61 61 59 60 60 62 65 63
72 72 71 70 66 65 65 66 67 67 66 67 67 67 67 66 66 66 65 64 64 64 63 64 64 64 64 63 64 64 63 62 61 62 63 63 63 63 63 67 68 65 60
73 75 73 74 73 74 72 72 73 72 72 73 73 72 71 72 73 72 71 71 70 70 69 69 68 68 68 68 68 68 66 65 64 64 65 64 66 67 68 68 67 67 62
72 76 77 75 74 74 75 76 77 76 78 78 77 77 75 76 76 76 77 77 76 76 75 74 72 73 72 72 72 72 72 70 69 70 71 69 70 71 72 71 69 69 67
73 74 73 74 75 74 75 75 78 79 81 81 82 81 82 80 79 80 80 81 80 80 80 79 78 77 77 77 76 73 75 73 72 75 75 73 74 74 74 71 69 69 68
69 72 74 75 75 75 75 76 78 81 82 85 86 85 84 84 83 83 83 84 84 83 82 81 82 78 75 74 75 76 76 77 76 77 77 78 78 78 75 70 69 70 69
71 73 73 74 75 75 77 77 77 79 81 84 86 85 84 85 85 84 84 84 85 86 86 83 81 83 79 76 81 83 83 83 82 82 82 82 80 75 73 74 69 67 67
64 65 68 69 71 72 72 73 74 75 75 75 78 82 85 85 84 84 85 86 86 85 86 86 88 86 84 86 86 88 86 86 86 85 89 81 79 77 73 73 67 68 66
66 64 65 64 64 62 65 65 66 68 69 71 74 75 77 78 79 81 84 86 86 87 88 87 84 85 83 82 85 84 84 85 83 79 79 79 76 75 74 69 66 68 67
66 63 64 64 65 63 64 64 62 65 67 71 72 73 75 75 73 73 76 77 79 78 80 80 77 78 79 77 76 76 74 75 77 76 78 77 75 72 68 66 65 66 66
65 62 62 63 61 64 63 62 60 60 62 66 71 75 76 75 73 72 73 73 75 74 73 74 76 75 75 74 73 74 73 70 70 73 70 70 67 66 66 64 65 64 64
65 63 61 61 62 61 58 62 59 58 61 63 65 66 70 72 74 74 73 74 75 73 74 74 73 71 72 71 69 68 64 64 64 65 65 63 62 62 61 61 62 62 61
62 61 60 59 59 61 59 58 59 57 57 62 61 62 67 66 69 73 76 75 75 74 74 73 71 71 69 66 63 62 63 62 60 60 60 59 59 59 60 59 58 60 60
62 61 59 56 55 56 57 56 60 57 55 60 60 60 61 62 66 69 72 74 77 75 74 75 73 72 70 65 60 61 61 58 58 52 53 54 55 54 56 58 58 58 58
63 62 60 59 55 56 54 53 55 56 55 60 62 60 59 59 62 64 66 68 71 73 74 76 74 73 70 65 62 61 60 58 58 58 58 56 55 56 56 58 56 56 57
66 67 66 64 59 59 56 54 52 46 52 59 59 60 61 61 60 61 64 67 67 70 73 76 75 74 71 66 65 62 59 61 62 59 59 57 56 58 59 59 58 58 60
72 75 74 70 67 58 63 59 51 48 52 52 55 58 59 59 61 58 63 66 68 68 70 71 72 73 71 68 66 64 61 61 62 63 61 60 59 60 60 60 62 63 65
75 78 77 75 73 69 65 63 59 56 53 55 49 54 52 56 57 56 58 65 69 69 71 70 68 67 68 67 67 65 64 64 63 64 64 63 63 63 63 65 68 70 70
81 79 81 80 77 76 69 68 63 61 58 54 54 54 54 54 55 57 58 62 68 69 69 70 70 69 68 67 67 66 66 67 66 65 65 65 65 66 67 70 73 76 77
89 85 83 81 79 79 74 73 66 68 64 62 63 59 54 54 53 56 58 60 64 67 69 70 72 72 71 68 66 67 68 69 69 67 66 68 69 73 74 76 78 80 82

GFSSE_250_spd_051.txt.gz
Wind_Speed
34 31 31 31 31 32 34 33 33 32 31 29 28 28 25 26 26 27 27 28 30 32 31 29 32 30 30 31 32 34 33 35 37 38 38 40 41 42 45 46 44 43 45
41 40 38 36 35 35 36 35 36 35 36 36 34 32 31 30 27 28 29 29 29 31 32 34 36 36 35 36 36 40 42 42 43 46 45 44 45 46 46 46 49 47 48
42 43 46 47 46 43 42 41 40 38 38 39 40 41 39 36 36 34 33 33 34 33 32 34 37 38 42 44 46 46 46 47 48 50 50 50 50 48 46 47 48 48 50
47 46 47 47 46 45 46 46 44 43 43 42 43 44 45 45 44 43 42 41 41 41 41 43 45 49 51 51 51 51 51 52 53 53 53 53 52 52 52 50 50 52 53
50 51 50 49 50 49 47 48 50 50 48 48 48 48 48 49 49 49 50 49 48 49 50 53 55 55 54 54 55 56 55 55 55 55 56 57 56 56 56 56 56 57 56
55 53 55 53 53 53 53 53 53 52 54 54 52 54 53 53 54 55 55 56 57 55 57 58 58 59 59 59 59 59 59 59 60 59 59 60 59 59 59 57 59 60 59
59 57 57 57 57 57 57 57 57 58 59 59 58 57 58 59 60 60 60 59 59 61 61 61 63 63 64 64 64 64 63 63 63 64 63 62 62 61 61 60 61 63 64
63 62 62 62 62 63 63 63 64 62 63 65 64 64 64 65 64 65 66 65 65 66 66 65 66 66 66 67 68 67 66 67 67 68 66 65 65 65 66 67 68 69 69
66 67 66 68 68 69 70 71 71 71 69 69 69 70 70 70 70 71 72 73 72 71 72 72 72 73 73 73 73 74 73 72 73 72 71 71 72 72 71 72 72 73 73
68 68 68 69 69 70 72 73 74 75 75 74 75 76 77 76 77 76 78 77 77 76 76 77 77 76 77 78 77 77 77 77 78 75 72 73 72 75 75 77 75 75 75
69 69 68 69 70 69 70 72 74 77 78 76 74 76 78 80 80 81 82 81 82 81 80 79 80 80 81 81 82 82 81 80 79 80 74 74 76 81 82 83 81 81 82
69 69 66 66 66 67 68 71 73 75 76 76 76 77 78 80 80 81 82 83 84 84 83 83 82 83 83 84 84 84 82 81 82 81 83 81 84 85 84 85 85 85 85
67 64 63 65 66 68 69 71 73 74 77 77 78 80 82 82 82 82 83 84 85 84 86 84 85 84 85 84 84 83 82 82 83 86 83 81 83 83 84 83 79 75 73
67 64 62 65 65 67 72 74 75 74 75 75 77 79 81 80 81 82 81 80 83 84 84 85 84 83 81 83 85 85 84 85 84 84 80 76 77 74 74 74 74 73 74
64 64 63 63 64 68 68 69 71 70 69 68 70 69 71 72 73 75 77 77 76 78 80 80 81 80 81 82 81 78 78 78 78 76 74 73 72 72 74 74 74 73 71
63 65 66 65 64 67 69 66 67 67 64 64 65 65 64 67 68 70 70 71 72 73 74 74 74 73 72 72 72 73 72 69 69 70 72 72 71 71 70 70 67 64 62
65 66 67 68 65 68 67 65 61 62 61 61 64 67 66 65 64 66 65 66 68 74 76 76 74 73 71 71 71 72 69 69 67 68 70 67 66 66 65 65 64 60 58
67 64 66 67 66 65 65 62 60 61 61 61 61 62 64 63 62 61 60 62 65 68 72 76 76 75 74 73 73 74 71 69 67 66 64 65 64 64 63 61 57 57 55
68 69 67 64 62 60 60 60 58 58 58 56 58 57 58 60 61 60 60 61 62 63 66 69 73 76 77 77 76 75 73 71 69 67 65 64 63 63 61 59 58 56 53
64 65 66 62 60 60 59 59 58 53 51 55 56 57 58 60 60 59 59 62 62 62 62 64 68 70 73 76 77 77 75 74 71 68 65 64 62 62 63 62 60 57 56
66 64 65 68 64 60 61 59 59 60 54 54 53 53 53 56 56 58 59 61 62 61 61 61 63 68 70 71 73 75 76 75 72 70 67 66 65 64 63 63 61 60 58
71 70 70 69 70 64 64 62 59 59 57 55 54 54 49 50 53 53 58 61 63 64 63 63 63 65 69 70 70 70 73 74 72 72 69 67 66 67 66 65 65 62 60
75 77 79 75 73 72 69 68 64 63 59 55 56 56 56 55 52 50 50 56 61 60 61 63 64 64 65 68 69 68 68 69 71 71 70 70 69 69 70 67 67 65 63
83 83 81 78 76 73 73 73 69 68 68 63 63 58 58 55 53 47 50 55 57 58 61 64 65 65 65 67 68 68 67 67 67 67 69 70 71 72 72 72 70 68 65
86 83 81 80 80 79 76 76 77 73 71 69 67 63 58 55 50 51 56 60 58 58 59 63 63 62 65 68 69 68 67 64 66 68 70 72 73 73 73 75 74 73 71
88 85 84 85 86 85 83 78 79 81 78 73 70 64 61 61 61 63 61 59 58 59 59 60 61 62 64 65 68 69 69 66 69 72 74 74 74 77 77 78 77 76 76

GFSSE_250_spd_054.txt.gz
Wind_Speed
30 30 30 31 32 32 33 33 33 33 32 31 31 31 31 29 28 28 28 29 29 30 31 33 35 36 36 34 35 33 32 35 35 38 40 41 42 45 44 44 45 47 47
34 34 34 34 35 33 33 34 34 35 35 36 37 35 34 33 32 31 30 29 29 31 33 33 35 36 36 37 36 37 37 40 42 45 46 46 48 48 49 50 50 50 50
40 39 38 38 40 40 37 38 39 39 40 40 41 40 39 39 38 38 37 36 35 34 34 35 36 36 37 39 43 40 44 48 50 51 50 51 52 53 55 55 54 52 52
47 44 43 42 41 41 44 46 45 45 46 46 45 44 42 41 43 43 45 45 44 43 43 42 42 42 42 42 46 50 53 56 56 55 56 57 56 56 58 58 59 57 57
50 49 48 48 48 47 46 47 46 46 46 48 49 48 48 47 47 47 48 49 49 50 51 50 50 49 50 51 54 55 57 60 60 60 61 61 61 62 63 63 61 61 59
54 53 52 52 51 50 49 50 52 51 49 50 50 53 54 55 54 54 54 54 54 55 56 56 57 57 57 58 60 61 63 63 64 65 66 66 66 65 66 67 65 63 62
54 53 53 53 53 52 52 53 54 55 55 55 55 56 57 57 57 59 59 59 59 59 61 61 62 63 62 63 64 66 66 67 68 68 68 69 69 69 69 70 69 68 69
57 57 57 57 57 58 57 58 58 58 59 59 60 61 61 61 64 63 65 66 65 65 65 66 67 68 68 68 68 69 70 72 72 72 72 73 73 73 73 73 72 70 70
62 62 61 63 63 63 62 62 63 63 63 65 66 67 68 70 70 71 71 71 71 70 71 72 72 73 74 74 73 74 76 77 77 77 77 77 78 77 77 76 73 74 74
63 62 62 65 64 65 66 67 67 67 68 69 70 71 72 73 74 75 76 76 77 78 78 77 77 79 79 79 79 78 79 80 80 80 81 81 82 81 78 79 79 77 80
67 66 66 66 67 69 69 70 69 70 70 70 72 73 74 76 78 78 80 80 80 79 79 79 79 81 81 82 83 82 83 83 83 83 83 83 83 83 82 81 81 80 82
71 69 68 70 69 68 70 70 71 71 72 72 73 75 77 76 78 78 79 79 81 81 81 81 83 83 84 83 84 84 84 83 84 86 85 84 85 85 84 82 82 81 79
73 73 73 73 73 71 68 67 68 69 72 71 74 76 78 78 78 79 81 81 82 83 83 85 86 84 84 85 85 84 84 85 86 87 85 83 83 85 86 85 85 77 75
75 74 73 71 71 69 67 67 70 71 73 74 75 77 79 79 80 81 81 84 81 80 80 81 82 81 81 81 81 79 80 84 83 82 85 83 81 80 80 78 74 71 71
74 73 74 75 75 72 70 68 70 69 71 72 74 75 76 77 80 78 77 74 72 74 74 74 75 74 75 75 75 74 73 74 75 75 75 73 72 72 69 68 68 67 68
75 72 74 72 70 67 67 66 67 68 69 71 72 73 74 75 74 72 69 68 68 69 70 72 73 72 72 74 74 74 74 74 74 74 73 70 68 67 67 67 66 66 65
74 69 67 66 61 62 63 65 67 70 70 72 74 72 70 70 70 68 66 66 67 69 68 67 67 69 70 71 73 74 74 75 77 76 75 73 71 70 69 67 67 66 65
71 65 61 61 62 62 63 61 58 62 64 67 67 68 66 66 66 66 64 65 66 66 66 67 66 66 66 67 70 71 72 74 78 77 76 76 74 73 71 70 69 68 66
67 63 63 64 64 63 63 64 61 60 64 64 64 62 62 63 63 62 61 63 63 62 63 64 66 67 67 66 67 68 70 71 74 76 77 77 77 76 74 72 70 69 68
66 66 65 65 69 66 64 62 61 59 62 61 58 62 58 57 56 55 56 60 62 64 63 64 64 65 66 66 66 67 68 70 70 72 73 74 75 75 75 74 72 71 70
69 70 70 67 65 66 64 64 67 68 65 63 60 60 62 62 60 58 57 57 56 59 62 64 64 63 65 66 68 67 67 68 68 69 71 72 72 72 73 74 74 73 73
71 72 72 71 72 67 66 67 66 64 62 63 62 62 66 64 60 57 57 56 57 58 59 59 61 62 64 66 68 69 69 69 68 69 69 70 71 71 71 73 74 75 74
76 76 76 76 76 72 70 69 69 72 67 63 64 66 68 68 68 65 60 62 64 63 62 58 54 56 58 61 63 65 68 69 68 68 68 69 70 70 72 72 72 73 73
83 83 83 83 80 77 75 73 72 77 78 72 69 67 69 67 68 69 66 64 59 60 62 56 60 63 64 63 62 65 66 68 67 68 69 71 72 71 71 72 72 73 75
87 87 87 86 84 84 81 80 81 79 79 76 71 65 66 63 62 62 64 67 66 65 63 60 63 68 68 66 64 64 64 67 66 67 69 70 70 71 73 74 73 74 76
89 90 90 89 90 90 90 88 86 83 79 75 74 70 68 69 66 67 72 70 72 74 68 67 72 73 72 69 68 66 63 65 66 66 66 68 71 74 75 75 75 76 78

GFSSE_250_spd_057.txt.gz
Wind_Speed
32 31 30 29 29 31 31 33 35 34 33 32 32 31 30 32 32 31 31 31 31 32 31 31 30 31 32 33 34 36 38 38 39 38 36 39 41 44 46 47 47 49 51
31 31 29 29 29 30 31 32 34 33 33 33 34 35 36 36 37 36 35 34 33 33 32 32 32 33 34 36 37 38 39 39 39 40 41 42 46 50 53 52 54 53 53
37 37 35 34 34 34 35 36 35 36 36 36 37 39 40 41 41 41 41 40 40 39 38 38 38 37 37 38 38 37 40 43 45 48 49 53 53 55 56 57 59 59 60
42 42 41 39 38 38 37 37 38 41 43 45 45 44 44 46 46 45 45 44 44 44 45 46 46 45 45 45 45 45 45 45 47 51 55 58 59 59 60 60 62 63 64
49 48 47 46 46 45 44 42 44 45 45 45 45 45 46 48 49 50 50 50 50 50 50 50 51 51 52 54 54 54 54 55 56 58 60 62 63 64 64 65 66 67 66
51 51 52 51 51 50 49 50 49 50 49 48 49 49 49 48 48 50 53 55 56 57 57 56 57 58 58 58 60 61 62 62 62 63 64 65 67 68 68 67 67 68 68
54 54 53 53 54 54 53 52 51 52 51 51 52 53 53 52 53 54 55 55 57 57 58 59 62 63 64 64 64 67 69 68 68 69 70 70 71 71 72 73 73 73 73
56 56 55 54 54 53 53 54 55 55 54 57 57 57 57 58 58 60 60 61 62 64 64 66 67 67 69 70 71 72 72 73 73 75 76 76 77 77 77 78 78 77 78
57 57 56 56 56 56 56 57 58 58 60 60 60 60 61 62 63 63 64 66 67 68 70 72 73 73 73 75 76 78 79 79 78 79 81 80 80 81 81 79 80 80 81
61 60 59 59 59 59 59 60 59 59 60 63 63 64 65 65 67 67 69 70 70 71 74 73 75 77 79 80 80 81 82 81 81 83 84 84 83 83 83 83 82 83 84
64 63 61 60 62 62 63 64 64 64 65 67 68 67 68 69 69 70 70 72 73 75 75 76 77 78 79 80 81 82 83 83 84 84 85 85 85 85 84 83 84 85 84
67 65 65 64 64 66 67 65 66 67 68 69 71 73 72 71 71 73 74 74 76 77 77 79 79 79 81 82 83 83 85 86 86 87 86 85 84 84 83 82 83 83 83
68 69 69 69 70 70 69 68 69 71 71 71 69 70 71 72 73 76 75 78 79 81 81 81 81 83 85 84 85 85 84 84 84 83 81 80 80 80 79 79 80 79 79
73 72 73 74 73 73 73 71 74 74 75 76 77 78 77 76 76 79 79 80 83 82 83 82 82 84 83 83 82 81 80 80 79 78 77 76 76 76 76 74 73 72 71
76 76 76 76 74 74 74 76 75 74 75 75 76 76 77 77 79 80 80 82 81 81 79 81 82 81 81 78 76 75 74 75 76 76 75 74 74 74 74 72 71 69 67
80 79 77 76 75 75 76 76 75 74 74 75 74 75 76 77 77 77 79 80 81 82 81 80 79 77 76 73 72 73 74 74 75 75 75 74 74 75 74 74 72 71 70
81 78 77 78 77 77 75 75 76 74 72 71 72 73 76 75 77 79 79 79 76 76 75 73 72 72 70 70 71 71 71 72 72 72 72 73 73 74 74 74 73 72 71
80 80 80 79 76 74 74 75 71 69 69 66 65 65 67 67 70 72 69 70 70 69 70 68 66 66 68 69 68 67 68 68 70 69 70 70 71 72 72 71 72 72 72
79 77 77 74 73 70 67 67 66 59 63 65 66 67 64 65 64 67 66 65 64 60 60 62 61 61 63 65 67 68 67 67 67 69 69 70 70 69 70 71 71 70 70
76 73 75 73 73 74 72 67 63 64 61 64 65 66 63 65 65 67 62 59 60 61 61 60 62 63 61 60 61 62 64 65 66 68 69 71 72 71 71 70 70 70 70
75 73 72 73 72 73 70 68 69 68 64 63 64 68 71 70 66 61 65 63 63 64 63 61 62 64 63 63 61 60 60 59 61 64 66 68 69 72 73 72 70 71 72
76 72 71 70 70 71 72 72 72 72 67 65 65 67 65 65 65 66 69 67 67 67 68 70 72 68 68 66 65 64 60 58 60 62 65 67 69 69 70 71 70 71 72
74 74 74 72 72 72 71 74 75 75 72 67 64 65 69 72 72 71 72 71 71 71 70 69 71 73 72 69 68 67 60 62 61 67 67 67 67 67 69 70 70 71 72
77 77 77 78 78 76 75 75 78 79 81 79 76 76 75 74 72 71 69 71 74 73 70 68 72 74 73 71 71 70 68 70 71 74 74 72 70 69 69 69 69 72 73
79 81 82 84 84 85 84 83 83 83 84 84 81 79 77 77 71 70 71 73 71 72 73 72 75 79 79 78 76 77 76 76 79 81 79 73 73 71 71 70 69 70 72
84 86 88 89 91 91 91 89 87 87 86 86 87 83 79 76 81 80 75 73 72 71 75 78 79 82 83 82 83 85 81 81 80 83 78 74 74 72 71 70 70 70 70

GFSSE_250_spd_060.txt.gz
Wind_Speed
33 32 31 30 29 29 30 30 29 29 28 29 30 30 31 31 32 33 34 34 36 35 34 32 33 33 33 33 33 34 34 34 36 37 38 39 39 40 39 42 43 48 49
31 32 32 30 28 26 26 26 26 27 29 31 31 31 32 33 33 34 36 38 39 39 38 36 36 37 38 38 39 39 40 40 40 41 42 42 42 42 45 47 50 54 55
35 34 35 33 31 30 31 31 31 31 31 32 33 34 35 37 39 40 41 41 42 42 42 42 40 42 43 44 44 44 44 44 45 44 44 46 47 48 50 52 56 59 60
39 38 37 36 36 35 34 35 34 34 34 35 36 37 41 43 44 44 43 45 45 45 46 46 47 47 47 48 49 50 50 52 52 52 52 52 52 53 56 58 61 63 64
41 41 41 42 41 41 41 40 39 39 39 39 40 41 43 44 44 44 44 45 46 48 49 50 51 52 54 54 56 56 55 56 58 59 59 59 60 62 64 65 67 67 67
46 45 45 46 47 46 46 46 46 45 45 46 47 48 47 47 47 46 47 48 48 49 51 52 53 54 56 58 59 59 59 61 62 64 64 66 67 68 70 69 70 71 71
49 49 49 49 50 50 51 52 51 51 51 52 51 49 49 50 50 51 52 54 52 54 55 55 56 58 60 61 62 65 65 67 68 68 70 71 72 73 74 75 76 76 78
53 52 52 52 51 52 53 54 54 53 53 52 52 52 52 53 54 55 55 56 57 58 58 59 61 62 64 67 67 68 68 70 71 72 74 75 75 78 76 77 79 80 80
57 58 58 57 55 55 56 56 56 56 55 55 55 55 56 57 56 57 58 60 61 61 62 62 64 66 67 69 70 72 71 73 74 74 75 77 78 79 78 78 79 80 81
58 58 57 56 56 57 57 57 58 58 58 58 57 57 58 59 58 60 61 61 63 63 63 64 67 69 70 72 75 74 75 75 76 76 78 80 81 80 80 81 81 82 82
59 58 59 58 58 58 58 58 58 57 58 59 59 60 60 61 61 63 64 66 66 65 67 70 71 73 74 77 78 79 78 79 77 80 81 83 83 83 82 82 82 81 80
62 61 62 62 61 61 62 61 60 60 61 62 63 62 63 65 66 67 67 67 70 73 75 75 74 76 77 77 78 79 80 80 80 81 82 83 83 81 79 79 77 76 75
66 67 66 64 63 63 65 65 63 64 65 67 67 68 68 68 70 72 73 75 75 76 76 78 77 79 79 79 80 81 78 80 82 82 81 80 78 77 74 73 72 73 71
67 67 67 66 65 66 66 66 66 67 68 69 70 71 72 72 74 75 77 77 76 78 78 78 79 79 81 81 81 81 83 83 81 80 79 77 73 73 71 70 70 71 72
74 71 70 70 69 69 69 70 70 71 71 71 72 73 74 76 76 79 79 80 77 79 79 80 79 80 81 83 85 82 82 81 77 74 72 70 72 72 70 69 68 69 70
79 76 73 73 73 72 72 72 74 74 75 75 76 78 79 78 80 79 78 78 79 78 79 78 80 80 80 77 80 79 77 74 71 67 67 67 68 66 65 66 66 66 66
81 80 79 78 76 77 76 76 76 76 78 78 78 78 78 78 78 74 73 77 72 73 73 71 73 75 76 71 72 68 66 63 63 64 64 63 64 64 64 64 64 64 65
82 81 79 78 78 79 78 76 75 75 76 77 77 77 77 73 68 68 69 69 68 70 70 69 71 69 69 67 67 67 66 65 61 60 58 57 59 60 61 61 62 62 64
82 81 79 79 79 79 79 78 77 76 73 72 73 71 68 66 67 69 67 63 64 65 67 64 61 63 64 64 64 63 63 61 61 61 59 58 59 57 56 57 58 61 64
83 83 83 82 83 82 82 80 79 77 74 70 68 68 66 68 68 67 68 65 67 67 65 62 64 68 68 67 67 67 65 67 65 64 63 64 63 60 59 56 57 59 62
81 81 80 81 82 82 78 80 79 76 75 72 69 66 65 67 68 67 67 63 63 64 64 65 69 70 68 70 69 70 71 71 69 68 65 64 65 65 64 60 64 65 66
81 81 79 78 79 80 79 80 77 77 72 70 69 66 65 65 65 68 67 67 66 68 71 74 73 70 72 74 76 78 76 73 69 65 64 64 66 67 71 74 74 72 72
81 81 79 78 78 80 80 79 77 76 74 73 73 74 75 70 69 67 67 70 73 74 76 76 76 74 75 76 79 78 75 72 69 70 72 72 73 74 76 77 77 79 78
80 79 78 78 77 77 78 79 78 77 77 78 78 78 77 76 77 76 77 78 76 77 78 78 79 74 79 78 80 81 78 76 78 78 79 79 77 78 80 81 81 82 79
77 77 78 78 77 77 78 78 78 77 79 82 83 83 82 82 82 76 77 80 78 79 78 80 79 80 82 84 79 82 83 80 80 79 81 83 85 85 84 80 78 77 76
79 80 80 81 81 81 81 81 81 83 84 85 87 89 90 89 88 87 87 85 84 83 81 80 84 87 86 87 83 82 84 82 82 83 83 87 88 86 80 76 75 76 75

GFSSE_250_spd_063.txt.gz
Wind_Speed
30 29 29 29 28 30 29 29 29 29 28 29 29 30 31 28 27 29 30 29 28 31 32 35 35 36 36 36 36 36 37 38 39 39 39 40 40 41 43 43 43 42 43
31 31 30 31 30 30 30 31 32 30 29 29 28 29 28 26 27 29 30 32 36 38 37 38 38 37 38 39 40 40 41 41 42 43 45 45 46 46 46 47 46 47 48
33 33 32 33 33 32 32 30 27 27 28 28 28 29 28 30 31 33 35 38 40 40 40 41 42 43 43 43 44 45 46 47 48 48 49 49 50 51 53 53 53 54 55
35 36 36 35 34 32 32 31 30 31 31 31 31 31 31 33 35 38 39 40 41 41 40 41 43 43 45 46 47 49 50 52 53 54 55 56 56 57 57 58 59 60 62
37 38 37 37 37 36 37 36 36 37 35 35 35 35 36 37 38 41 42 42 43 42 42 43 45 47 46 48 49 50 50 54 55 56 58 60 61 61 62 63 64 66 67
42 40 40 40 40 40 39 41 41 41 41 42 42 42 42 43 45 46 46 45 45 45 47 49 49 49 52 52 51 52 53 55 56 58 58 61 61 63 65 65 66 68 70
48 46 45 43 43 43 44 45 46 47 47 47 48 48 48 49 49 50 49 48 47 49 51 51 51 54 55 56 57 56 56 59 60 61 63 65 63 66 66 68 66 66 69
52 50 50 49 48 46 46 47 47 48 48 49 50 51 51 51 50 50 52 51 51 51 51 53 55 55 56 58 58 59 61 62 63 65 68 68 68 67 68 68 69 72 72
55 55 54 53 54 52 50 50 51 51 50 51 52 53 54 54 54 55 54 54 55 56 56 56 56 58 58 59 60 63 66 67 67 68 71 72 70 70 72 72 73 73 76
58 59 60 58 55 54 54 54 54 55 55 56 56 57 56 57 57 55 55 55 55 56 58 60 60 60 63 66 67 68 68 70 71 71 72 72 72 73 72 73 75 74 76
62 60 59 59 58 58 56 56 55 56 55 55 56 56 56 57 57 58 58 58 58 60 61 62 63 64 68 70 70 70 72 73 71 71 74 74 74 74 75 77 76 74 73
63 60 60 59 59 58 58 58 57 57 59 59 58 58 60 60 61 62 63 62 62 62 64 65 67 70 71 73 73 73 72 76 72 74 74 77 77 77 77 75 76 71 69
68 65 64 63 62 61 61 61 61 62 61 61 61 61 63 64 64 64 65 64 65 66 68 71 71 74 73 75 75 75 76 74 74 75 75 77 77 78 74 72 68 67 65
69 69 67 66 64 64 63 63 64 63 64 64 64 65 65 65 66 67 66 68 70 70 72 73 74 74 76 76 76 75 74 75 75 74 76 76 75 72 67 64 64 64 61
69 68 68 66 66 65 63 64 65 66 65 65 67 68 68 68 70 72 72 73 74 74 75 75 76 74 77 73 73 73 75 74 76 74 71 70 67 63 60 59 59 60 60
71 70 69 70 69 69 68 69 70 71 69 69 71 73 73 74 75 76 76 76 76 76 76 74 73 73 71 73 73 73 72 72 73 71 70 64 60 58 57 56 54 52 54
76 75 75 71 71 71 72 73 74 73 73 75 76 77 77 76 75 75 76 75 75 76 74 70 70 72 71 68 69 72 69 66 66 67 65 63 63 60 58 55 54 56 54
80 80 79 76 75 75 74 75 77 76 75 76 78 77 76 77 77 76 75 75 75 71 69 67 70 68 66 68 66 65 67 63 63 62 61 62 62 63 64 61 57 55 54
81 81 80 78 77 76 76 76 76 76 77 80 81 81 79 76 76 75 74 74 71 70 70 69 68 68 64 66 65 66 67 66 65 62 60 60 62 62 58 55 54 53 53
81 81 80 79 78 77 76 76 77 76 78 77 78 77 76 76 75 74 75 75 73 71 69 67 65 64 63 64 65 69 70 72 70 68 67 66 63 62 57 54 57 60 60
80 80 81 79 79 79 78 78 79 77 78 78 79 77 76 77 78 78 78 73 68 65 66 67 70 68 67 69 71 70 73 73 74 73 72 74 73 66 63 63 65 65 64
81 79 78 79 79 80 79 79 79 78 76 78 79 79 79 79 78 75 71 68 66 68 69 71 71 71 75 74 74 75 75 76 78 77 78 80 78 72 70 70 69 69 68
79 78 80 82 82 82 81 81 79 79 78 79 81 81 81 79 76 75 73 75 74 74 75 75 76 78 77 77 78 77 78 80 80 80 83 83 83 77 75 74 74 73 74
81 81 81 84 84 82 80 79 79 79 80 80 80 81 80 78 78 74 68 70 71 76 77 79 79 81 82 83 84 83 82 80 78 82 87 86 85 80 79 78 78 78 78
81 81 81 82 80 80 79 78 80 78 80 82 81 81 81 81 81 79 79 79 79 81 82 83 85 84 87 89 87 87 83 82 85 87 88 87 83 83 83 84 84 84 82
81 81 82 84 85 85 83 80 78 77 79 80 82 84 85 84 84 82 82 83 83 83 88 89 91 92 89 92 92 90 87 86 91 88 88 84 83 83 86 87 87 86 84

GFSSE_250_spd_066.txt.gz
Wind_Speed
29 28 28 29 32 33 33 33 34 34 33 32 31 31 28 28 28 28 30 27 25 26 27 32 33 32 34 34 35 36 37 37 38 39 40 41 42 43 45 47 48 48 50
31 30 29 29 30 30 29 30 31 31 31 31 30 28 29 30 31 29 27 25 25 29 33 36 37 36 37 37 38 39 40 42 43 43 44 46 47 48 49 49 51 52 53
32 31 32 32 32 32 32 32 32 33 32 29 29 28 27 27 29 28 28 28 29 31 35 38 38 38 38 38 39 40 41 42 44 46 47 47 49 51 53 54 55 58 58
35 34 33 34 34 33 33 33 33 31 28 28 28 29 30 31 29 30 32 32 33 36 39 40 40 39 40 41 42 42 44 46 47 48 48 50 51 52 53 53 55 58 60
38 36 36 35 35 34 33 34 33 32 32 32 31 33 33 33 34 35 37 37 39 42 43 42 41 42 44 44 45 46 48 49 50 51 51 51 54 54 55 58 59 60 61
42 40 37 36 37 37 36 36 36 35 36 36 38 38 38 38 40 41 43 44 45 45 45 45 46 46 46 46 47 49 50 51 52 52 53 55 57 60 61 62 62 64 66
46 44 42 39 37 38 38 39 40 40 40 42 43 42 43 44 44 45 45 46 46 47 47 48 49 49 49 51 52 53 53 52 52 55 58 61 62 63 65 65 65 66 66
49 49 48 47 43 41 41 41 41 43 44 45 46 46 46 47 47 47 48 49 50 52 52 52 52 52 53 53 53 54 55 56 58 61 62 62 63 65 67 68 67 69 68
53 51 50 50 51 48 45 45 46 46 46 47 47 47 48 49 49 51 52 53 53 55 55 54 56 56 57 57 57 56 57 59 63 64 65 66 66 66 71 68 70 70 71
56 54 53 52 50 51 51 51 50 50 51 51 51 52 53 54 54 55 54 55 56 57 57 58 59 61 60 60 59 60 62 63 65 65 68 68 68 70 70 71 71 70 72
58 56 56 55 56 54 55 56 57 57 56 56 56 56 57 56 56 56 57 58 59 59 60 62 63 63 61 62 64 65 65 66 66 69 69 69 69 70 70 69 71 72 71
63 60 59 60 59 58 58 57 57 58 58 57 57 57 58 58 59 59 60 60 61 62 61 63 63 63 64 66 68 68 68 69 69 70 68 67 68 69 69 72 70 70 69
67 66 64 62 62 62 61 60 60 60 61 61 61 62 62 62 63 62 63 63 63 64 64 65 66 68 70 72 70 70 70 68 69 69 68 68 69 66 66 66 66 61 60
73 70 69 67 65 64 62 64 65 64 65 65 64 65 64 64 64 63 64 65 65 65 68 71 71 72 70 69 69 70 70 69 69 69 68 67 65 65 66 63 59 58 54
78 75 73 71 69 68 67 66 66 67 66 65 65 65 65 66 66 67 67 67 68 70 71 69 71 71 70 71 71 70 68 68 70 68 67 66 64 67 62 62 61 57 56
80 79 76 74 73 72 70 69 65 65 66 66 67 67 69 71 71 70 72 71 70 71 72 74 72 71 72 72 72 69 68 70 69 68 66 64 63 63 61 56 56 56 57
83 83 81 78 76 73 69 68 68 69 69 70 71 73 74 75 75 73 73 74 74 75 75 74 72 72 74 71 70 68 70 70 67 64 62 64 63 64 62 59 59 57 58
80 78 77 77 74 72 72 72 73 73 74 75 75 76 77 78 77 76 77 77 76 76 74 73 73 72 72 74 72 71 69 67 63 64 64 67 66 66 64 64 62 62 62
78 76 76 76 77 77 78 77 75 75 76 79 79 78 79 79 77 77 77 77 76 76 76 74 73 72 74 74 73 69 67 65 68 69 70 70 69 68 69 67 67 65 68
84 83 81 79 80 82 80 78 79 78 80 80 80 79 78 81 80 77 78 79 77 76 74 74 73 73 74 72 70 67 67 69 70 73 71 73 75 73 73 73 70 70 73
87 86 86 84 86 84 82 81 80 80 80 80 81 80 82 81 81 81 81 80 77 75 74 73 71 71 70 68 68 70 71 73 74 74 72 75 77 77 78 75 75 77 78
85 85 85 85 86 85 83 83 82 81 79 79 79 81 81 83 82 82 80 80 78 76 76 74 72 72 72 75 74 74 74 76 77 76 78 80 80 80 80 79 78 81 83
86 86 85 85 86 88 85 84 78 77 76 78 80 83 82 83 82 81 81 81 82 83 80 77 74 73 72 73 74 75 76 77 80 82 82 85 83 83 82 82 80 84 85
87 85 84 82 83 85 83 79 78 79 78 82 83 85 85 83 83 82 83 82 82 82 80 78 79 77 77 80 80 82 81 82 85 86 87 86 86 85 83 82 84 81 86
87 85 84 83 83 83 82 81 82 82 83 82 85 87 86 84 84 84 83 83 82 80 82 82 83 83 81 81 84 85 87 88 88 88 88 89 88 85 84 85 85 88 89
88 85 83 82 83 83 83 84 85 85 86 86 88 87 88 88 88 86 84 83 84 82 84 85 86 88 87 87 89 90 92 92 92 91 90 88 89 88 87 88 89 94 93

GFSSE_250_spd_069.txt.gz
Wind_Speed
30 30 30 34 37 38 37 38 39 38 39 37 38 36 34 31 29 28 25 25 26 29 29 25 25 28 29 31 33 34 34 35 36 39 40 41 42 43 44 45 46 49 50
30 29 30 31 35 36 37 38 38 36 36 38 36 36 34 29 26 26 27 29 30 27 27 27 28 30 33 35 36 36 37 39 40 41 40 43 44 45 46 47 49 50 52
33 32 31 30 31 30 31 35 34 34 34 31 30 31 30 28 27 29 27 26 28 28 28 30 32 35 36 37 39 40 42 43 42 41 43 45 45 46 46 47 49 51 53
36 34 33 33 32 31 31 31 30 30 30 30 29 30 30 27 27 28 28 29 30 32 33 35 38 39 39 40 41 43 45 46 47 47 47 48 49 49 49 51 54 57 58
38 37 34 33 32 32 32 32 31 31 29 29 30 31 29 29 29 30 31 33 36 37 39 40 41 41 41 44 45 47 48 48 49 49 50 50 49 51 53 56 57 58 61
41 39 37 34 33 33 33 32 32 31 31 31 32 32 33 35 33 35 37 39 41 42 43 43 42 42 44 47 48 47 48 49 51 52 54 53 53 55 56 58 60 62 64
44 43 40 38 35 35 35 35 35 35 35 34 35 35 37 39 41 43 44 44 44 43 44 44 45 47 49 51 51 50 53 53 56 58 56 56 58 60 60 61 63 64 64
47 46 44 43 40 38 37 35 37 38 39 40 40 40 41 43 46 47 46 47 47 48 48 49 51 52 53 53 53 54 56 57 55 57 59 60 61 62 63 65 66 64 64
48 47 47 47 46 44 43 42 40 41 41 40 41 44 46 47 48 49 50 51 52 53 53 52 53 55 56 55 56 58 59 59 60 59 62 63 65 65 66 64 64 62 63
52 51 49 48 48 47 48 48 47 47 46 46 45 46 47 49 51 53 54 54 54 55 55 55 58 59 59 59 59 61 61 62 63 65 68 69 66 64 63 63 62 62 61
57 56 55 54 53 52 52 51 50 49 49 49 50 52 53 54 56 57 55 55 56 57 58 59 61 61 61 61 62 63 64 66 68 67 65 64 64 64 63 61 60 61 61
62 59 58 58 58 56 54 54 53 53 54 53 54 55 56 57 58 57 57 58 60 61 62 63 64 64 65 65 64 66 67 68 68 67 67 65 62 64 63 59 59 59 60
67 65 63 63 61 59 58 58 57 56 58 59 58 58 59 60 61 62 62 64 65 65 66 64 65 65 65 67 68 68 69 70 68 68 67 66 63 63 61 61 59 58 59
71 70 66 66 65 64 62 62 62 61 61 62 62 62 63 64 64 66 66 67 66 66 66 67 67 68 69 70 71 71 71 69 68 67 67 67 65 64 62 57 56 58 58
76 73 71 69 69 68 67 67 67 67 66 65 65 66 67 66 65 64 66 67 68 67 69 70 70 71 71 73 74 71 70 70 68 67 67 66 65 65 59 57 59 63 57
80 77 75 73 72 71 72 72 72 70 69 68 69 70 68 69 68 67 70 71 72 72 73 73 74 74 75 75 74 71 70 70 68 68 67 66 66 65 62 61 63 62 62
84 80 78 77 76 76 76 76 75 74 72 74 72 70 69 69 71 71 72 74 76 76 76 76 75 76 75 75 72 72 72 70 69 69 68 68 66 62 65 66 65 65 64
86 85 83 82 81 80 80 79 77 77 75 73 72 72 72 75 76 76 77 77 78 78 78 78 79 78 77 74 72 72 72 72 71 70 68 66 66 66 67 69 69 69 67
86 85 83 84 82 80 80 79 78 75 76 75 75 76 78 79 79 79 80 81 79 80 80 80 78 76 73 74 76 74 73 74 69 69 67 66 66 69 70 69 72 71 72
85 84 82 79 79 79 78 80 80 79 79 77 78 79 81 82 83 85 82 82 82 79 81 79 77 76 76 76 74 73 73 70 67 68 69 71 72 73 72 75 73 74 75
83 83 84 83 83 84 82 82 83 84 82 82 82 83 83 83 83 83 84 83 81 80 81 81 80 79 79 77 77 77 75 71 71 71 71 73 75 75 75 75 77 78 79
86 85 84 84 84 84 82 83 83 83 84 84 84 86 86 86 87 83 83 83 83 83 82 83 84 82 82 81 81 77 77 74 74 73 74 75 78 77 76 78 81 82 82
87 86 85 85 85 87 86 85 85 84 85 86 86 87 87 87 86 86 86 87 85 85 84 85 86 84 81 80 81 80 76 75 76 76 75 78 79 80 81 84 83 84 85
91 90 89 89 88 88 89 89 90 91 90 92 93 91 90 91 89 89 88 87 89 87 86 89 88 85 84 83 85 82 79 79 80 79 82 83 83 85 87 87 87 87 88
94 94 94 94 95 95 95 95 96 97 97 98 98 98 100 95 93 92 93 91 91 90 90 88 87 87 89 85 84 84 83 83 82 84 83 86 87 90 90 90 89 89 92
98 98 98 98 97 97 97 97 97 99 98 98 98 97 98 100 99 95 94 92 93 92 92 91 93 90 89 90 88 88 88 90 88 90 90 89 89 90 93 93 92 91 92

GFSSE_250_spd_072.txt.gz
Wind_Speed
34 35 34 36 39 38 37 40 39 40 41 39 42 42 37 35 33 32 32 25 22 22 24 26 28 26 26 27 29 31 33 36 37 39 40 42 43 44 44 45 45 46 45
32 32 33 34 36 36 36 36 38 38 37 38 36 36 36 36 35 32 27 26 25 27 29 27 28 27 29 32 34 36 37 37 39 40 43 44 45 45 46 48 49 47 47
32 30 30 30 30 30 32 34 35 36 35 34 34 34 34 31 29 27 28 27 27 25 26 27 29 32 34 37 39 39 39 41 41 44 45 45 48 50 50 51 51 50 52
34 32 31 29 29 28 28 31 32 33 32 31 33 32 29 30 31 29 30 28 27 26 28 32 34 37 38 40 41 40 42 45 47 47 49 49 50 50 52 54 52 55 56
35 34 32 32 30 29 27 28 27 28 27 27 29 28 28 29 27 29 30 28 29 30 33 37 39 40 42 43 43 44 46 48 48 48 48 50 52 53 55 54 56 59 60
37 36 34 33 31 30 28 28 27 26 26 27 27 27 28 28 29 32 33 33 34 36 38 42 43 45 45 45 46 47 48 49 50 51 53 54 55 57 58 58 59 62 65
41 38 36 34 33 32 30 30 29 28 28 28 29 30 30 30 32 33 36 38 39 40 43 45 47 47 47 48 50 49 50 51 53 55 56 58 59 58 60 63 65 65 64
45 42 40 37 36 35 34 31 31 31 32 33 34 33 33 34 36 37 39 41 42 43 46 47 49 50 50 51 51 52 54 57 58 58 60 60 61 63 64 65 64 64 63
49 45 43 40 38 38 38 36 35 35 34 34 35 36 37 38 40 42 44 44 45 48 50 51 52 52 53 53 55 57 59 61 61 63 63 62 63 64 64 65 67 63 60
52 49 47 45 43 43 41 42 41 41 41 41 41 41 42 43 44 45 47 49 51 52 53 53 53 54 55 58 61 62 62 62 62 64 65 66 67 66 65 65 65 60 57
56 52 50 48 46 44 44 45 45 45 44 44 45 45 47 47 47 48 48 49 51 52 53 55 57 59 61 61 62 62 62 64 64 65 66 68 69 69 65 63 60 57 57
58 56 54 52 50 48 48 47 47 47 48 49 49 50 49 49 50 51 52 53 56 57 59 60 62 63 63 63 64 63 64 65 67 69 69 68 68 66 63 60 58 56 56
62 61 59 57 55 52 51 51 51 53 54 53 53 52 52 53 54 56 57 58 60 62 63 63 64 64 64 65 66 67 68 68 69 71 69 67 63 62 60 58 58 58 58
66 66 64 62 60 58 58 57 57 58 58 57 58 57 58 58 60 61 63 64 65 67 66 64 64 66 66 69 70 71 72 70 70 73 72 70 66 64 64 61 59 59 58
71 69 67 64 63 64 64 63 62 61 61 61 63 63 63 64 65 66 67 69 70 70 68 68 68 70 70 73 73 74 73 73 72 74 73 70 68 65 63 62 61 59 58
76 73 70 68 68 67 67 66 66 66 67 66 66 67 69 70 71 72 73 74 72 70 68 71 73 75 76 77 78 76 74 75 75 73 72 71 69 66 65 62 60 59 59
79 76 74 72 72 71 71 70 71 70 71 70 71 72 73 74 75 75 77 75 73 73 72 75 77 79 79 80 79 77 76 77 76 75 73 72 70 70 67 63 59 59 61
83 80 79 78 78 75 75 76 77 76 75 75 77 77 77 78 78 79 78 76 76 77 77 79 80 81 81 81 81 80 79 78 77 77 73 72 73 70 67 63 61 64 65
87 85 83 83 81 80 79 79 79 79 79 80 81 82 80 80 80 79 78 79 80 82 82 83 83 83 83 82 82 80 79 79 79 79 78 73 73 71 68 70 68 67 68
89 87 86 84 83 81 81 80 80 81 80 81 83 82 79 80 80 80 82 83 85 85 87 87 86 84 85 84 82 81 82 80 79 80 81 74 71 71 74 70 69 69 69
89 89 86 83 81 82 81 80 82 79 79 80 80 80 80 81 83 84 86 87 86 88 89 90 91 90 87 87 85 83 83 82 82 83 81 77 73 74 70 71 71 69 71
91 89 86 84 82 83 81 81 84 83 81 78 78 82 83 83 86 88 89 90 92 94 94 94 95 94 94 94 89 88 87 83 86 85 81 78 77 74 74 73 74 74 76
89 89 87 86 86 86 86 82 79 79 80 79 81 84 86 87 89 90 94 96 98 99 100 100 99 99 95 97 94 91 89 86 87 83 80 82 81 77 78 76 76 78 80
91 88 87 86 84 84 83 82 79 82 85 87 88 91 92 93 96 96 97 99 99 102 101 101 98 97 99 95 96 92 92 86 87 85 87 84 83 79 79 80 82 85 84
93 91 90 88 87 87 86 87 89 89 89 93 93 96 97 100 100 102 104 104 105 106 106 101 99 97 94 94 96 95 93 92 90 90 88 86 86 86 83 85 89 88 87
98 96 95 94 93 92 92 92 92 96 96 95 97 101 104 106 109 108 111 114 112 108 107 103 104 97 93 95 96 96 95 95 94 93 92 92 91 90 90 89 89 88 87

GFSSE_250_spd_075.txt.gz
Wind_Speed
35 34 35 38 41 40 39 43 41 37 33 39 44 42 43 41 41 38 35 33 28 26 25 24 25 26 26 27 25 29 31 34 36 36 38 40 43 44 45 46 47 47 49
35 35 34 37 37 38 38 39 37 34 32 35 34 38 38 39 37 33 34 31 28 29 27 27 27 25 25 26 30 34 36 38 38 40 41 43 43 46 45 47 48 50 52
36 36 36 35 35 35 34 32 32 33 34 34 36 34 36 35 32 30 31 29 30 30 30 29 27 27 28 30 35 38 40 41 42 44 44 45 46 48 50 51 53 54 55
38 37 35 34 34 33 31 29 28 31 32 34 34 34 33 32 30 29 29 31 32 33 29 29 29 31 33 36 39 41 42 45 46 46 46 47 49 52 54 55 57 58 57
38 37 34 32 31 28 26 25 26 27 29 31 31 30 31 30 30 30 30 30 30 31 30 31 33 35 38 39 42 44 47 48 47 46 48 52 55 56 57 59 59 59 60
40 37 35 32 30 27 26 25 25 26 26 27 28 28 27 26 27 27 28 28 30 33 34 34 37 39 40 42 45 49 49 48 48 51 53 56 57 58 59 61 61 62 63
39 36 34 32 31 29 27 27 27 26 25 26 26 26 26 26 26 28 28 29 32 32 34 38 40 42 45 47 49 49 49 49 52 54 57 58 60 60 59 61 62 62 64
43 39 36 33 32 31 30 29 28 28 28 27 27 27 27 28 30 32 33 33 34 35 38 41 43 46 48 49 50 50 51 54 56 57 59 60 61 60 62 63 65 66 64
45 42 39 37 35 34 32 31 32 30 29 29 29 29 30 31 34 34 35 35 37 39 41 44 45 46 48 50 51 54 56 59 60 60 60 61 62 64 66 66 64 64 63
48 46 43 41 39 39 37 35 34 35 34 34 33 34 36 39 40 41 42 42 43 45 46 47 48 49 50 53 55 58 61 62 61 61 62 64 65 67 65 65 64 65 60
52 49 46 45 44 43 41 38 37 39 38 39 39 40 42 43 43 44 44 46 46 47 49 51 51 53 55 59 61 63 63 64 63 63 66 68 70 67 67 66 67 64 60
55 52 51 49 48 46 44 43 43 42 42 42 44 45 44 45 46 47 47 49 50 51 52 54 58 60 63 64 66 66 66 65 66 68 70 73 74 70 68 70 67 64 62
60 57 55 53 51 51 48 47 46 46 45 45 46 48 50 50 50 51 52 54 55 56 58 60 62 64 68 70 71 69 66 67 71 73 75 75 73 72 73 70 68 65 63
65 63 61 58 57 56 53 52 51 50 50 50 49 51 53 53 54 56 58 60 61 62 64 66 69 70 72 72 71 70 70 72 75 77 77 75 73 74 73 72 69 65 64
69 65 65 63 61 59 59 57 56 56 56 57 56 56 59 58 58 60 62 63 64 67 69 70 71 73 73 75 73 73 74 78 78 79 78 77 76 77 74 72 69 66 64
70 65 65 65 65 64 63 61 60 60 60 61 62 62 62 62 63 64 66 67 69 71 73 75 75 74 76 75 76 78 79 80 79 80 82 81 80 79 77 73 69 67 66
80 77 73 70 67 66 65 64 64 64 64 64 65 66 66 67 69 70 71 73 75 76 78 77 79 78 79 80 80 81 81 82 81 83 83 85 81 83 81 73 71 70 67
82 80 76 75 74 71 70 69 68 68 68 68 68 69 70 72 74 75 76 79 80 81 79 84 83 85 84 83 84 84 85 84 86 86 85 86 87 84 81 77 72 70 67
85 83 81 79 79 75 75 74 72 72 72 72 73 74 76 77 78 79 81 82 80 81 85 87 85 86 88 89 87 88 89 90 90 88 88 89 88 85 81 79 76 73 68
88 86 86 84 81 80 78 78 77 76 76 77 77 77 80 82 83 83 81 78 80 82 83 86 88 89 91 91 92 92 92 93 93 94 90 89 87 85 81 80 75 72 69
89 88 88 86 86 84 82 81 81 81 80 79 80 80 82 83 82 80 77 79 81 82 84 87 91 94 94 96 97 98 97 99 98 96 95 89 86 82 81 79 75 74 72
94 92 91 89 87 86 86 85 83 83 81 80 79 80 81 79 76 77 80 84 84 86 88 92 94 96 101 102 103 103 104 102 101 100 95 88 83 82 81 78 77 78 77
95 95 93 91 89 88 86 85 83 82 79 78 79 78 77 78 78 80 82 85 89 91 93 96 99 101 103 106 108 110 109 106 104 99 93 87 86 84 83 81 81 82 80
97 96 93 92 90 88 85 81 80 80 80 81 80 79 79 83 84 84 86 90 93 97 99 101 102 105 106 108 111 113 115 109 100 93 93 91 90 88 86 86 83 82 82
98 97 96 96 95 93 90 89 85 82 82 83 83 87 88 87 88 92 94 96 98 101 104 105 107 108 111 112 113 110 107 104 97 94 92 94 95 95 93 90 87 85 84
101 98 97 96 96 96 94 91 89 87 86 88 89 88 93 95 96 99 103 105 105 106 108 111 113 115 116 117 108 103 94 101 103 102 100 101 101 99 98 97 95 91 88

GFSSE_250_spd_078.txt.gz
Wind_Speed
39 38 40 43 43 44 41 37 35 35 34 32 38 42 42 42 39 42 42 42 40 37 34 28 24 24 26 27 24 24 26 30 34 36 38 41 41 41 44 46 48 50 51
39 36 35 35 37 39 38 37 36 35 38 34 34 34 34 35 38 42 39 40 36 33 32 27 26 28 28 26 27 29 32 34 36 39 43 44 44 45 47 50 51 52 54
40 39 37 35 35 35 36 35 34 34 37 36 34 32 34 34 35 35 32 31 27 29 30 29 29 30 28 29 30 33 36 37 40 43 46 45 46 48 50 52 53 56 56
42 40 37 36 36 34 35 35 33 33 35 34 31 32 32 34 33 32 29 27 27 29 30 30 30 30 30 31 33 35 37 41 44 45 46 46 48 50 53 54 55 57 57
41 38 36 35 35 35 33 33 32 32 31 28 31 31 31 32 31 30 29 28 28 27 28 28 29 30 33 33 35 38 41 43 45 46 47 51 53 54 56 56 57 58 60
41 38 36 36 35 33 33 32 31 30 26 26 27 29 29 30 30 31 30 28 28 26 28 27 28 30 33 35 38 40 42 43 46 48 51 54 56 56 57 58 58 62 63
42 39 37 37 36 33 32 31 30 27 26 25 25 26 27 28 28 27 28 26 25 27 28 29 32 34 36 38 42 42 44 47 49 52 55 57 58 60 60 59 62 66 64
43 41 38 37 36 34 32 30 30 29 27 26 26 26 27 27 27 27 28 28 28 30 31 33 35 39 40 41 43 45 47 49 54 56 59 61 61 60 62 64 66 68 63
46 43 40 38 36 34 33 33 32 30 29 28 28 28 28 28 28 28 28 30 32 34 38 40 41 41 42 44 46 49 52 55 58 61 63 63 63 63 65 67 69 65 62
49 46 44 42 39 37 36 35 34 33 31 31 32 31 30 30 31 32 34 36 38 39 40 42 41 43 46 48 51 55 56 58 62 66 67 67 65 66 68 71 67 65 65
55 51 49 47 44 41 40 39 38 36 34 35 35 36 37 37 37 37 37 39 40 42 44 45 46 49 51 54 57 61 63 64 66 69 70 69 68 69 72 70 68 68 68
60 56 53 51 49 47 45 43 42 41 39 38 38 39 40 41 41 42 41 43 44 46 47 49 51 54 56 58 62 64 66 69 72 72 70 72 73 73 70 70 70 70 70
59 56 55 55 53 51 47 46 45 45 43 42 43 43 43 42 43 44 45 46 47 49 50 52 55 56 58 62 64 67 71 73 74 74 75 75 76 75 73 73 75 75 73
59 59 57 56 55 53 51 49 48 48 47 46 46 48 47 46 46 48 49 50 53 54 56 57 59 62 63 66 69 73 74 77 77 77 77 78 79 76 78 78 79 79 74
70 65 62 60 60 58 56 53 52 52 53 52 51 52 53 52 53 55 56 58 58 59 61 62 64 67 69 72 75 76 79 80 81 81 81 81 81 81 83 83 82 79 76
74 69 67 66 65 63 61 59 58 58 57 57 57 57 57 57 57 58 60 61 62 64 67 68 70 72 74 76 78 80 82 82 84 84 85 86 85 86 87 86 84 80 78
74 73 75 70 65 66 65 64 63 62 62 62 61 60 60 60 61 63 64 65 66 68 71 73 75 78 77 79 80 82 83 85 85 87 87 89 89 91 91 91 85 86 82
82 77 64 64 68 66 66 67 65 65 66 66 64 63 63 64 66 67 67 69 71 73 75 78 80 76 79 82 84 84 85 84 87 90 91 93 94 93 92 92 91 88 80
86 83 81 78 74 69 66 63 64 65 67 66 67 67 67 70 70 71 72 73 75 77 80 81 75 79 83 83 86 86 86 89 91 94 96 96 96 97 99 92 89 83 80
88 87 84 82 82 80 78 78 77 75 74 72 72 72 73 74 74 74 76 77 78 79 79 75 77 81 83 86 87 87 90 94 97 98 99 99 102 103 98 89 85 82 79
87 88 87 86 86 82 81 79 78 78 77 76 77 77 78 77 76 77 80 78 78 76 74 78 83 84 86 90 90 93 96 99 101 104 102 105 107 102 91 86 83 80 79
90 90 91 91 88 86 83 81 81 81 80 80 81 81 80 80 82 80 80 79 77 76 83 85 82 87 93 94 97 98 100 100 102 106 109 111 102 95 88 83 80 82 82
94 93 92 92 92 90 88 85 83 83 83 82 81 81 80 81 83 82 80 80 79 84 84 86 90 91 95 99 101 104 101 104 109 114 116 110 103 91 87 86 90 86 85
96 96 95 93 91 91 91 90 88 86 84 84 83 82 82 82 80 80 79 80 84 85 89 91 93 96 99 102 103 105 108 112 115 119 109 103 99 96 95 96 96 96 96
100 99 97 95 93 91 90 90 91 91 90 87 84 82 82 84 84 84 87 86 89 91 93 95 97 100 101 105 104 111 115 119 121 105 93 94 98 102 103 101 99 100 96
104 103 101 98 96 94 91 88 87 88 91 92 92 92 92 93 93 92 94 94 94 94 96 98 100 102 103 105 110 116 119 118 103 96 95 99 101 95 92 89 88 91 92

GFSSE_250_spd_081.txt.gz
Wind_Speed
42 40 37 38 43 44 45 46 44 44 43 35 35 34 35 35 36 36 39 40 41 40 37 38 37 32 26 26 26 24 25 27 29 32 35 37 40 41 44 47 50 52 54
44 41 38 37 39 42 44 45 44 44 39 33 34 34 32 30 33 32 31 31 31 33 33 31 27 28 27 27 26 27 27 30 31 34 36 38 41 44 48 50 52 54 54
45 44 43 41 38 39 42 44 44 42 37 36 36 38 35 33 35 33 33 32 32 26 24 24 26 28 28 28 28 30 30 31 34 35 38 40 43 46 51 54 55 55 54
47 43 43 42 39 38 35 37 38 37 35 33 34 36 36 34 33 33 33 33 31 29 26 25 27 27 27 28 29 30 31 34 37 38 40 43 47 49 54 55 55 56 57
45 43 42 41 38 37 35 32 32 34 34 33 35 35 36 33 32 32 30 31 29 26 25 25 27 26 27 26 28 31 35 37 38 39 42 46 48 52 56 57 57 58 59
44 43 41 41 40 38 36 34 34 33 33 34 33 32 30 30 30 29 31 28 27 25 24 26 27 26 28 28 31 34 38 39 40 43 46 48 53 55 58 57 59 59 62
44 43 42 41 38 36 35 33 34 34 34 33 31 28 26 26 26 26 26 27 26 26 25 26 27 28 30 34 37 37 38 41 43 46 50 53 57 59 60 59 61 64 65
47 43 43 40 37 35 33 33 33 34 34 33 30 27 26 25 26 25 26 27 27 26 25 26 30 34 36 37 38 40 42 44 47 50 52 56 59 61 62 62 62 65 64
48 44 43 39 37 36 36 36 34 34 33 31 29 27 27 26 26 27 27 27 26 26 28 32 34 36 38 40 42 43 45 48 51 54 56 60 63 65 66 65 67 67 67
52 48 44 42 39 38 37 37 37 35 34 31 29 30 29 29 28 27 28 27 29 31 33 34 36 39 41 43 46 48 48 52 54 57 61 64 66 68 69 68 70 73 71
56 52 48 46 43 41 40 39 37 35 34 33 33 32 32 32 31 31 32 33 34 36 37 38 40 42 44 46 49 51 52 56 59 62 65 67 69 71 72 73 76 77 77
60 57 53 49 46 44 42 42 40 37 36 36 36 35 35 35 35 36 36 37 39 39 40 42 43 46 48 50 53 55 58 60 63 66 67 72 73 73 76 78 80 81 81
61 61 58 54 51 49 47 46 44 42 40 40 41 41 39 39 39 39 39 41 42 43 44 46 49 52 54 55 57 60 62 65 68 68 71 74 76 79 79 80 81 83 84
68 65 63 60 58 55 52 51 49 47 45 44 44 44 43 43 43 43 44 45 47 48 50 51 54 55 57 59 61 64 68 70 71 74 76 79 81 81 80 83 86 88 87
71 67 67 65 63 59 57 55 53 53 50 48 48 47 47 47 47 48 49 51 52 53 55 56 58 59 61 63 65 68 71 73 75 76 81 84 84 83 84 87 91 89 89
75 73 68 67 63 63 61 58 57 56 55 53 52 52 51 51 52 55 55 55 56 58 59 61 62 63 65 68 69 71 73 75 77 81 86 87 86 85 88 92 92 92 93
77 74 72 69 64 61 62 60 58 58 58 57 57 57 57 56 57 59 60 60 60 62 62 65 66 68 70 73 74 74 76 78 81 86 88 88 88 89 93 93 93 95 98
77 78 78 75 71 70 67 64 63 62 62 62 62 62 62 61 62 62 64 63 63 65 67 69 70 72 74 76 75 77 78 79 85 89 90 90 92 95 97 95 96 101 103
75 75 77 78 77 72 73 71 68 66 66 66 66 66 65 65 66 65 63 66 69 70 71 73 74 75 77 75 76 78 81 84 88 91 93 93 96 99 98 101 104 106 96
87 78 79 76 77 77 77 76 72 71 72 70 69 63 63 65 66 69 71 73 74 74 75 77 78 78 77 77 80 82 84 87 91 92 94 99 100 100 103 108 110 105 90
89 86 82 80 80 76 75 74 74 71 67 69 71 70 73 75 75 76 76 77 77 79 79 79 79 77 80 82 82 86 88 91 94 96 98 101 102 104 109 113 110 97 87
88 92 91 89 87 86 85 83 81 80 80 79 77 78 78 77 78 78 79 80 80 79 80 78 79 80 82 84 86 91 91 94 98 101 101 102 104 109 114 112 103 94 89
93 91 90 92 91 88 87 87 86 85 84 84 82 81 79 80 79 79 79 80 80 80 79 79 82 83 85 90 93 98 97 97 99 104 106 106 111 115 112 102 96 96 96
97 93 91 90 91 91 90 88 87 86 86 86 84 83 82 81 81 81 82 83 82 82 83 86 87 91 93 94 99 101 100 101 104 103 105 112 116 114 104 97 98 97 92
98 95 93 92 91 91 91 90 89 88 87 87 86 85 85 85 85 85 85 85 85 85 85 88 91 93 95 98 100 102 106 107 106 108 110 115 112 106 102 101 99 89 82
102 101 99 97 94 93 92 91 91 90 90 89 88 87 87 88 88 88 87 87 87 87 90 90 92 95 98 100 103 106 108 108 109 114 117 115 102 99 101 98 89 82 78

GFSSE_250_spd_084.txt.gz
Wind_Speed
42 42 41 43 43 42 44 41 39 40 38 37 40 41 38 36 32 30 29 30 32 29 26 27 29 28 22 23 22 23 22 23 26 27 28 31 33 35 39 41 45 49 49
45 44 43 43 42 42 42 44 42 44 42 42 40 40 40 32 33 34 33 27 30 31 31 31 26 20 22 23 24 25 25 26 27 28 31 32 34 38 40 45 48 51 50
48 47 44 44 42 42 39 44 41 42 41 41 42 39 35 33 33 30 30 32 31 31 33 30 28 26 22 24 24 25 26 26 27 30 33 35 36 40 44 47 50 52 52
50 49 47 43 40 40 37 38 39 39 39 39 39 37 33 35 33 32 33 31 31 31 29 29 26 23 21 22 23 24 24 27 30 32 34 36 39 41 44 49 51 53 55
49 48 46 45 42 41 39 36 36 35 34 35 35 34 33 32 32 34 33 31 30 28 26 25 22 22 23 24 23 25 27 31 32 35 37 40 42 45 48 50 54 55 57
47 45 46 45 44 42 40 37 37 34 32 33 32 31 30 32 33 33 32 30 28 27 24 24 25 24 23 23 24 29 31 31 34 38 39 41 44 47 50 54 56 58 58
47 44 44 44 42 40 38 38 36 34 34 33 31 29 30 31 31 30 27 25 25 24 23 25 24 24 22 26 29 31 33 34 36 40 42 44 47 50 53 56 59 61 63
49 45 45 44 43 42 38 37 36 36 34 33 32 31 31 31 29 27 25 25 24 24 25 24 23 24 27 29 31 33 35 37 40 43 46 49 50 53 56 58 62 66 67
51 48 46 45 42 42 39 38 37 36 35 33 32 30 31 31 28 26 26 27 25 25 24 24 26 28 30 31 33 36 38 41 43 46 48 51 53 56 59 62 67 69 69
52 51 47 45 42 41 41 40 38 36 35 33 32 31 31 30 28 28 28 27 26 25 26 28 31 33 34 36 38 40 43 45 48 50 52 54 58 60 63 68 71 72 74
55 54 52 49 47 44 43 41 39 36 37 35 32 32 31 30 30 30 30 30 29 30 31 33 36 37 38 40 43 45 48 49 51 54 56 57 61 63 68 72 74 75 76
61 59 57 53 50 47 45 42 40 38 38 37 35 33 33 33 33 34 34 33 34 34 36 37 39 40 42 45 48 50 51 52 54 57 60 63 65 68 71 74 77 78 78
63 61 59 56 54 51 48 44 43 40 39 38 36 36 35 35 36 35 36 37 38 39 40 41 43 45 47 50 52 53 55 57 59 61 64 66 68 72 76 78 80 81 82
66 65 63 61 59 55 51 49 46 43 42 42 41 40 39 38 40 40 40 42 43 44 45 46 47 49 52 53 54 56 59 62 65 66 68 70 73 76 78 81 82 86 85
67 68 67 65 62 59 56 54 50 48 46 46 46 45 44 42 43 44 44 45 47 48 48 50 52 53 55 56 57 61 63 66 68 71 73 75 77 80 82 82 86 87 89
67 70 71 69 66 63 61 58 55 54 53 52 51 50 49 49 48 47 47 49 50 51 52 54 57 57 59 59 61 65 67 70 73 74 76 77 80 83 83 87 89 90 93
68 68 67 72 70 67 64 63 61 59 58 56 56 56 55 54 53 52 52 53 54 55 57 58 59 62 61 64 66 68 72 73 75 77 78 80 82 84 86 90 91 94 97
67 76 71 68 72 72 69 67 65 64 62 62 61 60 58 58 56 57 59 58 60 61 62 63 62 62 67 69 70 73 75 77 77 79 79 81 84 87 91 93 94 100 101
65 67 70 72 67 70 72 70 70 68 65 64 63 60 59 59 61 62 62 62 64 66 66 63 65 70 72 72 74 76 78 77 79 80 84 85 90 94 96 97 101 102 104
70 66 77 77 76 72 70 72 73 72 70 68 64 64 65 66 65 64 66 66 66 65 65 70 73 75 76 75 76 79 79 79 82 85 86 89 95 97 100 101 104 106 108
88 77 74 79 82 79 77 76 74 75 71 72 68 67 69 68 69 68 67 65 68 72 73 75 76 77 77 78 79 80 80 82 87 89 90 94 97 100 102 106 107 110 111
98 92 82 76 78 81 79 76 74 74 74 76 74 72 72 73 71 69 71 74 75 76 79 80 79 80 81 82 81 79 82 85 88 91 92 97 100 104 108 108 110 110 111
101 99 90 87 78 76 76 75 74 74 74 76 74 72 72 74 75 77 78 79 80 82 82 82 83 81 81 82 83 84 84 85 89 93 99 103 106 109 110 110 110 110 109
104 100 99 93 89 85 85 83 82 77 74 75 75 77 79 77 78 81 83 85 84 84 84 83 82 83 84 84 86 88 91 93 93 96 100 106 108 108 109 110 107 106 104
107 104 101 102 96 87 87 90 90 88 87 87 86 85 85 83 82 83 82 83 84 84 84 84 85 87 87 88 90 92 94 98 99 102 105 104 107 107 109 109 106 101 99
110 108 105 104 101 98 93 90 89 90 92 93 92 91 90 88 87 87 86 86 86 86 86 87 87 88 90 91 94 95 100 101 105 108 106 107 105 105 108 105 98 98 98

GFSSE_250_spd_087.txt.gz
Wind_Speed
46 45 43 44 45 42 40 39 37 40 37 36 34 35 34 36 37 35 35 31 29 27 24 26 26 28 28 19 21 20 20 22 23 23 23 24 27 29 30 33 37 39 43
48 45 42 42 42 41 41 40 40 41 39 36 38 36 37 35 35 36 34 27 30 30 28 28 29 29 27 26 24 20 21 21 22 22 24 25 28 31 33 36 39 42 44
50 48 45 42 42 41 41 41 41 41 42 42 39 41 38 39 37 35 32 29 28 28 28 29 31 28 29 26 22 21 22 21 20 23 26 28 30 33 36 38 41 43 46
49 50 47 44 41 41 41 42 42 42 41 43 42 40 40 39 36 35 32 32 30 30 27 28 26 26 24 21 22 22 20 21 23 26 28 31 32 35 38 40 43 45 48
50 49 49 45 42 42 42 42 42 42 40 40 39 38 37 34 32 32 30 30 31 30 30 27 25 23 23 23 21 21 21 24 27 28 31 33 36 38 41 43 45 48 51
48 48 49 49 45 43 42 40 41 40 39 36 34 33 32 30 30 29 29 30 30 30 30 26 25 24 24 22 21 22 23 25 27 30 32 35 39 41 43 46 48 50 54
48 46 47 48 46 43 43 41 39 38 37 34 33 32 30 28 27 28 28 27 29 27 25 25 24 25 23 22 23 24 25 27 29 32 36 39 42 44 46 49 51 54 59
48 46 47 47 45 43 44 42 41 39 39 35 33 32 31 28 27 28 28 28 26 25 25 26 26 25 24 24 26 27 30 31 34 37 40 43 45 46 49 52 54 57 61
49 48 47 47 45 43 42 42 41 42 39 36 34 32 30 29 29 28 29 28 26 26 27 27 26 25 25 27 29 32 33 35 39 41 44 46 48 49 52 54 58 60 65
51 50 49 48 46 44 42 42 43 41 38 36 35 33 31 31 31 29 29 27 27 27 27 27 27 28 29 32 34 35 37 39 42 45 47 49 51 52 55 58 60 64 68
53 51 51 50 47 45 44 44 42 40 38 37 35 33 33 33 31 29 29 28 29 29 30 30 31 32 33 35 36 39 41 44 47 48 50 52 54 56 59 62 63 68 71
55 54 52 53 51 49 46 45 42 41 40 38 36 34 34 34 34 32 32 30 31 32 33 34 35 36 37 38 40 42 45 48 50 51 53 56 59 61 63 65 68 72 74
59 56 54 55 54 52 49 46 45 43 41 39 38 36 36 37 36 35 35 35 35 37 37 37 38 41 42 43 45 47 48 52 54 54 58 59 61 65 66 69 72 73 75
63 60 57 57 56 55 53 49 48 46 42 39 39 38 39 39 39 38 38 38 38 39 40 41 43 44 47 48 49 51 52 54 56 58 63 63 66 69 71 72 74 75 77
65 64 60 59 59 59 57 54 52 49 45 43 42 41 41 40 40 40 39 40 41 43 44 45 46 48 50 51 53 54 55 57 59 63 65 67 69 72 72 73 75 77 81
68 61 59 62 62 61 60 58 55 52 51 49 47 46 44 44 44 44 44 45 45 46 48 49 50 51 53 54 56 58 58 60 65 68 69 71 74 75 75 76 77 82 84
62 55 58 60 63 64 62 62 60 57 56 55 53 51 49 48 49 49 48 50 51 52 52 53 53 55 57 59 60 61 60 66 69 72 72 75 77 77 78 78 82 85 90
71 66 62 54 59 66 64 63 63 62 61 60 59 56 54 53 54 53 53 54 55 55 56 56 58 60 61 62 61 62 66 70 74 75 76 77 78 79 80 82 87 90 96
78 69 62 54 57 62 66 68 66 66 67 66 63 60 59 58 58 59 59 58 57 56 58 60 61 63 65 64 66 68 70 75 76 78 78 77 78 80 82 87 90 97 100
84 80 66 67 61 59 60 64 68 71 72 71 69 66 64 64 63 62 60 59 59 61 63 65 66 66 65 67 70 73 75 76 80 80 80 81 84 85 89 92 97 101 104
87 84 82 69 55 64 56 67 73 70 69 71 72 71 71 68 65 65 64 65 66 66 67 66 68 67 69 72 74 76 79 80 80 84 84 86 88 92 95 98 101 104 107
93 90 86 82 64 58 62 59 63 67 64 62 66 70 72 70 69 68 67 66 68 67 68 71 69 72 73 75 77 78 79 82 85 86 89 90 93 95 99 102 104 107 110
100 95 92 94 79 75 64 65 72 74 75 71 71 66 67 68 70 71 72 73 73 73 74 72 73 74 75 77 79 82 83 83 86 89 91 95 97 99 102 105 106 110 112
100 100 98 97 98 92 83 67 71 74 76 78 73 72 71 69 69 71 72 73 74 72 74 77 78 79 80 83 86 87 86 87 89 87 92 97 99 102 105 107 107 109 110
96 100 104 102 101 98 91 83 81 79 78 79 82 79 76 74 73 73 72 72 74 77 80 81 83 85 87 88 89 89 90 92 91 93 93 97 101 103 105 107 106 107 108
98 98 103 108 106 104 100 93 90 88 83 81 77 77 75 76 75 77 77 78 82 84 85 86 89 89 89 91 90 90 90 91 95 97 97 101 100 102 103 102 103 105 104

GFSSE_250_spd_090.txt.gz
Wind_Speed
50 47 46 43 44 44 44 43 40 39 36 37 37 34 37 35 32 32 31 33 33 33 29 28 28 28 26 26 26 25 25 22 21 21 21 22 23 24 26 29 33 34 36
53 50 47 46 45 44 44 44 42 39 39 37 38 37 35 34 34 33 33 32 32 30 25 27 26 26 27 26 26 25 23 22 21 21 21 23 26 27 29 31 35 35 38
52 53 49 46 45 46 44 44 41 40 39 39 39 40 37 34 35 35 37 35 32 31 30 28 28 27 26 26 26 24 21 23 20 20 23 25 27 29 31 33 37 38 40
45 51 51 49 46 46 44 42 40 39 39 38 38 40 42 41 40 36 33 34 32 32 31 29 29 28 26 26 23 23 24 21 21 22 24 26 28 30 33 36 39 41 43
44 47 51 51 48 46 44 40 39 39 37 39 39 39 40 40 40 37 34 32 30 31 28 28 28 29 25 24 24 26 25 22 23 23 25 27 30 34 37 40 42 44 44
46 45 48 50 48 47 45 42 40 39 38 39 39 38 39 34 34 33 31 31 30 29 29 27 28 25 25 26 27 28 23 25 24 26 28 31 35 38 40 42 44 46 48
50 46 47 48 48 47 46 44 43 41 39 40 40 38 36 34 34 30 29 28 27 27 26 27 25 24 26 27 29 26 27 26 27 29 32 35 38 41 43 44 46 48 51
52 48 46 47 48 47 47 46 44 42 41 39 37 38 35 33 32 30 30 27 28 27 27 26 25 26 27 28 29 29 29 29 31 32 34 37 41 44 46 47 49 51 54
54 51 47 48 48 47 45 46 45 44 44 41 38 36 36 34 31 31 31 28 29 29 29 26 26 28 28 29 30 30 32 33 34 36 39 41 44 48 48 50 52 55 57
57 54 50 48 49 48 47 46 44 45 43 42 40 39 37 35 33 33 31 30 30 30 29 28 28 28 29 30 31 34 35 37 37 39 43 45 49 51 52 54 57 59 63
60 57 53 49 49 49 48 47 45 45 43 41 41 40 38 36 34 34 33 32 32 31 30 30 31 30 31 33 36 37 39 39 41 44 47 49 52 54 55 58 60 63 65
62 60 57 52 50 50 49 48 47 45 42 41 42 40 39 37 36 35 35 34 34 33 33 34 34 35 36 37 39 40 42 44 45 48 50 53 54 56 58 61 63 66 67
62 61 60 56 51 50 50 49 47 45 42 40 40 41 41 39 37 37 37 37 37 38 38 37 38 40 41 41 43 44 46 47 49 51 53 54 57 59 61 66 67 67 69
65 59 59 58 54 52 51 49 48 46 44 43 41 40 41 40 40 39 39 40 39 40 41 41 42 43 44 44 46 47 49 50 52 54 56 57 59 63 66 68 69 71 73
70 67 62 60 58 54 52 52 50 49 48 46 44 42 42 41 41 41 41 41 42 42 43 44 44 44 46 48 50 52 52 52 54 56 58 60 64 65 69 71 72 73 75
77 73 70 62 60 57 54 53 53 52 52 50 48 46 45 43 42 43 42 42 43 44 45 45 46 48 50 52 54 54 55 56 59 60 60 64 66 70 70 74 75 77 78
79 75 72 68 62 58 56 54 56 54 55 54 53 51 49 48 46 45 44 45 46 46 47 50 50 53 54 55 57 57 58 61 63 62 65 67 69 73 75 77 78 81 83
84 77 74 69 66 63 59 58 55 58 58 56 56 56 54 52 52 51 50 50 50 50 52 53 56 58 57 56 58 62 63 65 66 65 69 71 74 75 78 80 82 85 87
88 81 76 72 67 64 61 58 57 58 59 61 60 61 59 58 56 56 56 56 56 56 57 58 59 60 60 62 64 65 65 68 68 71 73 75 75 79 81 84 86 87 89
92 86 81 77 71 65 62 55 56 54 55 62 65 63 63 62 62 62 61 60 61 62 61 63 63 64 63 65 65 66 68 71 71 75 75 77 81 84 86 87 89 90 93
94 92 87 79 65 70 64 66 63 59 54 53 56 61 67 67 66 66 65 66 67 66 67 68 66 69 67 64 69 70 73 71 77 77 81 85 87 88 90 90 91 94 96
96 96 91 86 72 61 71 70 65 62 52 53 55 56 62 62 66 71 73 72 70 71 70 69 68 65 67 71 73 73 73 77 78 83 87 90 91 91 90 92 94 97 101
96 97 95 92 86 76 70 64 62 62 57 55 47 53 57 66 67 67 69 69 67 65 65 66 68 71 72 70 70 71 77 77 85 89 93 95 93 93 94 95 97 101 104
95 96 96 96 92 88 86 80 70 70 71 72 66 61 57 60 64 66 64 66 65 65 66 68 67 69 70 71 73 77 80 85 88 89 91 93 93 95 97 99 102 106 107
96 93 94 98 97 93 90 91 88 79 71 67 69 72 68 61 68 73 73 72 71 70 70 70 73 74 74 75 77 81 88 90 91 89 89 92 95 97 100 103 106 107 109
96 95 93 98 101 99 93 92 95 95 85 75 78 75 71 70 73 75 79 80 77 76 75 77 78 76 76 79 84 88 90 90 92 93 94 95 96 98 103 106 108 108 106

GFSSE_250_spd_093.txt.gz
Wind_Speed
50 47 51 51 49 46 43 40 39 38 36 37 35 33 33 33 33 35 36 35 32 31 32 32 28 26 25 26 26 27 24 26 25 21 21 20 22 22 24 26 28 32 34
52 51 49 49 49 49 45 44 42 40 39 38 36 35 35 35 35 35 33 35 33 32 33 32 30 28 26 28 26 26 25 25 23 22 24 22 23 24 26 26 30 34 37
48 49 50 50 48 48 46 43 43 42 42 41 39 37 36 35 36 36 35 33 35 36 35 31 32 31 30 28 27 24 24 23 25 25 22 25 24 25 26 29 32 36 39
45 44 46 51 50 48 47 44 44 44 43 42 40 37 37 36 38 39 40 38 38 37 31 32 30 31 27 27 26 24 24 25 27 25 26 26 26 28 30 33 36 38 41
48 45 43 45 50 50 48 46 44 43 43 43 41 39 37 37 38 39 40 39 36 34 32 30 31 28 27 26 24 25 25 28 28 27 27 26 29 32 34 36 39 41 44
51 47 46 44 47 49 50 48 45 42 43 42 39 38 37 37 37 36 36 31 31 31 29 30 29 29 27 25 25 26 26 29 29 27 30 30 32 34 37 39 43 45 47
54 50 47 46 45 48 50 49 48 45 44 43 41 38 38 37 35 36 34 33 32 31 30 29 30 26 26 25 26 27 29 30 29 30 32 33 35 38 41 43 46 48 51
57 53 50 47 46 46 47 48 48 47 45 43 42 40 40 39 36 36 35 33 32 31 30 29 28 28 26 27 28 30 31 31 31 33 35 37 39 41 44 47 50 52 54
59 55 52 50 48 48 47 48 48 48 46 45 42 42 41 39 37 37 36 34 32 32 32 29 30 30 27 28 29 29 29 32 34 36 38 41 42 44 47 49 52 54 56
61 58 55 51 50 48 48 48 48 48 46 46 45 45 44 41 38 38 37 34 33 32 32 32 31 30 29 30 30 30 32 34 37 39 41 43 46 48 50 53 54 57 60
64 59 57 54 51 49 48 46 47 47 45 45 44 44 43 41 38 40 38 36 36 34 34 34 32 31 32 33 34 34 35 37 39 42 44 47 49 51 53 55 57 59 63
69 63 60 56 52 51 49 47 47 47 46 46 43 42 41 41 40 41 38 37 38 37 36 36 34 34 34 35 37 39 40 42 44 45 47 49 52 53 55 57 59 62 65
73 69 63 59 54 53 51 49 47 47 46 46 44 42 40 39 41 41 40 40 39 39 39 38 37 38 39 39 40 43 44 45 46 48 50 51 52 55 58 59 62 65 68
76 74 68 62 58 54 53 50 48 48 47 45 44 43 42 41 40 41 41 42 40 41 41 41 41 42 42 43 44 45 46 47 49 51 51 52 56 59 61 62 66 68 72
78 74 71 66 62 59 55 54 52 50 49 48 46 45 44 42 40 41 41 42 43 43 42 43 44 44 44 45 47 47 48 50 52 51 51 55 58 61 64 65 69 72 74
82 76 74 69 67 61 58 55 55 52 51 51 48 48 47 45 43 42 42 43 44 44 44 44 44 45 46 47 48 51 52 54 57 53 55 59 58 63 65 68 72 75 77
80 80 75 70 67 64 58 55 54 53 53 54 52 51 50 48 46 46 45 44 44 44 44 45 46 48 49 49 53 55 59 61 60 60 61 61 62 65 68 71 74 78 82
92 84 77 74 67 66 63 57 54 54 55 55 56 55 53 51 51 50 49 48 49 48 48 48 50 52 53 56 58 59 59 62 64 63 61 65 66 70 72 74 77 81 85
96 92 87 80 75 71 67 63 59 57 56 58 56 57 57 55 54 53 53 54 54 53 53 55 56 57 58 60 61 64 67 67 67 65 64 69 71 73 73 78 81 85 88
96 95 92 87 81 72 73 70 64 62 59 57 59 58 56 57 57 57 57 58 60 61 62 62 62 62 63 65 66 68 71 69 67 67 70 71 71 74 78 80 85 88 88
95 96 95 92 87 81 74 73 72 63 57 62 62 62 56 47 50 54 60 63 63 65 66 66 66 67 69 70 71 68 68 65 67 70 72 74 76 78 82 84 88 89 89
96 95 97 94 91 88 82 77 73 70 67 63 63 60 59 64 54 44 45 50 55 57 60 65 72 73 72 71 69 66 65 66 70 71 74 77 79 81 85 89 89 91 94
96 95 96 96 90 89 86 82 72 70 70 68 68 65 61 59 59 57 55 59 61 62 61 61 64 66 66 64 63 64 67 69 72 74 78 81 84 87 90 92 94 96 97
95 96 94 94 91 69 81 85 84 79 76 74 71 69 61 65 62 64 60 55 60 63 65 68 69 67 67 64 66 69 72 72 74 76 78 84 89 93 95 96 99 101 101
95 95 98 96 94 90 77 81 90 85 82 76 74 76 72 71 71 64 59 62 61 61 62 67 69 66 69 71 72 74 78 76 76 79 82 88 91 96 98 102 103 104 105
96 97 96 97 96 96 94 85 89 93 90 87 76 72 74 76 76 75 74 68 69 73 73 71 72 74 74 76 77 77 80 79 77 84 88 91 93 98 102 104 107 108 109

GFSSE_250_spd_096.txt.gz
Wind_Speed
51 48 46 45 46 45 43 41 40 34 33 33 32 32 31 28 28 29 30 30 32 33 33 33 31 35 30 32 30 29 27 24 22 25 24 24 23 26 27 26 27 29 31
51 49 47 45 46 47 44 43 42 38 36 35 36 34 34 33 32 30 32 32 32 32 32 33 34 34 32 32 31 28 26 24 23 23 24 25 27 27 28 28 29 32 34
52 50 48 47 44 44 46 44 43 44 40 40 37 38 36 37 35 34 33 32 33 33 33 35 37 38 34 31 30 26 26 24 24 24 26 27 28 28 29 30 32 34 36
53 53 50 48 48 45 45 45 44 45 42 39 38 38 38 38 37 36 35 34 34 37 38 39 38 35 33 31 27 28 25 24 25 26 27 29 29 29 32 34 37 38 40
49 48 46 46 46 47 46 46 45 45 42 39 39 38 40 39 38 37 34 34 35 37 36 33 32 31 30 28 28 27 25 25 26 27 28 30 30 33 34 37 39 41 43
50 48 46 43 42 42 43 46 47 46 43 40 38 39 39 39 38 38 36 36 34 34 34 34 33 31 30 28 27 26 25 26 28 29 31 31 33 35 38 40 43 46 47
56 50 47 45 43 40 38 41 44 47 45 43 40 39 38 38 38 36 36 35 35 33 33 34 32 31 29 28 27 25 26 27 30 31 31 33 34 38 41 43 46 48 51
60 55 50 48 46 43 41 40 40 43 45 45 43 42 39 39 39 37 35 35 34 34 33 34 31 32 30 29 29 27 27 28 30 30 33 34 37 40 43 45 47 49 52
63 60 55 52 50 46 43 41 40 39 42 46 46 44 42 39 39 38 36 36 36 35 34 34 33 32 32 31 31 28 29 30 31 32 34 36 40 42 44 47 50 52 54
67 64 58 55 52 50 47 45 42 41 40 41 46 45 45 41 40 39 39 38 37 37 36 35 35 35 34 33 32 31 32 33 35 36 37 39 43 46 48 50 51 53 55
68 66 62 59 55 51 49 47 45 43 41 41 44 45 45 44 42 41 41 40 38 39 37 37 36 36 36 35 34 34 35 35 37 39 40 43 47 47 49 51 53 55 57
71 69 67 63 58 54 51 48 46 45 44 42 42 44 43 44 41 40 41 40 38 41 38 38 38 38 38 38 37 38 38 38 40 43 45 48 48 49 50 51 56 55 58
77 74 69 66 61 57 54 50 48 46 46 44 42 44 42 42 41 40 40 37 38 40 38 39 39 39 40 40 39 41 42 43 44 46 48 49 49 52 53 53 57 57 61
81 77 71 70 65 59 55 52 48 47 47 45 43 44 45 43 42 40 38 38 39 39 40 40 41 41 42 42 42 43 45 45 47 49 48 49 50 55 56 60 58 60 62
82 79 75 71 67 63 58 56 52 48 47 48 46 46 45 46 44 42 40 40 38 40 40 42 42 43 45 44 44 45 45 47 48 48 49 53 55 56 58 58 59 63 66
85 81 77 74 69 67 63 61 56 54 49 50 50 49 48 47 47 44 43 41 40 41 42 42 43 44 45 45 45 46 47 49 50 51 54 52 59 60 61 59 62 67 69
87 85 80 78 73 68 67 65 60 59 54 50 51 51 51 50 50 47 46 44 43 44 44 43 43 45 46 46 48 48 51 53 54 55 55 61 64 63 62 62 66 67 71
89 89 85 84 78 74 70 67 62 62 59 56 51 52 52 52 53 50 50 48 47 47 47 47 48 49 51 52 53 54 56 58 58 58 63 65 65 66 62 64 68 73 74
93 86 84 84 81 78 76 71 68 62 61 60 56 49 52 53 52 53 52 52 52 52 53 54 55 55 56 57 59 61 62 62 64 64 69 68 68 62 61 68 71 75 77
98 96 91 85 83 77 77 75 72 67 63 62 59 55 51 51 53 53 54 54 55 57 57 58 59 60 60 62 65 67 67 68 70 70 70 68 66 64 67 70 73 75 78
88 92 95 94 93 88 82 75 69 66 65 58 59 60 56 54 54 55 54 53 58 62 64 60 57 58 62 63 64 62 67 71 73 71 68 68 64 68 70 74 75 77 82
100 87 90 96 94 93 89 86 83 78 69 62 56 60 55 59 56 56 58 61 61 60 54 46 46 46 49 51 50 55 62 65 65 69 70 69 70 71 74 77 77 80 82
97 99 96 92 92 93 92 87 86 84 80 72 60 64 51 51 48 47 46 50 59 67 67 61 59 60 59 59 62 64 67 69 69 71 71 73 74 76 78 78 80 82 92
97 97 96 93 91 91 90 86 82 81 81 80 66 54 62 60 56 61 59 60 60 61 63 67 69 72 74 74 74 73 73 72 73 71 74 76 79 78 77 79 85 93 96
99 97 94 90 90 91 91 90 87 80 73 81 82 78 74 74 71 67 67 69 69 70 71 70 71 71 71 69 65 67 67 70 73 77 75 74 75 80 84 87 96 100 102
96 95 94 94 93 91 92 91 90 91 89 87 82 89 89 81 78 78 74 70 74 74 73 74 72 74 73 77 74 74 75 77 76 76 79 80 79 81 87 95 102 105 107

GFSSE_250_spd_099.txt.gz
Wind_Speed
49 50 48 44 43 44 41 41 38 35 33 31 29 28 26 27 26 25 26 24 24 26 28 28 29 30 31 33 35 32 30 28 26 25 25 26 27 28 29 28 30 32 33
51 49 49 45 43 43 41 42 42 38 37 36 34 29 31 30 28 29 28 27 28 28 28 29 29 31 35 37 32 32 29 25 27 26 26 27 27 29 30 30 31 34 36
51 48 48 46 43 42 41 41 43 40 38 39 36 33 31 31 32 32 31 32 33 31 30 31 32 33 37 34 31 29 28 27 27 25 26 26 28 29 32 31 34 35 38
51 48 48 46 44 44 43 40 41 42 39 39 39 38 37 36 35 35 35 35 34 31 31 32 33 34 32 34 31 31 29 28 27 26 27 27 28 31 33 33 36 38 41
53 49 48 48 47 45 43 43 40 40 39 40 40 40 39 35 34 35 36 36 35 35 32 34 33 34 33 33 31 31 29 27 26 26 27 28 31 33 33 35 39 41 43
51 51 47 48 48 47 46 43 42 41 42 44 41 40 37 37 35 36 35 36 36 35 35 34 33 32 33 33 32 30 29 27 25 28 28 30 31 32 36 38 41 44 47
51 48 46 46 44 43 44 41 40 40 41 42 42 40 39 36 35 35 34 34 35 35 36 34 33 34 34 32 33 31 30 29 29 29 29 32 32 35 38 41 45 47 49
57 52 49 47 44 44 42 39 36 35 34 34 38 42 42 39 37 37 36 35 35 35 35 34 33 35 34 33 32 32 33 31 32 32 32 33 35 38 40 44 47 49 50
59 54 53 51 48 44 43 42 40 36 36 34 33 38 41 41 40 40 38 37 35 35 35 34 35 37 35 35 34 34 34 33 33 34 35 35 37 40 44 48 50 51 50
67 60 57 54 52 48 46 44 42 40 39 37 35 34 38 40 41 41 40 38 37 37 37 37 37 38 36 36 37 36 36 36 35 36 37 38 40 42 46 50 50 50 52
74 69 58 58 57 54 50 47 45 44 41 39 39 36 36 38 40 42 41 39 39 38 38 39 36 39 37 36 37 38 38 37 38 39 41 42 44 46 48 50 47 50 52
76 71 65 60 60 57 55 51 48 45 44 42 42 41 38 37 39 42 41 41 41 40 39 39 37 40 38 36 38 39 39 40 41 42 43 46 47 48 49 49 50 53 55
79 74 70 64 62 60 59 54 52 47 46 45 44 43 41 39 39 39 40 41 40 39 38 36 35 39 38 38 40 41 41 43 43 45 46 47 48 49 49 52 52 55 59
83 78 73 68 66 63 61 58 55 53 50 48 45 45 44 42 40 40 40 42 41 38 37 37 37 39 39 40 42 44 43 45 44 45 46 46 48 49 53 54 56 61 61
85 81 77 73 70 66 63 60 59 56 54 52 48 45 45 44 43 41 41 42 43 41 39 39 38 41 41 42 44 45 46 46 47 47 48 48 51 53 57 58 61 64 66
87 83 79 77 75 71 69 65 63 61 58 54 52 48 44 45 44 43 43 43 44 45 42 40 40 40 41 43 43 45 45 46 48 50 50 51 55 57 60 64 66 67 68
91 87 82 80 78 76 73 70 68 65 62 59 54 51 49 45 45 46 45 45 47 47 47 45 43 43 44 44 45 47 47 49 51 52 54 57 59 62 65 67 68 69 71
87 88 87 83 81 80 77 74 70 67 64 63 60 56 54 51 48 47 48 47 48 50 50 50 50 49 48 49 50 52 53 55 55 57 58 61 64 69 67 69 72 72 70
88 86 87 88 86 84 80 77 74 69 67 66 64 63 60 56 54 49 48 49 50 51 53 54 54 55 55 55 55 54 54 56 57 59 57 57 68 70 67 71 69 69 71
88 85 89 86 81 86 85 81 78 75 72 69 66 65 60 58 58 55 50 48 50 52 55 57 58 59 58 60 58 57 57 58 64 65 64 64 65 67 66 66 69 68 70
99 91 80 88 93 86 82 81 83 82 77 72 70 68 63 61 57 57 55 52 51 53 56 59 60 63 63 62 56 52 63 65 67 65 67 62 63 67 70 70 69 69 75
98 100 100 93 88 90 90 88 80 79 78 76 75 72 71 65 60 59 57 58 56 55 55 58 62 64 68 63 67 71 73 71 69 71 65 66 70 73 75 75 71 73 76
94 96 98 95 92 91 95 88 85 80 65 65 70 72 64 62 66 57 51 53 52 55 58 61 64 68 69 69 69 69 64 66 68 70 73 76 79 76 70 76 78 76 78
95 94 94 96 97 89 83 88 93 90 86 75 65 69 66 67 65 59 46 51 49 50 54 57 60 63 64 68 68 70 70 73 76 74 76 78 79 73 78 77 80 81 83
98 97 96 95 96 96 78 73 72 82 90 90 90 80 72 72 75 73 63 63 65 65 65 66 66 68 72 71 75 76 81 80 79 80 79 78 77 77 81 84 86 83 86
98 96 97 94 94 95 92 86 85 80 81 84 89 94 93 83 80 82 81 74 72 70 67 71 72 72 73 77 82 80 81 82 79 78 86 83 80 83 84 85 85 86 90

GFSSE_250_spd_102.txt.gz
Wind_Speed
51 50 45 44 44 42 40 37 37 35 32 31 27 27 26 24 23 22 21 21 22 23 24 25 26 26 28 30 33 36 33 33 32 30 30 29 26 27 26 28 29 32 32
52 52 47 46 46 44 40 39 38 38 35 34 32 30 29 26 25 27 25 24 25 26 27 29 29 29 29 31 34 33 34 32 31 30 30 29 26 27 27 29 31 34 36
55 53 48 46 46 47 43 41 38 38 38 37 36 35 33 32 30 28 28 28 28 30 30 31 30 31 31 33 33 33 33 31 30 31 29 28 28 28 28 31 33 35 38
50 51 51 48 45 45 45 42 38 37 37 38 38 38 36 35 33 32 32 32 31 31 31 32 32 33 33 32 33 32 33 31 30 31 29 28 28 29 30 33 35 37 40
56 53 50 53 49 45 43 42 40 38 36 37 40 40 38 37 35 35 34 33 33 31 33 33 34 33 33 33 33 34 33 31 30 30 29 29 29 31 32 35 37 40 42
58 58 51 49 49 46 44 42 41 39 38 36 37 38 39 38 37 35 34 34 33 32 32 32 32 32 34 32 34 34 33 32 32 31 30 32 31 32 34 37 40 42 45
56 55 58 53 50 46 43 43 43 41 39 38 39 39 39 41 39 38 36 33 32 31 32 32 32 33 33 32 34 34 34 34 33 33 32 33 34 34 36 39 42 44 47
58 55 55 56 54 46 44 45 44 42 41 39 38 36 35 37 39 38 38 36 33 32 33 33 32 32 33 34 36 35 35 34 34 34 34 34 35 37 40 42 44 46 48
60 56 54 52 52 48 46 44 43 39 37 36 35 32 30 30 33 35 38 38 36 35 34 34 33 33 34 36 38 37 35 35 35 36 36 36 37 40 43 45 47 47 49
66 62 59 55 49 46 45 43 42 41 39 37 36 34 33 32 31 32 34 37 37 37 36 35 35 35 38 37 37 38 37 35 36 36 38 38 39 42 45 46 47 48 49
70 68 62 61 58 53 49 46 44 43 41 40 39 37 36 34 33 31 32 35 35 37 38 37 37 37 38 40 38 39 39 36 37 37 40 41 42 44 46 47 47 50 50
73 71 67 62 60 56 51 50 48 45 44 43 42 40 38 37 37 35 34 35 35 36 37 38 39 40 38 39 37 39 39 39 39 40 42 44 44 44 45 47 48 51 53
77 71 72 68 64 61 53 53 51 50 48 48 45 43 41 40 40 38 37 37 36 35 36 38 40 40 38 37 37 39 39 40 41 43 45 46 46 46 47 47 51 54 57
84 79 72 73 67 65 63 56 55 55 53 52 49 46 44 44 43 41 40 39 39 37 38 38 38 38 38 38 39 41 43 41 43 45 45 46 47 48 49 51 53 57 60
86 81 79 76 73 69 66 64 59 56 56 56 53 50 48 46 45 44 42 40 39 40 40 40 41 40 40 41 42 42 43 43 44 45 46 47 48 50 53 54 58 63 64
92 86 84 80 79 74 72 68 65 60 59 58 57 56 53 51 48 46 43 40 41 41 41 42 43 45 45 44 44 44 44 46 46 47 48 49 52 55 57 58 61 63 66
96 93 89 88 83 81 77 73 70 66 63 62 60 57 56 55 52 49 47 44 42 42 43 44 46 47 48 49 48 48 48 49 50 50 50 49 52 54 59 60 65 66 68
97 94 92 89 85 83 82 78 74 72 68 67 63 61 60 59 58 54 51 49 47 45 45 46 48 51 52 52 53 53 54 54 54 54 52 53 54 61 62 64 69 71 69
97 99 91 87 84 85 82 83 78 75 73 72 69 66 65 64 63 60 57 54 53 53 49 47 51 52 53 55 58 58 59 59 58 57 59 58 60 65 67 71 67 70 66
87 92 90 88 88 83 79 78 76 80 78 77 74 70 69 68 65 62 61 61 58 59 58 55 52 52 54 56 59 63 63 62 62 60 60 64 68 71 70 69 66 64 72
82 89 92 88 83 85 85 75 82 82 80 80 75 72 70 69 67 66 63 61 60 59 58 57 56 55 53 54 55 60 67 66 65 64 64 69 65 67 66 67 70 73 74
90 90 89 89 90 87 82 84 85 87 85 85 82 78 74 73 71 70 67 65 64 62 63 62 62 62 62 61 65 65 66 65 68 69 67 64 63 67 69 71 73 73 76
90 93 90 94 91 90 87 86 79 82 79 78 73 76 78 77 78 76 72 68 68 69 69 68 66 68 69 68 70 72 73 74 73 71 71 67 68 73 74 78 81 76 78
97 93 88 90 90 85 90 93 91 90 85 75 79 78 71 66 67 68 68 69 68 68 66 63 71 68 72 74 74 70 65 66 69 71 70 73 78 83 83 83 79 82 78
100 96 94 91 92 94 94 95 94 93 81 76 67 62 66 69 63 68 70 67 71 69 68 62 64 70 68 65 64 68 74 78 80 82 84 81 83 83 83 85 74 81 79
102 99 98 92 88 93 95 89 88 96 96 88 85 89 76 74 85 86 79 74 71 74 73 75 74 71 74 72 73 74 75 77 78 80 81 85 83 83 86 89 83 85 82

GFSSE_250_spd_105.txt.gz
Wind_Speed
53 51 50 48 47 46 46 41 41 33 32 32 29 27 25 23 22 22 21 20 20 20 21 22 24 25 28 28 29 30 32 32 32 31 31 31 29 29 28 29 28 30 32
52 50 51 49 47 44 44 40 39 37 34 34 34 29 30 27 26 26 23 23 23 23 23 25 26 28 29 30 31 32 32 32 33 31 30 30 29 29 29 29 29 32 34
55 54 52 51 48 46 43 42 39 38 35 35 37 35 31 31 31 29 29 27 26 26 27 27 28 29 30 32 32 33 33 31 34 32 31 30 30 30 31 31 31 35 38
56 54 53 50 49 49 46 42 40 38 37 34 37 37 36 35 35 35 32 30 30 30 30 29 30 30 31 32 31 31 31 32 33 32 31 30 31 30 32 34 34 37 39
56 56 53 53 51 48 46 42 39 38 39 36 34 36 36 37 35 37 36 33 33 33 31 31 30 30 30 31 31 31 30 32 33 32 32 32 32 32 33 34 36 39 41
56 54 51 50 50 50 50 46 43 38 40 38 35 34 33 35 37 37 35 35 34 33 35 32 29 30 31 30 31 30 30 32 34 32 32 32 32 33 34 35 37 40 44
56 58 55 52 50 48 47 49 48 43 40 38 36 34 34 34 34 34 36 37 38 36 33 32 30 31 32 30 30 31 31 33 34 33 31 32 33 33 34 37 38 41 44
62 57 57 58 56 53 50 44 44 44 42 40 39 37 36 35 35 34 34 35 36 36 34 33 32 33 33 32 31 31 32 34 35 35 32 33 34 34 35 38 40 43 46
64 64 61 57 58 56 53 51 47 46 43 41 39 39 38 33 30 29 28 28 30 32 33 34 35 35 34 34 33 34 35 35 35 37 34 34 35 36 38 40 41 44 46
65 64 65 62 58 54 53 53 52 48 45 42 39 37 34 31 29 29 29 28 26 28 28 31 34 34 35 36 35 37 38 38 36 38 37 36 37 38 40 42 43 45 47
68 68 69 63 60 55 52 51 50 51 50 43 40 38 36 34 33 31 31 30 29 28 28 29 31 34 35 36 38 39 39 38 36 38 38 38 39 40 43 45 45 47 49
66 68 69 70 64 58 53 50 44 43 45 43 41 40 38 37 36 34 34 33 33 32 32 32 32 32 34 35 37 39 39 38 38 38 40 41 41 42 44 45 46 48 50
60 64 59 63 63 60 57 54 51 49 48 47 45 43 41 41 39 37 37 37 36 35 35 35 35 36 36 36 35 37 38 39 40 42 42 43 44 45 46 46 48 50 53
66 68 79 75 65 62 59 56 55 55 51 50 50 48 47 45 44 42 41 41 39 39 38 37 38 37 39 39 38 37 38 40 42 43 44 45 47 47 47 48 49 51 51
88 70 78 78 69 67 64 60 59 57 56 54 52 51 51 50 49 47 44 43 42 42 40 38 39 40 39 40 42 43 43 43 43 44 46 46 47 48 48 47 48 50 53
93 82 77 79 78 73 69 66 64 61 60 59 57 54 53 53 52 49 46 45 45 44 44 40 39 40 41 43 45 46 47 48 48 48 49 49 50 50 50 53 55 54 55
89 92 85 83 78 77 75 70 66 68 67 64 61 62 56 54 53 52 51 52 50 48 46 46 44 43 43 45 46 47 50 52 52 53 54 55 54 54 57 59 61 61 64
86 86 86 86 81 80 76 75 73 70 70 70 65 63 63 61 58 57 54 53 54 54 53 51 50 51 50 49 49 49 52 53 53 55 56 55 55 57 60 62 64 65 68
86 87 86 87 89 90 83 79 79 77 73 70 71 71 69 68 63 61 59 58 58 58 59 57 56 57 56 56 56 52 52 55 56 58 58 59 59 59 61 63 65 67 70
79 82 89 90 92 90 89 85 82 82 81 81 79 76 74 71 70 68 66 65 63 62 62 62 62 62 61 59 56 55 57 59 60 63 66 65 67 66 65 67 71 69 68
76 77 83 85 90 90 90 90 91 93 89 84 80 76 77 77 76 72 71 71 69 65 65 63 64 64 65 65 67 67 66 67 69 71 71 69 68 67 65 67 70 68 71
89 83 86 85 84 85 76 72 73 76 78 86 86 86 86 79 76 73 73 72 72 71 68 68 67 67 70 71 71 73 74 71 70 71 70 72 70 72 69 70 69 68 74
69 80 86 84 86 87 90 89 73 70 66 72 72 79 80 75 72 76 76 74 74 74 73 73 72 73 72 74 75 74 75 76 78 73 76 75 72 69 67 72 77 80 80
74 80 86 88 84 84 83 86 86 72 72 81 80 69 78 78 77 73 70 70 66 71 70 67 67 69 70 71 75 79 80 80 73 73 73 76 76 76 76 78 84 82 84
81 75 81 83 72 77 82 85 83 90 82 75 68 75 74 79 71 72 62 63 70 68 67 65 64 65 71 76 75 74 72 76 77 80 80 82 82 80 83 81 84 82 82
99 84 83 75 73 72 83 87 85 90 90 87 72 81 76 72 73 60 57 62 68 70 70 68 62 70 70 78 78 81 80 80 82 82 83 83 83 83 83 86 87 91 93

GFSSE_250_spd_108.txt.gz
Wind_Speed
51 49 48 49 48 48 47 46 44 38 34 34 30 28 27 25 22 22 22 21 22 21 20 20 20 20 22 24 24 26 27 28 28 27 29 28 28 28 28 28 29 29 30
53 50 50 49 49 48 48 47 45 44 40 36 32 29 30 30 28 28 26 25 24 24 22 22 22 23 24 25 25 27 28 25 25 26 29 28 28 28 28 28 29 31 32
55 54 53 52 50 49 49 46 45 43 38 37 33 31 29 31 31 29 29 29 29 28 28 28 28 28 27 28 27 28 28 27 25 26 28 28 29 29 28 28 29 31 33
59 56 56 53 51 50 48 48 46 43 38 37 34 30 29 32 33 33 31 30 33 33 31 30 31 30 30 29 28 29 27 26 25 26 28 29 28 28 28 30 30 31 34
59 60 58 56 53 51 48 48 47 44 41 38 33 30 30 30 33 33 33 32 31 33 33 32 31 31 31 30 29 29 27 26 25 27 29 29 29 28 29 30 31 33 35
61 59 59 58 55 53 51 49 47 45 41 34 31 32 31 30 29 31 30 31 32 32 32 33 33 32 31 30 29 29 28 26 25 28 30 31 30 30 29 32 32 34 36
66 62 58 57 55 54 51 50 49 46 43 39 37 36 32 31 30 30 31 31 31 32 34 35 34 32 31 31 31 31 31 29 30 31 31 34 33 32 32 33 34 37 38
69 65 60 58 55 54 52 49 47 46 43 41 40 38 36 34 32 32 31 32 30 30 31 32 31 31 31 32 33 32 33 32 32 35 34 33 35 35 34 35 36 39 41
71 67 63 57 53 53 52 48 45 44 42 39 35 35 37 35 34 33 32 28 26 24 24 26 24 25 28 30 30 32 33 33 34 35 35 33 34 36 35 36 39 41 44
74 69 65 63 57 52 54 51 50 47 45 44 42 37 37 37 35 32 28 26 26 25 25 25 25 24 26 27 29 31 32 33 34 34 35 35 35 37 37 38 40 43 45
75 70 67 65 62 60 55 54 54 54 53 49 46 41 39 39 37 32 30 29 28 28 27 27 28 28 28 29 30 30 30 31 33 33 34 36 37 39 40 41 43 44 45
79 75 71 67 65 62 60 58 56 54 52 48 47 45 44 42 38 35 33 33 32 31 31 31 31 31 32 33 33 32 32 32 33 33 34 36 38 40 41 42 44 45 46
83 78 73 71 69 67 64 59 58 57 51 47 44 39 40 40 39 38 36 36 35 35 36 35 35 34 35 35 35 36 36 35 35 37 37 38 40 41 42 43 44 45 46
81 80 75 72 67 67 66 64 62 57 57 51 46 38 40 41 42 42 40 40 40 40 41 40 39 39 38 39 37 39 39 40 40 40 40 41 43 43 43 43 46 48 49
79 77 72 72 63 64 66 70 66 62 57 52 48 45 46 43 44 47 46 45 45 46 44 41 42 42 42 41 41 41 41 42 42 43 44 45 46 47 46 46 47 50 52
81 74 67 58 62 65 63 60 59 58 54 53 50 47 46 47 48 46 47 47 48 47 46 46 48 48 47 46 46 46 46 44 46 47 47 47 48 47 46 48 49 55 54
82 72 68 61 65 64 70 62 56 56 58 56 55 55 52 51 50 52 51 49 47 48 51 52 51 51 52 51 50 51 52 51 51 52 51 49 50 53 54 56 56 58 61
85 79 79 73 68 69 68 73 72 68 66 62 59 61 59 58 58 56 56 55 55 52 53 54 54 55 55 55 57 58 57 57 57 56 58 60 62 61 61 60 62 65 68
80 87 80 81 85 85 77 76 78 75 69 71 71 66 63 61 61 61 62 60 60 63 64 61 60 62 60 58 59 60 61 60 62 61 61 60 61 63 64 65 69 70 70
78 79 86 84 87 87 80 78 76 78 81 75 73 67 66 68 68 69 67 66 67 67 64 64 65 69 68 64 63 61 63 65 66 66 64 65 68 69 69 69 71 71 70
73 68 70 74 83 84 80 80 79 82 80 77 77 77 78 75 75 74 74 73 73 72 72 73 70 71 73 74 71 68 70 70 71 72 72 73 72 73 70 68 68 67 69
68 67 63 55 64 64 64 70 76 74 73 78 79 77 78 76 76 81 84 84 86 84 79 74 75 71 72 73 74 73 72 76 78 77 79 77 76 74 72 67 63 67 69
79 66 70 43 53 63 54 56 60 64 64 65 64 68 77 83 85 83 83 80 76 77 76 75 72 76 72 70 71 72 77 74 74 74 75 78 73 70 68 66 66 76 75
84 80 66 70 60 64 69 57 55 54 47 48 50 57 60 64 69 72 72 72 72 67 72 77 77 75 77 75 72 72 74 76 82 80 78 68 71 73 68 70 81 79 81
76 86 73 60 64 33 70 61 61 63 55 52 49 55 62 63 59 63 59 60 59 56 58 66 70 73 74 74 71 73 77 75 75 75 72 77 77 84 83 83 84 82 81
69 79 87 74 64 68 68 64 65 66 71 66 70 61 53 67 70 61 65 62 47 62 71 68 68 72 76 69 69 65 66 70 79 77 81 86 87 87 86 87 82 83 82

GFSSE_250_spd_111.txt.gz
Wind_Speed
49 46 46 43 42 44 43 44 42 40 35 32 31 31 27 26 26 23 21 19 20 21 21 20 20 20 20 21 22 23 24 26 26 24 23 25 26 26 25 24 24 26 27
51 48 46 45 43 46 46 45 45 43 39 38 38 33 32 27 25 27 27 25 25 24 23 22 23 25 26 26 25 26 25 27 26 25 24 26 27 26 27 26 25 27 28
55 51 50 49 47 46 47 47 48 46 45 42 39 36 32 29 27 26 28 26 26 28 27 27 26 26 27 29 29 29 27 28 28 26 25 26 28 26 27 28 27 28 29
58 55 53 52 51 49 48 48 48 46 44 43 39 36 32 29 28 27 28 28 29 29 30 30 29 28 28 27 28 27 28 29 28 26 25 27 29 29 28 29 30 30 31
61 58 56 55 54 52 51 49 49 46 45 43 42 36 32 32 30 28 28 29 30 31 30 30 29 28 28 30 30 30 30 28 29 27 28 29 29 30 31 31 32 33 33
65 62 58 57 57 55 54 51 49 47 45 42 40 38 35 29 25 26 27 27 27 29 28 29 31 31 32 34 30 29 29 29 30 30 31 32 31 30 31 32 35 35 35
69 66 61 58 57 56 55 53 51 48 45 42 41 37 34 31 28 27 26 28 27 28 28 28 27 28 29 30 30 30 29 29 30 31 30 32 31 31 31 32 34 35 36
72 68 64 60 57 56 55 54 51 49 46 45 42 39 36 34 33 28 29 28 29 29 27 27 25 24 23 24 24 25 25 26 26 27 28 30 30 30 31 33 35 36 37
74 70 67 62 59 56 55 54 53 50 47 45 42 40 34 28 27 29 29 28 29 27 24 22 21 21 21 22 23 24 25 25 25 25 26 28 28 29 30 34 37 38 39
75 72 69 65 63 59 56 53 51 51 49 45 40 38 36 35 29 30 30 28 27 26 24 23 22 23 23 23 23 24 27 28 27 28 29 29 30 32 34 35 36 38 40
76 75 71 68 65 61 58 54 52 51 47 45 42 42 41 39 37 35 33 31 27 26 27 26 25 25 26 27 27 29 29 29 30 32 32 32 33 35 35 36 38 39 39
79 77 76 73 68 64 61 58 54 50 46 46 47 46 45 46 41 38 37 34 30 30 29 28 29 30 31 31 31 32 33 34 34 35 35 36 37 37 37 38 39 40 41
79 77 79 75 74 70 65 61 60 56 53 49 48 48 45 43 39 39 38 34 32 32 32 32 33 36 38 38 37 36 37 39 39 39 38 39 41 42 42 42 41 42 42
55 69 77 83 78 76 70 66 63 60 59 55 52 49 49 43 39 38 34 34 34 36 39 38 39 40 41 40 40 42 42 42 42 42 43 43 45 45 45 46 44 44 48
61 61 63 66 80 78 73 68 67 64 61 58 54 51 49 46 42 37 37 37 37 38 41 43 44 43 42 43 44 47 47 46 45 45 46 48 49 50 50 49 49 52 52
50 57 63 66 74 77 76 73 68 65 61 60 57 52 51 51 48 43 40 42 41 41 41 41 44 44 46 46 48 49 49 50 51 51 53 52 53 53 52 53 52 53 51
68 44 47 56 69 77 70 73 71 64 61 60 59 58 56 54 50 51 48 47 48 47 48 49 49 49 47 47 51 53 55 55 56 55 55 57 57 56 59 59 55 56 56
51 54 50 50 55 68 70 74 72 71 60 53 54 51 52 48 50 51 53 53 52 51 53 55 56 56 54 57 57 59 61 62 61 65 64 63 65 65 63 63 62 63 65
78 65 53 51 58 57 56 60 67 71 69 60 53 54 54 55 54 53 53 57 58 56 57 56 57 56 56 60 62 63 63 62 64 66 70 69 68 67 65 66 71 74 66
93 88 72 66 65 62 56 57 64 66 67 62 61 62 61 59 64 63 67 65 63 63 62 63 64 63 65 68 68 67 68 70 71 72 72 70 71 69 72 76 72 65 59
94 89 95 93 85 73 70 67 67 67 66 63 64 67 73 76 72 73 75 70 68 66 66 67 67 70 71 72 75 74 71 71 66 69 72 74 74 77 75 72 71 58 58
91 92 85 83 79 77 71 67 60 63 69 70 69 73 74 74 73 69 67 68 71 64 61 63 65 70 72 74 73 72 71 70 71 73 73 74 75 75 74 71 60 61 68
91 80 73 84 76 55 60 67 62 59 65 71 71 70 70 72 73 72 66 67 69 71 73 76 77 73 72 70 69 70 71 72 75 76 73 69 71 71 66 58 62 76 71
55 54 61 56 58 53 52 58 59 50 55 58 58 59 58 58 62 58 60 65 65 63 63 63 62 62 65 68 71 73 73 74 74 68 74 71 76 70 69 67 77 75 73
67 67 48 61 56 42 39 38 40 45 50 54 60 61 60 61 66 69 66 59 58 59 57 61 62 64 68 68 71 72 67 66 68 62 74 75 76 70 75 83 80 81 78
88 74 81 58 60 48 38 41 38 51 48 51 59 57 60 65 68 63 55 53 51 51 54 54 58 62 67 72 69 70 72 73 70 75 71 81 73 80 82 92 90 87 85

GFSSE_250_spd_114.txt.gz
Wind_Speed
52 48 46 43 42 41 38 38 40 38 36 33 32 29 27 23 20 22 22 20 20 19 19 21 20 20 22 23 24 26 27 27 27 29 28 26 27 28 27 27 28 30 29
56 52 48 46 44 43 40 39 41 42 40 38 37 33 30 27 29 25 23 26 25 24 24 24 24 24 24 25 26 27 28 28 27 29 28 26 26 29 30 30 30 31 32
60 56 51 49 46 44 42 41 42 42 43 43 41 39 37 33 31 29 25 23 25 26 26 26 26 26 27 27 27 25 27 28 27 28 27 27 28 30 31 31 30 31 32
64 60 56 52 50 47 45 45 44 43 44 42 42 40 40 35 31 28 27 25 25 27 28 28 29 30 29 26 26 27 29 30 27 27 28 29 30 32 31 30 31 30 32
66 65 59 56 54 50 47 47 46 44 45 42 41 39 39 36 31 28 27 28 27 26 27 28 28 28 29 28 29 31 30 28 27 27 29 28 28 29 29 29 30 31 32
70 68 64 59 57 54 50 48 47 47 47 44 41 40 40 38 31 28 23 24 26 24 24 24 25 26 26 26 27 28 27 27 25 25 25 24 25 26 27 27 28 30 34
74 71 67 63 60 56 52 51 50 49 49 46 41 39 38 36 34 28 26 26 24 24 24 24 24 25 25 23 22 21 21 20 20 21 22 23 24 26 27 28 31 34 34
79 74 70 67 63 59 55 52 51 50 49 46 43 39 38 36 34 31 29 29 25 25 26 25 24 22 18 17 17 18 18 19 21 22 24 24 26 27 29 31 34 34 35
78 77 73 69 65 62 58 55 53 52 50 47 45 42 41 37 34 30 25 23 24 23 25 24 21 21 20 19 19 19 20 20 23 25 26 28 29 30 31 33 35 36 38
81 77 76 71 67 65 61 58 55 53 51 48 46 45 42 38 36 32 28 26 26 26 24 22 21 23 23 22 21 22 24 25 27 27 28 31 31 32 32 35 37 38 41
80 78 76 73 70 68 63 61 58 54 52 47 45 43 41 40 36 34 32 31 33 31 26 25 24 24 25 24 24 26 28 29 31 31 32 34 33 33 34 37 39 40 43
72 75 77 74 71 69 67 63 61 58 54 49 45 44 42 39 37 40 37 36 36 35 32 29 27 27 27 29 31 32 34 35 35 35 36 37 37 37 38 40 42 43 46
62 63 70 74 73 70 69 66 63 60 55 52 48 44 44 39 40 41 38 36 35 35 34 32 29 31 32 34 35 37 37 37 38 39 39 40 41 43 43 44 44 47 45
62 59 72 72 73 72 72 70 65 62 58 55 51 47 45 42 41 41 40 38 36 33 32 34 35 36 37 38 40 39 39 40 41 43 45 48 47 47 49 50 54 52 55
54 67 58 70 76 72 75 72 68 65 62 59 54 53 52 50 46 44 40 41 38 36 35 37 38 39 40 39 40 41 43 44 44 47 48 51 53 53 55 57 55 58 58
56 69 69 67 66 74 75 75 75 69 65 63 60 56 56 54 51 46 43 45 44 42 39 41 41 42 43 44 44 44 44 46 49 47 52 58 58 59 60 59 61 60 58
74 60 76 71 65 61 55 66 76 72 67 65 64 59 58 56 54 51 47 49 47 50 50 51 49 49 49 48 51 54 50 49 52 55 57 56 62 59 63 63 65 61 64
84 80 73 65 57 61 60 58 59 69 74 67 66 64 61 57 56 54 52 52 48 50 51 52 51 51 52 55 55 52 52 54 53 54 56 61 58 60 69 64 65 61 62
87 71 63 64 64 64 64 63 54 57 64 67 67 66 64 58 58 53 51 52 46 45 46 50 52 54 58 60 58 60 59 60 62 67 65 66 63 67 69 66 61 65 60
79 75 73 73 65 63 57 61 57 52 56 59 60 62 62 60 56 50 48 56 54 52 61 64 64 62 58 59 62 63 66 68 66 66 66 66 67 72 68 65 64 57 57
72 74 79 76 63 62 57 52 58 61 62 60 60 62 62 60 60 61 61 59 61 64 64 60 59 56 60 60 61 66 65 68 67 70 74 71 72 68 67 65 59 53 55
76 74 66 73 64 55 59 54 51 55 55 56 53 49 49 54 55 60 64 65 68 71 73 71 64 64 69 66 63 69 69 74 75 71 69 63 64 61 59 58 54 63 67
60 95 77 63 68 63 61 66 59 48 42 49 47 53 56 57 59 63 67 70 73 73 75 75 74 73 72 68 73 72 74 71 64 61 61 62 59 58 59 63 62 67 71
49 74 76 70 68 69 63 57 58 61 56 57 58 58 52 54 58 63 64 67 68 67 65 65 65 67 68 69 68 65 62 65 68 68 69 65 65 63 65 70 71 70 73
59 67 82 68 84 81 78 70 66 62 68 64 59 59 51 57 63 64 64 64 64 66 66 64 63 64 67 65 64 65 70 69 70 72 70 68 68 69 73 72 72 76 78
63 60 64 69 71 70 63 66 75 65 66 61 52 52 58 59 55 57 62 68 65 62 64 66 66 63 63 66 69 69 69 70 69 71 70 69 68 71 75 74 77 78 82

GFSSE_250_spd_117.txt.gz
Wind_Speed
53 49 46 43 41 39 38 37 38 35 32 29 29 28 27 24 19 17 16 18 20 19 20 20 22 22 23 23 23 24 25 26 25 25 26 29 28 27 28 31 33 31 30
57 53 50 45 44 42 40 39 38 37 38 36 34 31 31 30 26 26 25 23 24 24 26 26 26 27 25 26 26 27 27 25 26 28 26 27 28 28 29 30 30 29 30
61 57 53 49 48 46 44 42 40 39 38 40 38 36 36 34 31 30 29 27 24 23 25 26 27 29 29 28 30 29 28 26 28 29 26 27 28 27 27 27 26 27 27
65 62 58 53 51 50 47 45 43 41 39 39 38 41 38 37 34 33 32 27 26 23 25 27 28 28 28 27 27 27 29 29 29 26 26 26 25 23 24 25 26 27 30
69 66 63 58 54 53 51 47 45 43 41 41 40 38 39 39 38 35 33 28 27 25 26 25 26 25 24 23 24 25 26 26 24 21 21 21 22 22 23 25 26 30 32
73 69 65 61 57 55 54 51 47 45 43 43 42 39 37 35 35 34 33 27 24 21 23 25 25 23 22 23 23 23 21 18 16 16 18 20 21 23 25 28 30 32 33
78 73 69 64 60 58 56 54 50 47 45 44 43 42 37 34 34 34 31 26 24 23 25 27 24 23 23 22 18 18 17 16 16 17 18 21 22 26 28 29 30 33 34
74 77 73 67 65 62 58 57 54 51 48 45 44 45 40 37 35 33 29 27 25 26 25 24 23 23 21 21 18 18 19 19 18 19 22 24 25 27 28 29 30 33 35
73 71 74 73 69 65 62 59 58 53 51 47 46 46 42 37 35 34 31 28 22 22 20 19 21 22 20 20 20 19 19 19 20 22 23 26 27 29 30 30 31 35 38
73 67 71 78 73 69 64 62 60 56 53 51 48 47 43 40 37 35 32 30 25 24 25 24 22 21 22 22 23 22 22 22 25 27 29 30 29 30 33 35 36 39 42
70 70 67 75 77 72 68 64 64 60 56 53 50 47 43 41 40 36 34 32 29 27 28 30 28 25 25 25 25 25 25 27 30 32 33 31 34 35 39 40 41 43 44
64 68 57 75 74 75 70 69 66 63 60 56 53 50 45 42 39 36 33 32 32 31 29 30 30 27 26 28 26 28 30 32 33 33 33 35 38 40 41 42 45 46 52
76 69 59 71 77 76 74 71 68 64 62 58 55 53 49 43 40 36 34 33 35 33 29 30 30 27 27 29 30 31 33 34 34 36 37 36 38 42 43 46 49 53 54
62 56 47 74 77 77 75 74 72 68 64 61 57 55 53 47 42 37 37 36 35 33 32 32 30 27 28 29 32 33 35 38 38 37 37 37 41 43 47 50 54 56 59
64 55 64 76 70 74 79 75 74 71 68 65 61 59 56 51 48 43 42 41 39 38 37 36 34 34 34 33 33 35 37 41 44 43 45 46 44 47 50 46 53 51 58
64 66 59 52 69 67 75 73 73 71 68 65 63 61 58 54 51 50 48 47 47 43 41 41 39 39 38 40 39 43 44 43 48 46 48 47 50 50 47 52 54 55 62
52 66 65 63 75 71 63 69 66 71 71 68 67 64 61 60 54 55 52 51 52 49 48 46 46 45 44 47 46 46 43 43 51 51 48 49 51 54 56 56 59 60 61
75 73 65 60 74 70 61 60 73 67 66 66 66 69 65 63 60 59 59 53 53 54 52 51 48 49 43 42 40 45 44 51 50 53 53 56 57 60 60 60 60 56 54
67 77 67 73 66 63 60 62 57 59 63 67 70 67 68 68 64 60 59 59 56 56 55 51 53 45 47 44 47 43 48 50 49 50 55 60 63 64 63 60 54 50 51
77 83 81 68 66 71 58 62 58 53 52 60 54 56 57 60 63 64 62 62 61 60 56 50 53 50 53 54 58 61 54 54 56 60 62 64 65 64 62 57 49 52 51
86 99 99 67 65 68 60 58 55 52 61 64 58 56 51 53 60 62 63 61 57 57 57 62 61 59 60 64 63 67 70 71 70 68 66 65 64 60 55 51 54 54 52
74 79 92 76 58 60 56 57 55 66 67 61 57 57 52 55 56 59 53 50 51 53 56 59 60 62 63 67 70 72 75 72 66 61 61 62 58 56 54 56 57 51 53
89 82 94 90 78 61 60 58 64 68 63 49 62 53 54 58 57 53 51 50 49 53 55 56 58 64 68 72 72 71 67 62 60 58 60 57 60 56 55 53 51 55 56
91 100 91 79 73 66 54 60 70 68 50 50 53 58 63 57 59 51 52 49 49 52 55 59 63 67 68 69 66 66 65 64 59 64 61 59 59 63 62 59 55 57 60
88 87 82 64 65 70 59 64 70 66 58 56 50 47 55 54 53 45 49 52 52 58 59 62 69 66 66 69 69 66 66 64 63 63 64 65 68 68 63 64 65 67 65
78 69 66 76 46 61 65 67 71 70 66 63 56 64 60 58 50 51 52 53 57 60 63 65 63 68 71 68 64 67 69 67 66 68 70 67 67 66 67 68 66 65 65